[[{"header":{"parameterUnit":"m.s-1","parameterCategory":1,"la1":30.6,"la2":29.2853,"lo1":-89.7004,"lo2":-87.6739,"dy":0.0162,"dx":0.0183,"nx":112,"ny":82,"refTime":"2024-05-18T12:00:00:Z","depth":0,"parameterNumber":2,"parameterNumberName":"U-component_of_WINDS"},"data":[0.0,0.0,0.0,0.0,0.0,0.0,0.0,0.0,0.0,0.0,0.0,0.0,0.0,0.0,0.0,0.0,0.0,0.0,0.0,0.0,0.0,0.0,0.0,0.0,0.0,0.0,0.0,0.0,0.0,0.0,0.0,0.0,0.0,0.0,0.0,0.0,0.0,0.0,0.0,0.0,0.0,0.0,0.0,0.0,0.0,0.0,0.0,0.0,0.0,0.0,0.0,0.0,0.0,0.0,0.0,0.0,0.0,0.0,0.0,0.0,0.0,0.0,0.0,0.0,0.0,0.0,0.0,0.0,0.0,0.0,0.0,0.0,0.0,0.0,0.0,0.0,0.0,0.0,0.0,0.0,0.0,0.0,0.0,0.0,0.0,0.0,0.0,0.0,0.0,0.0,0.0,-2.5385,-2.8519,-2.9706,-2.8003,-2.7567,-2.5668,-2.1614,0.0,0.0,0.0,0.0,0.0,0.0,0.0,0.0,0.0,0.0,0.0,0.0,0.0,0.0,0.0,0.0,0.0,0.0,0.0,0.0,0.0,0.0,0.0,0.0,0.0,0.0,0.0,0.0,0.0,0.0,0.0,0.0,0.0,0.0,0.0,0.0,0.0,0.0,0.0,0.0,0.0,0.0,0.0,0.0,0.0,0.0,0.0,0.0,0.0,0.0,0.0,0.0,0.0,0.0,0.0,0.0,0.0,0.0,0.0,0.0,0.0,0.0,0.0,0.0,0.0,0.0,0.0,0.0,0.0,0.0,0.0,0.0,0.0,0.0,0.0,0.0,0.0,0.0,0.0,0.0,0.0,0.0,0.0,0.0,0.0,0.0,0.0,0.0,0.0,0.0,0.0,0.0,0.0,0.0,0.0,0.0,0.0,0.0,0.0,0.0,0.0,0.0,0.0,0.0,-2.2293,-2.7005,-2.9231,-2.9657,-2.779,-2.7487,-2.5866,-2.2279,0.0,0.0,0.0,0.0,0.0,0.0,0.0,0.0,0.0,0.0,0.0,0.0,0.0,0.0,0.0,0.0,0.0,0.0,0.0,0.0,0.0,0.0,0.0,0.0,0.0,0.0,0.0,0.0,0.0,0.0,0.0,0.0,0.0,0.0,0.0,0.0,0.0,0.0,0.0,0.0,0.0,0.0,0.0,0.0,0.0,0.0,0.0,0.0,0.0,0.0,0.0,0.0,0.0,0.0,0.0,0.0,0.0,0.0,0.0,0.0,0.0,0.0,0.0,0.0,0.0,0.0,0.0,0.0,0.0,0.0,0.0,0.0,0.0,0.0,0.0,0.0,0.0,0.0,0.0,0.0,0.0,0.0,0.0,0.0,0.0,0.0,0.0,0.0,0.0,0.0,0.0,0.0,0.0,0.0,0.0,0.0,0.0,0.0,0.0,0.0,0.0,0.0,0.0,-2.2427,-2.4966,-2.8203,-2.966,-2.9651,-2.7765,-2.748,-2.5916,-2.2426,-2.0114,0.0,0.0,0.0,0.0,0.0,0.0,0.0,0.0,0.0,0.0,0.0,0.0,0.0,0.0,0.0,0.0,0.0,0.0,0.0,0.0,0.0,0.0,0.0,0.0,0.0,0.0,0.0,0.0,0.0,0.0,0.0,0.0,0.0,0.0,0.0,0.0,0.0,0.0,0.0,0.0,0.0,0.0,0.0,0.0,0.0,0.0,0.0,0.0,0.0,0.0,0.0,0.0,0.0,0.0,0.0,0.0,0.0,0.0,0.0,0.0,0.0,0.0,0.0,0.0,0.0,0.0,0.0,0.0,0.0,0.0,0.0,0.0,0.0,0.0,0.0,0.0,0.0,0.0,0.0,0.0,0.0,0.0,0.0,0.0,0.0,0.0,0.0,0.0,0.0,0.0,0.0,0.0,0.0,0.0,0.0,0.0,0.0,0.0,0.0,0.0,0.0,0.0,-2.5625,-2.7467,-2.8934,-2.989,-2.9639,-2.772,-2.7269,-2.5693,-2.2351,-1.9547,0.0,0.0,0.0,0.0,0.0,0.0,0.0,0.0,0.0,0.0,0.0,0.0,0.0,0.0,0.0,0.0,0.0,0.0,0.0,0.0,0.0,0.0,0.0,0.0,0.0,0.0,0.0,0.0,0.0,0.0,0.0,0.0,0.0,0.0,0.0,0.0,0.0,0.0,0.0,0.0,0.0,0.0,0.0,0.0,0.0,0.0,0.0,0.0,0.0,0.0,0.0,0.0,0.0,0.0,0.0,0.0,0.0,0.0,0.0,0.0,0.0,0.0,0.0,0.0,0.0,0.0,0.0,0.0,0.0,0.0,0.0,0.0,0.0,0.0,0.0,0.0,0.0,0.0,0.0,0.0,0.0,0.0,0.0,0.0,0.0,0.0,0.0,0.0,0.0,0.0,0.0,0.0,0.0,0.0,0.0,0.0,0.0,0.0,0.0,0.0,0.0,0.0,-2.5779,-2.8145,-2.9011,-2.989,-2.9583,-2.759,-2.6714,-2.5052,-2.2192,-1.8977,0.0,0.0,0.0,0.0,0.0,0.0,0.0,0.0,0.0,0.0,0.0,0.0,0.0,0.0,0.0,0.0,0.0,0.0,0.0,0.0,0.0,0.0,0.0,0.0,0.0,0.0,0.0,0.0,0.0,0.0,0.0,0.0,0.0,0.0,0.0,0.0,0.0,0.0,0.0,0.0,0.0,0.0,0.0,0.0,0.0,0.0,0.0,0.0,0.0,0.0,0.0,0.0,0.0,0.0,0.0,0.0,0.0,0.0,0.0,0.0,0.0,0.0,0.0,0.0,0.0,0.0,0.0,0.0,0.0,0.0,0.0,0.0,0.0,0.0,0.0,0.0,0.0,0.0,0.0,0.0,0.0,0.0,0.0,0.0,0.0,0.0,0.0,0.0,0.0,0.0,0.0,0.0,0.0,0.0,0.0,0.0,0.0,0.0,0.0,0.0,0.0,0.0,-2.5644,-2.7813,0.0,-3.0192,-2.9614,-2.7694,-2.7249,-2.543,-2.1618,0.0,0.0,0.0,0.0,0.0,0.0,0.0,0.0,0.0,0.0,0.0,0.0,0.0,0.0,0.0,0.0,0.0,0.0,0.0,0.0,0.0,0.0,0.0,0.0,0.0,0.0,0.0,0.0,0.0,0.0,0.0,0.0,0.0,0.0,0.0,0.0,0.0,0.0,0.0,0.0,0.0,0.0,0.0,0.0,0.0,0.0,0.0,0.0,0.0,0.0,0.0,0.0,0.0,0.0,0.0,0.0,0.0,0.0,0.0,0.0,0.0,0.0,0.0,0.0,0.0,0.0,0.0,0.0,0.0,0.0,0.0,0.0,0.0,0.0,0.0,0.0,0.0,0.0,0.0,0.0,0.0,0.0,0.0,0.0,0.0,0.0,0.0,0.0,0.0,0.0,0.0,0.0,0.0,0.0,0.0,0.0,0.0,0.0,0.0,0.0,0.0,0.0,-2.4048,-2.5967,-2.789,0.0,-3.0404,-2.9651,-2.7765,-2.7376,-2.5437,-2.1268,0.0,0.0,0.0,0.0,0.0,0.0,0.0,0.0,0.0,0.0,0.0,0.0,0.0,0.0,0.0,0.0,0.0,0.0,0.0,0.0,0.0,0.0,0.0,0.0,0.0,0.0,0.0,0.0,0.0,0.0,0.0,0.0,0.0,0.0,0.0,0.0,0.0,0.0,0.0,0.0,0.0,0.0,0.0,0.0,0.0,0.0,0.0,0.0,0.0,0.0,0.0,0.0,0.0,0.0,0.0,0.0,0.0,0.0,0.0,0.0,0.0,0.0,0.0,0.0,0.0,0.0,0.0,0.0,0.0,0.0,0.0,0.0,0.0,0.0,0.0,0.0,0.0,0.0,0.0,0.0,0.0,0.0,0.0,0.0,0.0,0.0,0.0,0.0,0.0,0.0,0.0,0.0,0.0,0.0,0.0,0.0,0.0,0.0,0.0,0.0,0.0,0.0,-2.4865,-2.6813,-2.8544,-3.0212,-3.0404,-2.9651,-2.7765,-2.6872,-2.4859,0.0,0.0,0.0,0.0,0.0,0.0,0.0,0.0,0.0,0.0,0.0,0.0,0.0,0.0,0.0,0.0,0.0,0.0,0.0,0.0,0.0,0.0,0.0,0.0,0.0,0.0,0.0,0.0,0.0,0.0,0.0,0.0,0.0,0.0,0.0,0.0,0.0,0.0,0.0,0.0,0.0,0.0,0.0,0.0,0.0,0.0,0.0,0.0,0.0,0.0,0.0,0.0,0.0,0.0,0.0,0.0,0.0,0.0,0.0,0.0,0.0,0.0,0.0,0.0,0.0,0.0,0.0,0.0,0.0,0.0,0.0,0.0,0.0,0.0,0.0,0.0,0.0,0.0,0.0,0.0,0.0,0.0,0.0,0.0,0.0,0.0,0.0,0.0,0.0,0.0,0.0,0.0,0.0,0.0,0.0,0.0,0.0,0.0,0.0,0.0,0.0,0.0,0.0,-2.4924,-2.6848,-2.8544,-3.0212,-3.0404,-2.97,-2.7961,-2.7583,-2.5406,-2.0595,0.0,0.0,0.0,0.0,0.0,0.0,0.0,0.0,0.0,0.0,0.0,0.0,0.0,0.0,0.0,0.0,0.0,0.0,0.0,0.0,0.0,0.0,0.0,0.0,0.0,0.0,0.0,0.0,0.0,0.0,0.0,0.0,0.0,0.0,0.0,0.0,0.0,0.0,0.0,0.0,0.0,0.0,0.0,0.0,0.0,0.0,0.0,0.0,0.0,0.0,0.0,0.0,0.0,0.0,0.0,0.0,0.0,0.0,0.0,0.0,0.0,0.0,0.0,0.0,0.0,0.0,0.0,0.0,0.0,0.0,0.0,0.0,0.0,0.0,0.0,0.0,0.0,0.0,0.0,0.0,0.0,0.0,0.0,0.0,0.0,0.0,0.0,0.0,0.0,0.0,0.0,0.0,0.0,0.0,0.0,0.0,0.0,0.0,0.0,0.0,0.0,0.0,-2.4957,-2.6863,-2.8544,-3.0212,-3.0404,-2.9712,-2.8044,-2.7895,-2.5791,-2.0866,0.0,0.0,0.0,0.0,0.0,0.0,0.0,0.0,0.0,0.0,0.0,0.0,0.0,0.0,0.0,0.0,0.0,0.0,0.0,0.0,0.0,0.0,0.0,0.0,0.0,0.0,0.0,0.0,0.0,0.0,0.0,0.0,0.0,0.0,0.0,0.0,0.0,0.0,0.0,0.0,0.0,0.0,0.0,0.0,0.0,0.0,0.0,0.0,0.0,0.0,0.0,0.0,0.0,0.0,0.0,0.0,0.0,0.0,0.0,0.0,0.0,0.0,0.0,0.0,0.0,0.0,0.0,0.0,0.0,0.0,0.0,0.0,0.0,0.0,0.0,0.0,0.0,0.0,0.0,0.0,0.0,0.0,0.0,0.0,0.0,0.0,0.0,0.0,0.0,0.0,0.0,0.0,0.0,0.0,0.0,0.0,0.0,0.0,0.0,0.0,0.0,0.0,-2.4969,-2.6868,-2.8544,-3.0212,-3.0404,-2.975,-2.8145,-2.7934,-2.6114,-2.189,0.0,0.0,0.0,0.0,0.0,0.0,0.0,0.0,0.0,0.0,0.0,0.0,0.0,0.0,0.0,0.0,0.0,0.0,0.0,0.0,0.0,0.0,0.0,0.0,0.0,0.0,0.0,0.0,0.0,0.0,0.0,0.0,0.0,0.0,0.0,0.0,0.0,0.0,0.0,0.0,0.0,0.0,0.0,0.0,0.0,0.0,0.0,0.0,0.0,0.0,0.0,0.0,0.0,0.0,0.0,0.0,0.0,0.0,0.0,0.0,-2.3866,0.0,0.0,0.0,0.0,0.0,0.0,0.0,0.0,0.0,0.0,0.0,0.0,0.0,0.0,0.0,0.0,0.0,0.0,0.0,0.0,0.0,0.0,0.0,0.0,0.0,0.0,0.0,0.0,0.0,0.0,0.0,0.0,0.0,0.0,0.0,0.0,0.0,0.0,0.0,0.0,0.0,-2.5039,-2.6905,-2.8544,-3.0212,-3.0404,-2.9981,-2.8934,-2.8261,-2.6595,-2.3557,-2.0929,0.0,0.0,0.0,0.0,0.0,0.0,0.0,0.0,0.0,0.0,0.0,0.0,0.0,0.0,0.0,0.0,0.0,0.0,0.0,0.0,0.0,0.0,0.0,0.0,0.0,0.0,0.0,0.0,0.0,0.0,0.0,0.0,0.0,0.0,0.0,0.0,0.0,0.0,0.0,0.0,0.0,0.0,0.0,0.0,0.0,0.0,0.0,0.0,0.0,0.0,0.0,0.0,0.0,0.0,0.0,0.0,0.0,0.0,0.0,0.0,-2.6387,0.0,0.0,0.0,0.0,0.0,0.0,0.0,0.0,0.0,0.0,0.0,0.0,0.0,0.0,0.0,0.0,0.0,0.0,0.0,0.0,0.0,0.0,0.0,0.0,0.0,0.0,0.0,0.0,0.0,0.0,0.0,0.0,0.0,0.0,0.0,0.0,0.0,0.0,0.0,0.0,-2.5722,-2.7493,-2.8967,-3.0269,-3.0404,-3.0038,-2.9165,-2.8357,-2.6951,-2.472,-2.2149,0.0,0.0,0.0,0.0,0.0,0.0,0.0,0.0,0.0,0.0,0.0,0.0,0.0,0.0,0.0,0.0,0.0,0.0,0.0,0.0,0.0,0.0,0.0,0.0,0.0,0.0,0.0,0.0,0.0,0.0,0.0,0.0,0.0,0.0,0.0,0.0,0.0,0.0,0.0,0.0,0.0,0.0,0.0,0.0,0.0,0.0,0.0,0.0,0.0,0.0,0.0,0.0,0.0,-3.4317,-3.48,-3.4668,-3.4505,-3.4526,-3.4613,-3.3171,-3.1516,-2.9786,-2.8986,0.0,0.0,0.0,0.0,0.0,0.0,0.0,0.0,0.0,0.0,0.0,0.0,0.0,0.0,0.0,0.0,0.0,0.0,0.0,0.0,0.0,0.0,0.0,0.0,-2.9041,-2.8473,-2.5082,0.0,0.0,0.0,0.0,0.0,0.0,0.0,0.0,0.0,0.0,0.0,-2.6465,-2.8145,-2.9429,-3.0308,-3.0404,-3.0115,-2.939,-2.8453,-2.7294,-2.5846,-2.3337,-2.1171,0.0,0.0,0.0,0.0,0.0,0.0,0.0,0.0,0.0,0.0,0.0,0.0,0.0,0.0,0.0,0.0,0.0,0.0,0.0,0.0,0.0,0.0,0.0,0.0,0.0,0.0,0.0,0.0,0.0,0.0,0.0,0.0,-2.1737,-2.359,0.0,0.0,0.0,0.0,0.0,0.0,0.0,0.0,0.0,0.0,0.0,0.0,0.0,-3.2264,-3.3976,-3.648,-3.7675,-3.7587,-3.997,-4.0634,-3.9735,-3.9702,-4.0056,-4.065,-4.0431,0.0,-3.2352,-3.1536,0.0,0.0,0.0,0.0,0.0,0.0,0.0,0.0,0.0,0.0,0.0,0.0,0.0,0.0,0.0,0.0,0.0,0.0,0.0,0.0,0.0,0.0,-2.9987,-3.0978,-3.0722,-3.0281,0.0,-2.7002,-2.3553,-2.2598,-2.1227,0.0,0.0,0.0,0.0,0.0,0.0,0.0,-2.6489,-2.8101,-2.9429,-3.0308,-3.0404,-3.0346,-3.0231,-2.8794,-2.7799,-2.7563,-2.5055,-2.3194,-2.2305,-1.9754,0.0,0.0,0.0,0.0,0.0,0.0,0.0,0.0,0.0,0.0,0.0,0.0,0.0,0.0,0.0,0.0,0.0,0.0,0.0,0.0,0.0,0.0,0.0,0.0,0.0,0.0,0.0,0.0,0.0,-2.2036,-2.4845,-2.505,-2.5975,-2.6018,0.0,0.0,0.0,0.0,0.0,0.0,0.0,0.0,0.0,-3.4393,-3.574,-3.7253,-3.8943,-4.0631,-4.1421,-4.1347,-4.2481,-4.2806,-4.2372,-4.2272,-4.2435,-4.2818,-4.2735,-4.1226,-3.8612,-3.6222,-3.4237,-3.2526,0.0,0.0,0.0,0.0,-3.0237,-3.0352,-3.1775,-3.1981,-3.15,-3.0891,0.0,0.0,0.0,0.0,0.0,0.0,0.0,0.0,0.0,0.0,-3.2025,-3.2891,-3.3199,-3.3231,-3.3122,-3.1,-2.8415,0.0,-2.5511,-2.4605,-2.2252,0.0,0.0,0.0,0.0,-2.6215,-2.7892,-2.9123,-2.9987,-3.0365,-3.0404,-3.0404,-3.0404,-2.8852,-2.7895,-2.7895,-2.5873,-2.4312,-2.3458,-2.1866,-1.9958,0.0,0.0,0.0,0.0,0.0,0.0,0.0,0.0,0.0,0.0,0.0,0.0,0.0,0.0,0.0,0.0,0.0,0.0,0.0,0.0,0.0,0.0,0.0,0.0,0.0,0.0,0.0,0.0,-2.5083,-2.7504,-2.7054,-2.8732,-2.9006,0.0,0.0,0.0,0.0,0.0,0.0,-3.3692,-3.5409,-3.7028,-3.8551,-4.0034,-4.1503,-4.2969,-4.3905,-4.4452,-4.4626,-4.4626,-4.4621,-4.4623,-4.4261,-4.4128,-4.418,-4.4078,-4.405,-4.3782,-4.0411,-3.8148,-3.6684,-3.5142,-3.4391,-3.4276,-3.493,-3.4891,-3.4814,-3.6719,-3.6827,-3.6,-3.5122,-3.4391,-3.3372,-3.066,0.0,0.0,0.0,0.0,-3.0874,-3.2538,-3.343,-3.4083,-3.4968,-3.568,-3.5962,-3.5315,-3.4661,-3.316,0.0,-2.9231,-2.8439,-2.5092,0.0,0.0,0.0,0.0,-2.7777,-2.9023,-2.9897,-3.0404,-3.0404,-3.0404,-3.0404,-3.0404,-2.9044,-2.8126,-2.7915,-2.6467,-2.5225,-2.43,-2.3535,-2.2076,-1.9793,0.0,0.0,0.0,0.0,0.0,0.0,0.0,0.0,0.0,0.0,0.0,0.0,0.0,0.0,0.0,0.0,0.0,0.0,0.0,0.0,0.0,0.0,0.0,0.0,0.0,0.0,0.0,0.0,0.0,-3.0468,-3.2812,0.0,0.0,0.0,0.0,-3.4256,-3.5192,-3.6482,-3.8181,-3.9879,-4.1205,-4.2103,-4.3021,-4.3938,-4.4852,-4.5734,-4.6573,-4.7409,-4.7409,-4.7328,-4.7196,-4.6352,-4.5896,-4.5774,-4.5788,-4.5769,-4.5564,-4.2904,-4.1267,-4.0332,-3.9369,-3.8469,-3.7757,-3.7796,-3.8315,-3.8996,-3.913,-3.8604,-3.8123,-3.9631,-3.8469,-3.6327,-3.5404,-3.3968,0.0,0.0,-3.3917,-3.4321,-3.6007,-3.6481,-3.6731,-3.7603,-3.7834,-3.7853,-3.7815,-3.7777,-3.6507,0.0,-3.0871,-3.0021,-2.9042,0.0,-2.8693,-2.7924,-2.8539,-2.9081,-2.911,-2.9852,-3.0404,-3.0404,-3.0404,-3.0404,-3.0404,-2.9563,-2.8703,-2.7953,-2.7044,-2.6135,-2.5264,-2.4466,-2.3586,-2.2615,-1.9261,0.0,0.0,0.0,0.0,0.0,0.0,0.0,0.0,0.0,0.0,0.0,0.0,0.0,0.0,0.0,0.0,0.0,0.0,0.0,0.0,0.0,0.0,0.0,0.0,0.0,0.0,0.0,0.0,-3.3961,-3.5955,0.0,-3.4783,-3.6364,-3.7438,-3.7225,-3.9019,-4.0385,-4.101,-4.3216,-4.4582,-4.4894,-4.6261,-4.7139,-4.7432,-4.7744,-4.8057,-4.8369,-4.8369,-4.8341,-4.8287,-4.7974,-4.7808,-4.7749,-4.7223,-4.6986,-4.6865,-4.5293,-4.4093,-4.3192,-4.2299,-4.1759,-4.1488,-4.1488,-4.1662,-4.1922,-4.1847,-4.1614,-4.1252,-4.0688,-3.9562,-3.8177,-3.6708,-3.6317,-3.6308,-3.5913,-3.6235,-3.6845,-3.7401,-3.7546,-3.7603,-3.793,-3.8007,-3.8007,-3.8007,-3.8007,-3.7546,-3.6045,-3.4635,-3.307,-3.113,-3.0813,-3.0717,-3.0428,-3.064,-3.0989,-3.1474,-3.1352,-3.1231,-3.1231,-3.0731,-3.0404,-3.0404,-2.9121,-2.8203,-2.7915,-2.6563,-2.5615,-2.5308,-2.5019,-2.4485,-2.3644,-2.1876,-1.9577,0.0,0.0,0.0,0.0,0.0,0.0,0.0,0.0,0.0,0.0,0.0,0.0,0.0,0.0,0.0,0.0,0.0,0.0,0.0,0.0,0.0,0.0,0.0,0.0,0.0,0.0,-3.5483,-3.6731,-3.8921,-3.9645,-3.7887,-3.978,-4.1147,-4.1187,-4.2767,-4.3957,-4.4524,-4.6202,-4.7139,-4.7139,-4.8213,-4.8798,-4.8798,-4.9091,-4.9247,-4.9247,-4.9247,-4.9247,-4.9228,-4.8935,-4.8798,-4.8779,-4.8232,-4.784,-4.7545,-4.6872,-4.607,-4.5165,-4.4501,-4.4239,-4.4234,-4.4217,-4.4201,-4.4145,-4.3717,-4.3564,-4.3337,-4.1855,-4.1046,-4.0409,-3.921,-3.9367,-3.9704,-3.87,-3.8868,-3.927,-3.8922,-3.8834,-3.8834,-3.8834,-3.8834,-3.8834,-3.8834,-3.8834,-3.8757,-3.8488,-3.7065,-3.5269,-3.3327,-3.2737,-3.2449,-3.216,-3.2102,-3.2295,-3.2833,-3.2429,-3.2006,-3.1737,-3.1173,-3.0712,-3.0423,-2.9102,-2.8184,-2.7915,-2.6544,-2.5615,-2.5308,-2.5308,-2.5058,-2.4529,-2.3086,-2.097,-1.8126,0.0,0.0,0.0,0.0,0.0,0.0,0.0,0.0,0.0,0.0,0.0,0.0,0.0,0.0,0.0,0.0,0.0,0.0,0.0,0.0,0.0,0.0,0.0,-3.2055,-3.5805,-3.8536,-3.8762,-4.1714,-4.31,-4.1461,-4.2827,-4.4524,-4.6241,-4.6378,-4.7081,-4.8701,-4.8837,-4.8837,-4.8837,-4.8876,-4.8876,-4.8876,-4.9714,-5.0143,-5.0143,-5.0143,-5.0143,-5.0104,-4.9267,-4.8876,-4.8876,-4.8857,-4.8408,-4.7664,-4.7625,-4.71,-4.6312,-4.6028,-4.591,-4.5899,-4.5835,-4.5801,-4.5657,-4.4699,-4.4344,-4.4201,-4.3393,-4.3143,-4.3132,-4.3104,-4.3094,-4.2929,-4.2085,-4.1835,-4.1643,-4.0804,-4.0554,-4.0535,-4.0535,-4.0516,-4.0496,-4.0496,-4.0496,-4.0265,-3.9496,-3.795,-3.6519,-3.5673,-3.4834,-3.3975,-3.3103,-3.2987,0.0,-3.2987,-3.2968,-3.2641,-3.1852,-3.1737,-3.1371,-3.0519,-2.9583,-2.8723,-2.7953,-2.7063,-2.6173,-2.5327,-2.5308,-2.5308,-2.5308,-2.2827,-2.0735,-1.9088,0.0,0.0,0.0,0.0,0.0,0.0,0.0,0.0,0.0,0.0,0.0,0.0,0.0,0.0,0.0,0.0,0.0,0.0,0.0,0.0,0.0,0.0,-3.6272,-3.6592,-3.8169,-4.0253,-4.2916,-4.4075,-4.4953,-4.5734,-4.6241,-4.6963,-4.8037,-4.8115,-4.831,-4.8779,-4.9403,-4.9733,-4.9733,-5.036,-5.0692,-5.0692,-5.0926,-5.1043,-5.1043,-5.1043,-5.1043,-5.1023,-5.0789,-5.0692,-5.0653,-5.0028,-4.9616,-4.9323,-4.8094,-4.745,-4.7174,-4.6467,-4.6184,-4.6181,-4.6164,-4.6044,-4.5838,-4.5503,-4.5317,-4.5094,-4.4239,-4.4033,-4.3986,-4.331,-4.3209,-4.3247,-4.2842,-4.278,-4.2744,-4.2464,-4.1912,-4.145,-4.145,-4.095,-4.0496,-4.0496,-4.0496,-4.0439,-4.0208,-3.9323,-3.8104,-3.6635,-3.6173,-3.5738,-3.4904,-3.4788,0.0,-3.4788,-3.4237,-3.3763,-3.3551,-3.2429,-3.1602,-3.1365,-2.9429,-2.8145,-2.7915,-2.6486,-2.5558,-2.5308,-2.5308,-2.5308,-2.5308,-2.3428,-2.1889,0.0,0.0,0.0,0.0,0.0,0.0,0.0,0.0,0.0,0.0,0.0,0.0,0.0,0.0,0.0,0.0,0.0,0.0,0.0,0.0,0.0,0.0,-3.6319,-3.9369,-4.0867,-4.1473,-4.2588,-4.4731,-4.5634,-4.6493,-4.7508,-4.7899,-4.8447,-4.9286,-4.9345,-4.9501,-4.9872,-5.0379,-5.0809,-5.118,-5.1687,-5.2117,-5.2487,-5.2487,-5.2487,-5.2487,-5.2117,-5.1941,-5.1921,-5.157,-5.1394,-5.1375,-5.0867,-5.0436,-5.0026,-4.905,-4.8426,0.0,0.0,0.0,0.0,0.0,-4.5973,-4.5769,-4.5742,-4.566,-4.5518,-4.5017,-4.4903,-4.4862,-4.4311,-4.4241,-4.4219,-4.3739,-4.3631,-4.3563,-4.3206,-4.272,-4.2335,-4.2335,-4.1681,-4.1046,-4.1046,-4.0766,-4.0496,-4.0496,-4.0131,0.0,-3.8027,-3.718,-3.6538,-3.6077,-3.5712,-3.55,-3.55,-3.5064,-3.4603,-3.4244,-3.3333,-3.2468,-3.1756,-3.0006,0.0,0.0,0.0,-2.5673,-2.5327,-2.5308,0.0,0.0,0.0,0.0,0.0,0.0,0.0,0.0,-2.0024,-1.9702,0.0,0.0,0.0,0.0,0.0,0.0,0.0,0.0,0.0,0.0,0.0,0.0,0.0,0.0,0.0,0.0,-3.9408,-4.1268,-4.4368,-4.4985,-4.5162,-4.5279,-4.6669,-4.7664,-4.7859,-4.8525,-4.9306,-5.0182,-5.0338,-5.0729,-5.1511,0.0,0.0,0.0,0.0,-5.321,-5.399,-5.401,-5.401,-5.399,-5.3112,-5.2704,-5.2665,-5.1804,-5.1394,-5.1394,-5.1394,-5.0965,-5.0241,-5.0143,-4.9597,-4.8642,-4.7057,-4.6374,-4.6271,-4.5987,-4.5783,-4.5627,-4.5603,0.0,0.0,-4.5594,-4.5594,-4.5594,-4.5594,-4.5594,-4.5441,-4.4662,-4.4451,-4.4278,-4.3566,-4.3316,-4.3239,-4.3239,-4.2585,-4.1942,-4.1942,-4.1258,-4.065,-4.065,-4.0573,-4.0265,-3.9554,-3.8084,-3.6923,-3.6731,-3.6096,-3.5596,-3.5519,-3.55,-3.5192,-3.443,0.0,0.0,-3.2102,-3.1,-2.9769,-2.8275,-2.7274,-2.637,-2.5481,-2.5442,-2.5404,-2.5308,-2.5308,-2.5308,-2.5308,-2.5308,-2.5308,-2.5212,-2.1457,-2.0923,0.0,0.0,0.0,0.0,0.0,0.0,0.0,0.0,0.0,0.0,0.0,0.0,0.0,0.0,0.0,-3.8222,-4.1435,-4.403,-4.4702,-4.6108,-4.7071,-4.7098,-4.7391,-4.8133,-4.9499,-4.9753,-5.0202,-5.1082,-5.1804,-5.2273,-5.245,-5.3112,-5.3561,-5.3737,-5.3756,-5.3834,-5.401,-5.401,-5.401,-5.399,0.0,0.0,-5.2665,-5.1804,-5.1394,-5.1394,-5.1394,-5.1297,-5.1082,-5.0397,-4.9597,-4.8697,-4.7602,-4.6813,-4.6267,-4.5942,-4.5822,-4.5821,-4.5657,-4.5594,-4.5594,-4.5594,-4.5594,-4.5594,-4.5594,-4.5594,0.0,-4.5402,-4.5344,-4.5306,-4.5171,-4.4586,-4.4066,-4.4066,-4.3431,-4.2854,-4.2854,-4.2162,-4.1546,-4.1546,-4.0969,-4.0458,-4.0285,-3.9457,-3.8315,-3.6904,-3.6577,-3.6231,-3.5577,-3.55,-3.5442,-3.5269,-3.4622,-3.4071,-3.3744,-3.1679,-3.0269,-2.9942,-2.8486,-2.7255,-2.6385,-2.6351,-2.6019,-2.5308,-2.5308,-2.5308,-2.5308,-2.5308,-2.5308,-2.5288,-2.4462,-2.4346,0.0,0.0,0.0,0.0,0.0,0.0,0.0,0.0,0.0,0.0,0.0,-3.3235,0.0,0.0,-4.0009,-4.1383,-4.3457,-4.5194,-4.6072,-4.701,-4.7606,-4.7606,-4.8347,-4.9187,-5.0026,-5.0494,-5.1102,-5.198,-5.245,-5.2899,-5.3327,-5.3756,-5.4205,-5.4635,-5.4588,-5.4746,-5.5159,-5.5159,-5.5159,-5.5139,-5.437,-5.3992,-5.3953,-5.2644,-5.2058,-5.2038,-5.159,-5.1394,-5.1375,-5.0926,-5.0208,-4.9301,-4.8798,-4.7836,-4.6664,-4.6028,-4.5787,-4.5747,-4.5635,-4.5594,-4.5594,-4.5594,-4.5594,-4.5594,-4.5594,-4.5594,-4.5594,-4.5594,-4.5594,-4.5594,-4.5594,-4.5287,-4.496,-4.496,-4.4316,-4.3701,-4.3701,-4.3047,-4.2316,-4.1885,-4.145,-4.1008,-4.0573,-4.0169,-3.9477,-3.818,-3.7257,-3.6558,-3.6154,-3.575,-3.55,-3.55,-3.5122,-3.4661,-3.4244,-3.1872,-3.0212,-2.9775,-2.8582,-2.7698,-2.7274,-2.7255,-2.7044,-2.6621,-2.6601,-2.6601,-2.6601,-2.6601,-2.6601,-2.6601,-2.6601,-2.637,0.0,0.0,0.0,0.0,0.0,0.0,0.0,0.0,-3.0963,-3.2703,-3.5009,-3.7138,-3.8568,-4.0368,-4.2391,-4.4681,-4.5311,-4.6044,-4.7606,-4.7977,-4.8016,-4.784,-4.9167,-5.0163,-5.0338,-5.0984,-5.1765,-5.2626,-5.286,-5.3323,-5.4172,-5.4365,-5.4752,-5.5424,-5.5342,-5.5614,-5.6242,-5.6261,-5.627,-5.6292,-5.5578,-5.5235,-5.5206,-5.3593,-5.2866,-5.2827,-5.1949,-5.1481,-5.1325,-5.1325,-5.0846,-5.0095,-4.9845,-4.8901,-4.7524,-4.6413,-4.5947,-4.5849,-4.5661,-4.5594,-4.5594,-4.5594,-4.5594,-4.5594,-4.5594,-4.5594,-4.5594,-4.5594,-4.5594,-4.5594,-4.5594,-4.5594,-4.5594,-4.5594,-4.5056,-4.4547,-4.4547,-4.3912,-4.3124,-4.2431,-4.2019,-4.1585,-4.0873,-4.0612,-4.0227,-3.9419,-3.7969,-3.6885,-3.6712,-3.6,-3.55,-3.55,-3.55,-3.5154,-3.4263,-3.216,-3.0525,-2.9665,-2.8832,-2.8313,-2.8145,-2.8126,-2.8068,-2.7895,-2.7895,-2.7895,-2.7895,-2.7895,-2.7895,-2.7895,-2.8068,-2.7659,-2.6803,-2.7338,-2.7912,-2.9402,-2.9765,-3.0983,0.0,0.0,-3.6166,-3.7982,-3.9764,-4.1104,-4.1416,-4.3014,-4.4642,-4.5776,-4.6718,-4.7625,-4.8545,-4.9323,-4.9538,-4.8759,-4.9519,-5.0397,-5.118,-5.1336,-5.1765,-5.2626,-5.3424,-5.4184,-5.4941,-5.5642,-5.6032,-5.601,-5.5992,-5.6019,-5.6122,-5.6122,-5.6175,-5.6288,-5.5383,-5.5005,-5.5088,-5.4002,-5.3505,-5.3446,-5.2572,-5.1761,-5.1047,-5.1047,-5.0978,-5.08,-4.9956,-4.9492,-4.9122,-4.7422,-4.6813,-4.6715,-4.5896,-4.5594,-4.5594,-4.5594,-4.5594,-4.5594,-4.5594,-4.5594,-4.5594,-4.5594,-4.5594,-4.5594,-4.5594,-4.5594,-4.5594,-4.5594,-4.5537,-4.546,-4.546,-4.4778,-4.4143,-4.4047,-4.2816,-4.1769,-4.1681,-4.1008,-4.0227,-3.9419,-3.8469,-3.7565,-3.6788,-3.6,-3.55,-3.55,-3.55,-3.5154,-3.4263,-3.3237,-3.2275,-3.1468,-3.0596,-2.9775,-2.8992,-2.8973,-2.8626,-2.7915,-2.7895,-2.7895,-2.7895,-2.7895,-2.7895,-2.7915,-2.8626,-2.853,-3.0758,-3.1006,0.0,0.0,-3.3834,-3.5256,-3.791,-3.8605,-3.9206,-4.0945,-4.2321,-4.3235,-4.3288,-4.446,-4.5687,0.0,-4.7166,-4.7964,-4.936,-4.9328,-4.9269,-4.9534,-4.9399,-4.9647,-5.0551,-5.1035,-5.1853,-5.3238,-5.3608,-5.4339,-5.5611,-5.6,-5.6152,-5.6097,-5.6015,-5.5982,-5.5982,-5.5982,-5.602,-5.6064,-5.5754,-5.5636,-5.565,-5.475,-5.4078,-5.3553,-5.2686,-5.2084,-5.1721,-5.1216,-5.0979,-5.0905,-5.0511,-5.0309,-5.0033,-4.8248,-4.7323,-4.6893,-4.6497,-4.6009,-4.5594,-4.5594,-4.5594,-4.5594,-4.5594,-4.5594,-4.5594,-4.5594,-4.5594,-4.5594,-4.5594,-4.5594,-4.5594,-4.5594,-4.5594,-4.5594,-4.5594,-4.5306,-4.4921,-4.4393,-4.3355,-4.2412,-4.1885,-4.1085,-4.04,-4.0054,-3.9284,-3.843,-3.7565,-3.6712,-3.6019,-3.5558,-3.55,-3.5154,-3.4263,-3.3878,-3.3295,-3.2449,-3.1621,-3.0987,-3.0621,-3.0121,-2.9698,-2.9371,-2.9352,-2.9352,-2.9352,-2.9352,-2.9352,-2.9371,-2.9698,-2.9679,-3.2581,0.0,0.0,-3.5534,-3.733,-3.8973,-3.9852,-4.072,-4.1686,-4.2929,-4.3952,-4.4602,-4.4648,-4.5327,-4.6236,-4.7362,-4.7636,-4.8331,-5.0154,-4.9515,-4.9051,-4.9582,-4.9067,-4.89,-4.9591,-5.0384,-5.1658,-5.3599,-5.3644,-5.4317,-5.5959,-5.6037,-5.6035,-5.5998,-5.5907,-5.5835,-5.5835,-5.5835,-5.5863,-5.5887,-5.5959,-5.6013,-5.6017,-5.5404,-5.4657,-5.3805,-5.2933,-5.2417,-5.2126,-5.128,-5.0886,-5.0841,-5.0841,-5.0794,-5.0558,-4.9279,-4.8298,-4.7528,-4.7058,-4.649,-4.5913,-4.5691,-4.5594,-4.5594,-4.5594,-4.5594,-4.5594,-4.5594,-4.5594,-4.5594,-4.5594,-4.5594,-4.5594,-4.5594,-4.5594,-4.5594,-4.5594,-4.5594,-4.5421,-4.4778,-4.3989,-4.3162,-4.2316,-4.1431,-4.0785,-4.0535,-3.9996,-3.9323,-3.8469,-3.7392,-3.6385,-3.5596,-3.55,-3.5231,-3.4603,-3.434,-3.3936,-3.3295,-3.2487,-3.1929,-3.1718,-3.1096,-3.0654,-3.0404,-3.0404,-3.0404,-3.0404,-3.0404,-3.0404,-3.0404,-3.0404,-3.0404,0.0,0.0,-3.6576,-3.7426,-3.9508,-4.1609,-4.2488,-4.331,-4.3941,-4.4126,-4.4806,-4.5419,-4.5538,-4.5685,-4.6384,-4.8172,-4.8455,-4.9094,-5.0903,-5.035,-4.9465,-4.8649,-4.8524,-4.8524,0.0,-4.938,-5.0951,-5.3415,-5.3598,-5.4271,-5.5808,-5.5915,-5.5855,-5.5716,-5.5705,-5.5714,-5.5714,-5.5714,-5.5759,-5.5907,-5.5769,-5.5779,-5.5896,-5.574,-5.5243,-5.4416,-5.355,-5.2693,-5.1847,-5.1029,-5.0702,-5.0721,-5.0721,-5.0693,-5.0693,-5.0635,-5.0067,-4.9086,-4.7471,-4.6885,-4.6721,-4.5874,-4.5594,-4.5594,-4.5594,-4.5594,-4.5594,-4.5594,-4.5594,-4.5594,-4.5594,-4.5594,-4.5594,-4.5594,-4.5594,-4.5594,-4.5594,-4.5594,-4.5594,-4.5575,-4.4855,-4.4008,-4.3201,-4.2335,-4.147,-4.0631,-4.0477,-4.0169,-3.9361,-3.7757,-3.6385,-3.5596,-3.55,-3.5481,-3.5462,-3.468,-3.4186,-3.4167,-3.3333,-3.2506,-3.1737,-3.1679,-3.125,-3.0423,-3.0404,-3.0404,-3.0404,-3.0404,-3.0404,-3.0404,-3.0404,-3.0404,0.0,0.0,-3.8495,-3.9871,-4.1734,-4.3302,-4.3608,-4.4326,-4.4787,-4.4298,-4.445,-4.4506,-4.3976,-4.4465,-4.5518,-4.7275,-4.8024,-4.8994,-5.0814,-5.0188,-4.9289,-4.8582,-4.8425,0.0,0.0,0.0,0.0,-5.3286,-5.3376,-5.4052,-5.5682,-5.5778,-5.5748,-5.5714,-5.5703,-5.5703,-5.5703,-5.5703,-5.5726,-5.5778,-5.5726,-5.5726,-5.5778,-5.5726,-5.5549,-5.5241,-5.4414,-5.3568,-5.2702,-5.1856,-5.1183,-5.0712,-5.0712,-5.0712,-5.0712,-5.0712,-5.0519,-5.001,-4.8298,-4.7355,-4.6759,-4.5874,-4.5594,-4.5594,-4.5594,-4.5594,-4.5594,-4.5594,-4.5594,-4.5594,-4.5594,-4.5594,-4.5594,-4.5594,-4.5594,-4.5594,-4.5594,-4.5594,-4.5594,-4.5594,-4.4893,-4.4201,-4.3932,-4.2739,-4.1508,-4.0631,-4.0054,-3.9611,-3.9342,-3.7777,-3.6596,-3.6327,-3.5827,-3.55,-3.55,-3.5231,-3.5064,-3.5064,-3.4237,-3.3648,-3.3372,-3.2795,-3.2102,-3.1269,-3.125,-3.0981,-3.0404,-3.0981,-3.125,-3.1269,-3.1814,-3.2064,-3.7426,-3.9011,-4.0291,-4.1972,-4.3473,-4.4526,-4.4546,-4.4758,-4.471,-4.3923,-4.3567,-4.3113,-4.2266,-4.2626,-4.374,-4.5833,-4.6827,-4.8071,-5.0203,-4.9867,-4.9255,-4.8873,-4.8748,-4.8811,0.0,0.0,0.0,-5.3154,-5.3253,-5.3933,-5.5607,-5.5703,-5.5703,-5.5703,-5.5748,-5.5759,-5.5759,-5.5759,-5.5748,-5.5703,-5.5703,-5.5703,-5.5703,-5.5703,-5.5703,-5.5665,-5.4857,-5.4184,-5.3568,-5.2385,-5.1606,-5.1106,-5.0808,-5.0712,-5.0712,-5.0712,-5.0712,-5.05,-4.9067,-4.8029,-4.7201,-4.6336,-4.5855,-4.5594,-4.5594,-4.5594,-4.5594,-4.5594,-4.5594,-4.5594,-4.5594,-4.5594,-4.5594,-4.5594,-4.5594,-4.5594,-4.5594,-4.5594,-4.5594,-4.5594,-4.5152,-4.4662,-4.4355,-4.2912,-4.1604,-4.1046,-4.0265,-3.9631,-3.9342,-3.8315,-3.7392,-3.6769,-3.6231,-3.5808,-3.5519,-3.55,-3.55,-3.55,-3.4968,-3.4526,-3.4205,-3.366,-3.2968,-3.216,-3.2122,-3.1852,-3.1288,-3.1852,-3.2122,-3.2141,-3.266,-3.2891,-3.8725,-4.0387,-4.2011,-4.3663,-4.4685,-4.5298,-4.533,-4.4652,-4.38,-4.2972,-4.2106,-4.124,0.0,0.0,-4.1327,-4.3885,-4.5102,-4.6617,-4.9239,-4.9513,-4.9471,0.0,0.0,0.0,0.0,0.0,0.0,-5.3145,0.0,-5.3933,-5.5628,-5.5695,-5.5695,-5.5705,-5.5827,-5.5879,-5.5907,-5.5907,-5.5836,-5.5703,-5.5703,-5.5703,-5.5703,-5.5703,-5.5703,-5.5665,-5.4895,-5.453,-5.4376,-5.2673,-5.1942,-5.1808,-5.101,-5.0712,-5.0712,-5.0712,-5.0712,-5.0577,-4.974,-4.8894,-4.8029,-4.7173,-4.6336,-4.5671,-4.5614,-4.5594,-4.5594,-4.5594,-4.5594,-4.5594,-4.5594,-4.5594,-4.5594,-4.5594,-4.5594,-4.5594,-4.5594,-4.5594,-4.5594,-4.5594,-4.5594,-4.5325,-4.4451,-4.2989,-4.1904,-4.1808,-4.1104,-4.0265,-3.9477,-3.9323,-3.8661,-3.7,-3.6788,-3.6442,-3.5635,-3.5558,-3.5538,-3.55,-3.55,-3.5141,-3.4302,-3.4263,-3.3859,-3.2987,-3.2968,-3.2949,-3.2891,-3.2949,-3.2968,-3.2968,-3.3006,-3.3026,-4.1208,-4.2584,-4.3615,-4.4704,-4.5175,-4.5216,-4.4575,-4.3828,-4.2694,-4.0609,-3.9527,-3.83,0.0,0.0,0.0,-4.1412,-4.485,0.0,-4.9256,-4.999,0.0,-5.0366,0.0,-5.1346,-5.1568,-5.2183,0.0,0.0,-5.3568,-5.3985,-5.5758,-5.5758,-5.5738,-5.5855,-5.5789,-5.5808,-5.5907,-5.5907,-5.5836,-5.5703,-5.5703,-5.5703,-5.5703,-5.5703,-5.5703,-5.5684,-5.5472,-5.5049,-5.4414,-5.3318,-5.2481,-5.1808,-5.101,-5.0712,-5.0712,-5.0712,-5.0712,-5.0673,-5.0462,-4.9798,-4.8836,-4.7375,-4.6759,-4.6451,-4.5806,-4.5594,-4.5594,-4.5594,-4.5594,-4.5594,-4.5594,-4.5594,-4.5594,-4.5594,-4.5594,-4.5594,-4.5594,-4.5594,-4.5594,-4.5594,-4.5594,-4.5325,-4.4451,-4.3951,-4.3239,-4.1981,-4.1604,-4.1162,-4.0304,-3.9669,-3.913,-3.8681,-3.8065,-3.7315,-3.6462,-3.6385,-3.6135,-3.5538,-3.55,-3.5404,-3.5173,-3.5173,-3.4757,-3.3898,-3.3878,-3.3545,-3.2891,-3.3545,-3.3878,-3.3878,-3.4526,-3.4846,-4.2851,-4.394,-4.4685,-4.5182,-4.5041,-4.4469,-4.3274,-4.2114,-4.0471,-3.756,-3.6603,0.0,0.0,0.0,0.0,0.0,0.0,0.0,-4.8606,-5.0202,-5.1221,0.0,-5.2299,0.0,-5.3049,-5.3491,-5.4126,0.0,-5.4241,-5.437,-5.5741,-5.5738,-5.5728,-5.5798,-5.5798,-5.5817,-5.5907,-5.5907,-5.5836,-5.5703,-5.5703,-5.5703,-5.5703,-5.5703,-5.5703,-5.5703,0.0,-5.5434,-5.4934,-5.3703,-5.2914,-5.2346,-5.1164,-5.0712,-5.0712,-5.0712,-5.0712,-5.0712,-5.0712,-5.0385,-4.974,-4.8432,-4.774,-4.7278,-4.6432,-4.6163,-4.6086,-4.5664,-4.5559,-4.5559,-4.5513,-4.5513,-4.5513,-4.5559,-4.5522,-4.5522,-4.5586,-4.5577,-4.5568,-4.5586,-4.5594,-4.5441,-4.4951,-4.4547,-4.3846,-4.2522,-4.2003,-4.1445,-4.0619,-4.0115,-3.9688,-3.9342,-3.8854,-3.8219,-3.7334,-3.6923,-3.65,-3.6058,-3.5692,-3.55,-3.55,-3.55,-3.5269,-3.4776,-3.4776,-3.4526,-3.4045,-3.4526,-3.4776,-3.4776,-3.5269,-3.55,-4.3949,-4.4723,-4.5307,-4.5307,-4.4647,-4.3549,-4.1829,-4.0048,-3.7806,-3.446,0.0,-3.2722,-3.0471,-3.2903,-3.5818,-3.7558,0.0,-4.5182,-4.774,-5.0192,-5.1808,-5.2038,-5.351,-5.453,-5.4645,-5.4664,-5.4953,-5.5645,-5.5049,-5.4963,-5.5688,-5.5705,-5.5703,-5.5703,-5.5827,-5.5898,-5.5872,-5.5898,-5.5836,-5.5703,-5.5703,-5.5703,-5.5703,-5.5703,-5.5703,-5.5703,-5.5703,-5.5703,-5.5568,-5.3895,-5.3203,-5.3029,-5.1337,-5.0712,-5.0712,-5.0712,-5.0712,-5.0712,-5.0712,-5.0712,-5.0558,-4.9683,-4.8894,-4.8105,-4.7173,-4.6885,-4.6702,-4.5763,-4.5495,-4.5457,-4.5419,-4.54,-4.5419,-4.5457,-4.5438,-4.5429,-4.5559,-4.5522,-4.5504,-4.5568,-4.5577,-4.5586,-4.5586,-4.497,-4.4173,-4.3304,-4.2431,-4.1577,-4.0762,-4.0572,-4.0239,-3.9534,-3.9457,-3.9111,-3.8257,-3.7488,-3.6942,-3.6712,-3.6058,-3.5615,-3.55,-3.55,-3.55,-3.55,-3.55,-3.55,-3.55,-3.55,-3.55,-3.55,-3.55,-3.55,-4.4838,-4.5182,-4.5307,-4.5307,-4.4647,-4.3395,-4.1065,-3.8673,0.0,0.0,0.0,-2.9551,-2.8445,-3.1616,0.0,-3.6644,0.0,0.0,0.0,0.0,-5.1414,0.0,0.0,0.0,0.0,0.0,0.0,0.0,0.0,-5.5594,-5.5854,-5.5768,-5.5703,-5.5703,-5.5827,-5.5855,-5.5747,-5.5835,-5.5836,-5.5703,-5.5703,-5.5703,-5.5703,-5.5703,-5.5703,-5.5703,-5.5703,0.0,-5.5568,-5.3895,-5.3203,-5.3029,-5.1337,-5.0712,-5.0712,-5.0712,-5.0712,-5.0712,-5.0712,-5.0712,-5.0558,-4.9683,-4.9298,-4.8894,-4.7355,-4.6857,-4.6637,-4.5754,-4.5448,-4.5419,-4.541,-4.54,-4.541,-4.5419,-4.541,-4.541,-4.5429,-4.5429,-4.5419,-4.5429,-4.5485,-4.5513,-4.5513,-4.5433,-4.5077,-4.4217,-4.3333,-4.2452,-4.1602,-4.0907,-4.0457,-4.0315,-4.0285,-3.9958,-3.915,-3.8938,-3.8238,-3.6788,-3.6577,-3.6192,-3.5538,-3.55,-3.55,-3.55,-3.55,-3.55,-3.55,-3.55,-3.55,-3.55,-3.55,-3.55,-4.5048,-4.5307,-4.5307,-4.5307,-4.3997,-4.1934,-3.8983,0.0,0.0,0.0,0.0,-2.793,-2.6684,0.0,0.0,0.0,0.0,0.0,0.0,0.0,0.0,0.0,0.0,0.0,0.0,0.0,0.0,0.0,0.0,-5.5686,-5.5789,-5.5728,-5.5703,-5.5703,-5.5768,-5.5768,-5.5703,-5.5749,-5.5749,-5.5703,-5.5703,-5.5703,-5.5703,-5.5703,-5.5703,-5.5703,-5.5703,-5.5703,-5.5568,-5.3895,-5.3203,-5.3029,-5.1337,-5.0712,-5.0712,-5.0712,-5.0712,-5.0712,-5.0712,-5.0712,-5.0635,-5.0212,-5.0067,-4.976,-4.8048,-4.751,-4.7194,-4.5841,-4.5419,-4.539,-4.5361,-4.5341,-4.537,-4.54,-4.54,-4.54,-4.539,-4.541,-4.54,-4.54,-4.5429,-4.5448,-4.5495,-4.5495,-4.5197,-4.4364,-4.3482,-4.2592,-4.176,-4.0916,-4.0422,-4.0487,-4.0495,-4.0338,-3.9958,-3.9534,-3.8738,-3.7469,-3.6942,-3.6346,-3.5538,-3.55,-3.55,-3.55,-3.55,-3.55,-3.55,-3.55,-3.55,-3.55,-3.55,-3.55,-4.5048,-4.5307,-4.5307,-4.5307,-4.3367,-4.0616,-3.7264,-3.438,0.0,0.0,-2.6803,-2.681,-2.5673,0.0,0.0,0.0,0.0,0.0,0.0,0.0,0.0,0.0,0.0,0.0,0.0,0.0,0.0,0.0,0.0,0.0,-5.5651,-5.5671,-5.5671,-5.5671,-5.5671,-5.5651,-5.5692,-5.5692,-5.5692,-5.5703,-5.5703,-5.5703,-5.5703,-5.5703,-5.5703,-5.5703,-5.5703,-5.5703,-5.5568,-5.3895,-5.3203,-5.3029,-5.1337,-5.0712,-5.0712,-5.0712,-5.0712,-5.0712,-5.0712,-5.0712,-5.0712,-5.0712,-5.0712,-5.0366,-4.8625,-4.8096,-4.7722,-4.5908,-4.54,-4.539,-4.5328,-4.5307,-4.5317,-4.5378,-4.538,-4.538,-4.5379,-4.538,-4.5371,-4.5371,-4.5381,-4.5419,-4.5457,-4.5429,-4.5189,-4.4538,-4.3666,-4.2766,-4.1953,-4.1092,-4.0535,-4.0468,-4.0466,-4.0491,-4.05,-3.9923,-3.9192,-3.8334,-3.7642,-3.6885,-3.6077,-3.5865,-3.575,-3.575,-3.5596,-3.55,-3.55,-3.55,-3.55,-3.55,-3.55,-3.55,-4.5048,-4.5307,-4.5307,-4.5307,-4.3367,-4.0616,-3.7264,0.0,0.0,-2.7109,-2.5873,-2.5612,-2.6179,-2.7261,0.0,0.0,0.0,0.0,0.0,0.0,0.0,0.0,0.0,0.0,0.0,0.0,0.0,0.0,0.0,0.0,-5.5516,-5.5516,-5.5516,-5.5516,-5.5516,-5.5551,-5.5607,-5.5607,-5.5629,-5.5703,-5.5703,-5.5703,-5.5703,-5.5703,-5.5703,-5.5703,-5.5703,-5.5703,0.0,-5.3895,-5.3203,-5.3029,-5.1337,-5.0712,-5.0712,-5.0712,-5.0712,-5.0712,-5.0712,-5.0712,-5.0712,-5.0712,-5.0712,-5.0366,-4.8625,-4.8097,-4.7722,-4.5899,-4.539,-4.5379,-4.5317,-4.5307,-4.5307,-4.5307,-4.5317,-4.5317,-4.5307,-4.5317,-4.5317,-4.5317,-4.5359,-4.5399,-4.5418,-4.54,-4.5371,-4.5303,-4.4537,-4.3675,-4.2804,-4.1925,-4.1103,-4.0392,-4.037,-4.0432,-4.0482,-4.0433,-4.0046,-3.9219,-3.9111,-3.8661,-3.7815,-3.7007,-3.6596,-3.6596,-3.5865,-3.55,-3.55,-3.55,-3.55,-3.55,-3.55,-3.55,-4.4017,-4.4895,-4.5307,-4.5307,-4.3023,-3.989,-3.6481,0.0,-2.9726,-2.637,-2.5421,-2.5306,-2.5625,-2.6363,-2.7816,-3.054,-3.2049,-3.4621,0.0,0.0,0.0,0.0,0.0,0.0,0.0,0.0,0.0,0.0,0.0,0.0,-5.544,-5.5476,-5.5504,-5.5504,-5.5504,-5.5516,-5.5539,-5.5539,-5.5551,-5.5573,-5.5573,-5.5573,-5.5573,-5.5618,-5.5629,-5.564,-5.5673,-5.5703,0.0,-5.3895,-5.3203,-5.3029,-5.1337,-5.0712,-5.0712,-5.0712,-5.0712,-5.0712,-5.0712,-5.0663,-5.0633,-5.0633,-5.0613,-5.0276,-4.8606,-4.8106,-4.7713,-4.5908,-4.539,-4.537,-4.5328,-4.5307,-4.5307,-4.5307,-4.5307,-4.5307,-4.5307,-4.5307,-4.5307,-4.5307,-4.5317,-4.5348,-4.5398,-4.5379,-4.535,-4.5389,-4.4622,-4.375,-4.2908,-4.203,-4.1199,-4.0395,-4.0326,-4.037,-4.0432,-4.0441,-4.0093,-3.9296,-3.9238,-3.8862,-3.8027,-3.768,-3.7488,-3.7488,-3.6654,-3.6212,-3.6212,-3.5731,-3.55,-3.55,-3.55,-3.55,-4.2975,-4.4265,-4.4914,-4.4914,-4.2584,-3.9346,0.0,0.0,-2.9256,-2.5898,-2.5191,-2.5191,-2.5191,-2.5854,-2.6969,-2.8702,-3.0132,-3.2635,-3.7225,0.0,0.0,0.0,0.0,0.0,0.0,0.0,0.0,0.0,0.0,0.0,-5.5403,-5.5434,-5.5463,-5.5463,-5.5463,-5.5476,-5.5468,-5.5468,-5.548,-5.5504,-5.5504,-5.5504,-5.5504,-5.5551,-5.5573,-5.5573,-5.5618,-5.5506,0.0,-5.3768,-5.3007,-5.2661,-5.1211,-5.0653,-5.0643,-5.0653,-5.0663,-5.0663,-5.0683,-5.0653,-5.0603,-5.0603,-5.0542,-5.0253,-4.8846,-4.827,-4.7751,-4.6186,-4.5563,-4.5361,-4.5298,-4.5307,-4.5307,-4.5307,-4.5307,-4.5307,-4.5307,-4.5307,-4.5307,-4.5307,-4.5307,-4.5317,-4.5359,-4.5328,-4.5317,-4.5359,-4.4801,-4.4093,-4.3271,-4.2412,-4.1571,-4.075,-4.0434,-4.0317,-4.0362,-4.037,-4.0138,-3.9586,-3.9556,-3.9303,-3.8739,-3.8477,-3.835,-3.835,-3.7519,-3.6962,-3.6692,-3.6135,-3.5731,-3.55,-3.55,-3.55,-4.2125,-4.3405,-4.4006,-4.4006,-4.2135,-3.9193,0.0,-3.2045,-2.9256,-2.5898,-2.5191,-2.5191,-2.5191,-2.5854,-2.6956,-2.8631,-3.108,-3.3949,-3.7338,0.0,0.0,0.0,0.0,0.0,0.0,0.0,0.0,0.0,0.0,0.0,-5.5403,-5.5403,-5.5403,-5.5403,-5.5403,-5.539,-5.5408,-5.5408,-5.5432,-5.5504,-5.5504,-5.5504,-5.5504,-5.5504,-5.5504,-5.5504,-5.5504,-5.5044,0.0,-5.3432,-5.2587,-5.173,-5.0928,-5.0572,-5.0511,-5.0582,-5.0603,-5.0613,-5.0692,-5.0653,-5.0603,-5.0603,-5.0542,-5.0347,-4.9465,-4.8621,-4.7787,-4.6844,-4.5969,-4.5307,-4.5307,-4.5307,-4.5307,-4.5307,-4.5307,-4.5307,-4.5307,-4.5307,-4.5307,-4.5307,-4.5307,-4.5307,-4.5307,-4.5307,-4.5307,-4.5307,-4.5288,-4.4972,-4.4102,-4.3291,-4.245,-4.1571,-4.0788,-4.031,-4.0307,-4.0307,-4.0325,-4.0388,-4.0388,-4.0388,-4.0388,-3.9605,-3.9188,-3.9188,-3.8408,-3.7565,-3.6692,-3.6692,-3.6269,-3.55,-3.55,-3.55,-3.7234,-3.9069,-4.0301,-3.9155,-3.7837,-3.6031,-3.2974,-3.0758,-2.8542,-2.5765,-2.5191,-2.5191,-2.5191,-2.5421,-2.6695,-3.0128,-3.1319,0.0,0.0,0.0,0.0,0.0,0.0,0.0,0.0,0.0,0.0,0.0,0.0,0.0,-5.5403,-5.5403,-5.5403,-5.5403,-5.5403,-5.5403,-5.539,-5.539,-5.5403,-5.5428,-5.5428,-5.5428,-5.5428,-5.5427,-5.5432,-5.5394,-5.4898,-5.4538,-5.4193,-5.2785,-5.2056,-5.1719,-5.0867,-5.0521,-5.05,-5.0521,-5.0532,-5.0532,-5.0553,-5.0511,-5.0457,-5.0457,-5.0424,-5.0302,-5.0034,-4.9037,-4.7691,-4.6203,-4.5559,-4.5307,-4.5307,-4.5307,-4.5307,-4.5307,-4.5307,-4.5307,-4.5307,-4.5307,-4.5307,-4.5307,-4.5307,-4.5307,-4.5307,-4.5307,-4.5307,-4.5307,-4.5307,-4.4991,-4.4102,-4.331,-4.2469,-4.159,-4.0788,-4.0291,-4.031,-4.0291,-4.0309,-4.0325,-4.0325,-4.0362,-4.0407,-4.0155,-4.0046,-4.0098,-3.9242,-3.8708,-3.8469,-3.7873,-3.7469,-3.7219,-3.7219,-3.7178,0.0,-3.6126,-3.7387,-3.6672,-3.5621,-3.4082,-3.158,-2.9681,-2.7829,-2.5644,-2.5191,-2.5191,-2.5191,-2.5459,-2.6619,-2.9593,-3.0835,0.0,0.0,0.0,0.0,0.0,0.0,0.0,0.0,0.0,0.0,0.0,0.0,0.0,-5.5403,-5.5403,-5.5403,-5.5403,-5.5403,-5.5403,-5.5403,-5.5403,-5.5403,-5.5403,-5.5403,-5.5403,-5.5403,-5.5403,-5.5218,-5.4873,-5.4425,-5.3862,0.0,-5.2173,-5.156,-5.1173,-5.0648,-5.0457,-5.0435,-5.0457,-5.0468,-5.0468,-5.0489,-5.0457,-5.0401,-5.0401,-5.0157,-4.9786,-4.9461,-4.8684,-4.7571,-4.5847,-4.5328,-4.5307,-4.5307,-4.5307,-4.5307,-4.5307,-4.5307,-4.5307,-4.5307,-4.5307,-4.5307,-4.5307,-4.5307,-4.5307,-4.5307,-4.5307,-4.5307,-4.5307,-4.5307,-4.5105,-4.4571,-4.3768,-4.2928,-4.2087,-4.1246,-4.0635,-4.032,-4.0301,-4.0301,-4.029,-4.0299,-4.0327,-4.0354,-4.0353,-4.0379,-4.0413,-3.9923,-3.9506,-3.9211,-3.8381,-3.7973,-3.8007,-3.8007,-3.7959,0.0,-3.4082,0.0,0.0,-3.4655,-3.2924,-3.0479,-2.8733,0.0,-2.5535,-2.5191,-2.5249,-2.544,-2.5988,-2.6823,-2.8122,-3.0261,0.0,0.0,0.0,0.0,0.0,0.0,0.0,0.0,0.0,0.0,0.0,0.0,0.0,-5.5403,-5.5403,-5.5403,-5.5403,-5.5345,-5.5345,-5.5403,-5.5403,-5.5403,-5.5403,-5.5403,-5.5365,-5.5307,-5.5307,-5.483,0.0,-5.3951,-5.3034,-5.1601,-5.1603,-5.1086,-5.0302,-5.0379,-5.0348,-5.0302,-5.0379,-5.0401,-5.0412,-5.0468,-5.0427,-5.0401,-5.0401,-4.9813,-4.8938,-4.8067,-4.775,-4.7368,-4.5755,-4.5307,-4.5307,-4.5307,-4.5307,-4.5307,-4.5307,-4.5307,-4.5307,-4.5307,-4.5307,-4.5307,-4.5307,-4.5307,-4.5307,-4.5307,-4.5307,-4.5307,-4.5307,-4.5307,-4.5307,-4.5307,-4.4551,-4.3701,-4.2966,-4.2106,-4.1266,-4.0454,-4.032,-4.0301,-4.0301,-4.0301,-4.0301,-4.0301,-4.029,-4.0307,-4.0307,-4.037,-4.0004,-3.9188,-3.8434,-3.8109,-3.8173,-3.8173,-3.8124,-2.7746,0.0,-3.0121,-2.9039,-2.8981,-2.8848,0.0,-2.6995,-2.6427,-2.5421,0.0,0.0,-2.7676,-2.7147,-2.816,-3.3559,0.0,0.0,0.0,0.0,0.0,0.0,0.0,0.0,0.0,0.0,0.0,0.0,0.0,-5.5403,-5.5403,-5.5403,-5.5403,-5.5403,-5.4753,-5.4734,-5.5403,-5.5403,-5.5403,-5.5403,-5.5403,-5.5059,-5.4409,-5.4409,-5.3932,-5.3072,-5.2461,-5.1964,-5.1563,-5.0906,-5.0505,-5.0302,-5.0314,-5.0314,-5.0302,-5.0314,-5.0314,-5.0325,-5.0337,-5.0337,-5.0314,-5.0314,-4.9759,-4.8938,-4.8067,-4.733,-4.6596,-4.5583,-4.5307,-4.5307,-4.5307,-4.5307,-4.5307,-4.5307,-4.5307,-4.5307,-4.5307,-4.5307,-4.5307,-4.5307,-4.5307,-4.5307,-4.5307,-4.5307,-4.5307,-4.5307,-4.5307,-4.5307,-4.5307,-4.4551,-4.393,-4.3739,-4.2985,-4.2144,-4.1285,-4.0654,-4.0301,-4.0301,-4.0301,-4.0301,-4.0301,-4.0301,-4.03,-4.0307,-4.037,-4.0292,-4.0081,-3.9898,-3.981,-3.9846,-3.9846,-3.9802,-2.572,-2.7338,-2.8784,-2.8275,-2.8198,-2.8134,-2.7657,0.0,0.0,0.0,0.0,0.0,0.0,0.0,0.0,0.0,0.0,0.0,0.0,0.0,0.0,0.0,0.0,0.0,0.0,0.0,0.0,0.0,0.0,-5.5231,-5.483,-5.4811,-5.4619,-5.4218,-5.3741,-5.4104,-5.5403,-5.4619,-5.4409,-5.4811,-5.4409,-5.3951,-5.3492,-5.3492,-5.3034,-5.2231,-5.1792,-5.136,-5.0971,-5.0493,-5.0302,-5.0302,-5.0302,-5.0302,-5.0302,-5.0302,-5.0302,-5.0302,-5.0302,-5.0302,-5.0245,-4.9862,-4.9175,-4.8334,-4.7474,-4.6615,-4.5851,-4.5411,-4.5307,-4.5307,-4.5307,-4.5307,-4.5307,-4.5307,-4.5307,-4.5307,-4.5307,-4.5307,-4.5307,-4.5307,-4.5307,-4.5307,-4.5307,-4.5307,-4.5307,-4.5307,-4.5307,-4.5307,-4.5307,-4.4895,-4.4437,-4.4045,-4.3605,-4.3004,-4.2163,-4.1705,-4.1122,-4.0339,-4.0301,-4.0301,-4.0301,-4.0301,-4.0301,-4.0309,-4.0327,-4.0354,-4.0362,-4.0362,-4.037,-4.0407,-4.0261,-4.0177,-2.5516,-2.7396,-2.9338,-2.9555,-2.9261,-2.8872,-2.8739,0.0,0.0,0.0,0.0,0.0,0.0,0.0,0.0,0.0,0.0,0.0,0.0,0.0,0.0,0.0,0.0,0.0,0.0,0.0,0.0,0.0,0.0,-5.4677,-5.3932,-5.3894,-5.355,-5.2824,-5.2671,-5.3378,-5.5002,-5.3531,-5.3168,-5.3894,-5.3148,-5.2728,-5.2614,-5.2614,-5.2174,-5.141,0.0,0.0,-5.0302,-5.0302,-5.0302,-5.0302,-5.0302,-5.0302,-5.0302,-5.0302,-5.0302,-5.0302,-5.0302,-5.0225,-4.9996,-4.9308,-4.8411,-4.7463,-4.6729,-4.5946,-4.5307,-4.5307,-4.5307,-4.5307,-4.5307,-4.5307,-4.5307,-4.5307,-4.5307,-4.5307,-4.5307,-4.5307,-4.5307,-4.5307,-4.5307,-4.5307,-4.5307,-4.5307,-4.5307,-4.5307,-4.5307,-4.5307,-4.5307,-4.5307,-4.501,-4.4274,-4.4197,-4.3873,-4.3061,-4.2985,-4.2316,-4.0778,-4.0549,-4.0435,-4.0301,-4.0301,-4.0301,-4.0301,-4.0301,-4.031,-4.0298,-4.0298,-4.0335,-4.0381,-4.012,-3.9962,-2.6937,-2.9134,-3.0369,-2.7663,-2.7943,-2.872,-2.8039,0.0,0.0,0.0,0.0,0.0,0.0,0.0,0.0,0.0,0.0,0.0,0.0,0.0,0.0,0.0,0.0,0.0,0.0,0.0,0.0,0.0,0.0,-5.3129,-5.3015,-5.2996,-5.2938,-5.2805,-5.2136,-5.2251,-5.3187,-5.2919,-5.2862,-5.2996,-5.2862,-5.2442,-5.1792,-5.1792,-5.1314,-5.0512,0.0,-5.0417,-5.0302,-5.0302,-5.0302,-5.0302,-5.0302,-5.0302,-5.0302,-5.0302,-5.0302,-5.0302,-5.0302,-4.9843,-4.9263,-4.9148,-4.8009,-4.6672,-4.6538,-4.5946,-4.5307,-4.5307,-4.5307,-4.5307,-4.5307,-4.5307,-4.5307,-4.5307,-4.5307,-4.5307,-4.5307,-4.5307,-4.5307,-4.5307,-4.5307,-4.5307,-4.5307,-4.5307,-4.5307,-4.5307,-4.5307,-4.5307,-4.5307,-4.5307,-4.525,-4.5105,-4.5105,-4.4743,-4.3892,-4.3815,-4.3414,-4.2488,-4.1724,-4.1017,-4.032,-4.0301,-4.0301,-4.0301,-4.0301,-4.031,-4.0301,-4.0301,-4.032,-4.0301,-4.0048,-3.9905,-2.6104,-2.816,-2.9796,-2.8714,-3.0395,-3.2088,-3.1293,-3.0739,0.0,0.0,0.0,0.0,0.0,0.0,0.0,0.0,0.0,0.0,0.0,0.0,0.0,0.0,0.0,0.0,0.0,0.0,0.0,0.0,-5.2805,-5.2614,-5.2174,-5.2155,-5.1945,-5.1467,-5.1085,-5.1085,-5.1448,-5.1448,-5.1697,-5.2155,-5.1677,-5.1257,-5.0913,-5.0913,-5.0684,-5.0302,0.0,-5.0302,-5.0302,-5.0302,-5.0302,-5.0302,-5.0302,-5.0302,-5.0302,-5.0302,-5.0302,-5.0302,-5.0302,-4.9767,-4.9033,-4.8544,-4.7532,-4.6424,-4.5984,-4.5583,-4.5307,-4.5307,-4.5307,-4.5307,-4.5307,-4.5307,-4.5307,-4.5307,-4.5307,-4.5307,-4.5307,-4.5307,-4.5307,-4.5307,-4.5307,-4.5307,-4.5307,-4.5307,-4.5307,-4.5307,-4.5307,-4.5307,-4.5307,-4.5132,-4.5034,-4.5034,-4.4898,-4.4662,-4.4252,-4.4353,-4.3975,-4.286,-4.1972,-4.1323,-4.096,-4.054,-4.0301,-4.0301,-4.0301,-4.0301,-4.0301,-4.0301,-4.0234,-4.0077,-3.9796,-3.9611,-2.5608,-2.7453,-2.9414,-3.0261,0.0,-3.4388,-3.4541,-3.3777,0.0,0.0,0.0,0.0,0.0,0.0,0.0,0.0,0.0,0.0,0.0,0.0,0.0,0.0,0.0,0.0,0.0,0.0,0.0,0.0,-5.2212,-5.1945,-5.1322,-5.1314,-5.099,-5.0321,-5.0302,-5.0302,-5.0302,-5.0302,-5.0646,-5.1295,-5.0627,-5.0302,-5.0302,-5.0302,-5.0302,-5.0302,-5.0302,-5.0302,-5.0302,-5.0302,-5.0302,-5.0302,-5.0302,-5.0302,-5.0302,-5.0302,-5.0302,-5.0264,-5.0073,-4.948,-4.864,-4.778,-4.692,-4.6099,-4.5488,-4.5307,-4.5307,-4.5307,-4.5307,-4.5307,-4.5307,-4.5307,-4.5307,-4.5307,-4.5307,-4.5307,-4.5307,-4.5307,-4.5307,-4.5307,-4.5307,-4.5307,-4.5307,-4.5307,-4.5307,-4.5307,-4.5307,-4.5307,-4.5307,-4.5011,-4.4788,-4.4788,-4.4559,-4.4397,-4.4397,-4.4585,-4.4277,-4.3227,-4.2243,-4.1568,-4.1326,-4.0776,-4.0367,-4.0127,-4.0176,-4.0176,-4.0108,-4.0176,-4.0077,-3.9796,-3.952,-3.9298,-2.7033,-2.879,-3.03,-3.1121,-3.1541,-3.2573,-3.5621,-3.5076,0.0,-3.6871,0.0,0.0,0.0,0.0,0.0,0.0,0.0,0.0,0.0,0.0,0.0,0.0,0.0,0.0,0.0,0.0,0.0,-5.0474,-5.0474,-5.0455,-5.0397,-5.0397,-5.0359,-5.0302,-5.0302,-5.0302,-5.0302,-5.0302,-5.034,-5.0397,-5.034,-5.0302,-5.0302,-5.0302,-5.0302,-5.0302,-5.0302,-5.0302,-5.0302,-5.0302,-5.0302,-5.0302,-5.0302,-5.0302,-5.0302,-5.0302,-5.0302,-5.0187,-4.9442,-4.8621,-4.775,-4.6882,-4.6042,-4.5383,-4.5326,-4.5307,-4.5307,-4.5307,-4.5307,-4.5307,-4.5307,-4.5307,-4.5307,-4.5307,-4.5307,-4.5307,-4.5307,-4.5307,-4.5307,-4.5307,-4.5307,-4.5307,-4.5307,-4.5307,-4.5307,-4.5307,-4.5307,-4.5307,-4.5307,-4.5011,-4.4788,-4.4788,-4.4559,-4.4397,-4.4397,-4.4411,-4.4387,-4.4301,-4.2994,-4.1808,-4.0798,-4.0946,-4.0564,-3.9594,-3.9796,-3.9815,-3.9563,-3.9796,-3.9785,-3.9508,-3.9259,-3.9129,-2.5895,-2.8128,-3.0395,-3.119,-3.2604,0.0,0.0,-3.7597,-3.8476,-4.0463,-4.0864,0.0,0.0,0.0,0.0,0.0,0.0,0.0,0.0,0.0,0.0,0.0,0.0,0.0,0.0,0.0,-5.0302,-5.0302,-5.0302,-5.0302,-5.0302,-5.0302,-5.0302,-5.0302,-5.0302,-5.0302,-5.0302,-5.0302,-5.0302,-5.0302,-5.0302,-5.0302,-5.0302,-5.0302,-5.0302,-5.0302,-5.0302,-5.0302,-5.0302,-5.0302,-5.0302,-5.0302,-5.0302,-5.0302,-5.0302,-5.0302,-4.9977,-4.95,-4.9224,-4.8162,-4.694,-4.6615,-4.5965,-4.5307,-4.5307,-4.5307,-4.5307,-4.5307,-4.5307,-4.5307,-4.5307,-4.5307,-4.5307,-4.5307,-4.5307,-4.5307,-4.5307,-4.5151,-4.5045,-4.5256,-4.5121,-4.5045,-4.5256,-4.5121,-4.5057,-4.5256,-4.4976,-4.4801,-4.4976,-4.4578,-4.4308,-4.4308,-4.4026,-4.3918,-4.4136,-4.3949,-4.3918,-4.4151,-4.3299,-4.2622,-4.2216,-4.1801,-4.1174,-4.0259,-4.0359,-4.0095,-3.9514,-3.9592,-3.9508,-3.9245,-3.9156,-3.9003,-2.5501,-2.765,-3.0051,-3.1133,0.0,0.0,-3.8018,-3.9451,-4.0931,-4.3138,-4.3367,0.0,0.0,0.0,0.0,0.0,0.0,0.0,0.0,0.0,0.0,0.0,0.0,0.0,0.0,-5.0302,-5.0302,-5.0302,-5.0302,-5.0302,-5.0302,-5.0302,-5.0302,-5.0302,-5.0302,-5.0302,-5.0302,-5.0302,-5.0302,-5.0302,-5.0302,-5.0302,-5.0302,-5.0302,-5.0302,-5.0302,-5.0302,-5.0302,-5.0302,-5.0302,-5.0302,-5.0302,-5.0302,-5.0149,-4.992,-4.992,-4.9404,-4.864,-4.8372,-4.7494,-4.6462,-4.6194,-4.5755,-4.5307,-4.5307,-4.5307,-4.5307,-4.5307,-4.5216,-4.5132,-4.5132,-4.5224,-4.5267,-4.5173,-4.5132,-4.5132,-4.5132,-4.4898,-4.4745,-4.4965,-4.4819,-4.4758,-4.4976,-4.4838,-4.4758,-4.4976,-4.4656,-4.4465,-4.465,-4.4279,-4.3958,-4.3862,-4.3632,-4.3582,-4.383,-4.3632,-4.3599,-4.383,-4.3441,-4.3114,-4.2853,-4.2399,-4.1609,-4.0467,-4.0526,-4.0147,-3.9245,-3.9337,-3.9232,-3.8979,-3.8979,-3.8881,-2.6314,-2.7638,-2.9331,0.0,0.0,0.0,-3.9556,-4.032,-4.1266,-4.4609,0.0,-4.4274,0.0,0.0,0.0,0.0,0.0,0.0,0.0,0.0,0.0,0.0,0.0,0.0,0.0,-5.0302,-5.0302,-5.0302,-5.0302,-5.0302,-5.0302,-5.0302,-5.0302,-5.0302,-5.0302,-5.0302,-5.0302,-5.0302,-5.0302,-5.0302,-5.0302,-5.0302,-5.0302,-5.0302,-5.0302,-5.0302,-5.0302,-5.0302,-5.0302,-5.0283,-5.0283,-5.0283,-5.0283,-4.9786,-4.9091,-4.9091,-4.8544,-4.7654,-4.6806,-4.65,-4.6366,-4.5564,-4.5307,-4.5307,-4.5307,-4.5307,-4.5307,-4.5307,-4.5057,-4.4788,-4.4788,-4.5034,-4.5213,-4.4868,-4.4788,-4.4788,-4.4788,-4.4585,-4.4402,-4.4397,-4.4402,-4.4402,-4.4397,-4.4402,-4.4402,-4.4397,-4.4402,-4.4383,-4.4383,-4.4166,-4.3878,-4.3549,-4.3515,-4.3515,-4.3515,-4.3515,-4.3515,-4.3515,-4.3515,-4.313,-4.2341,-4.2572,-4.1826,-3.9953,-4.0185,-3.9778,-3.8707,-3.8964,-3.8964,-3.8707,-3.8707,-3.8707,-2.633,-2.8448,0.0,0.0,0.0,0.0,0.0,-4.2068,0.0,0.0,0.0,0.0,0.0,0.0,0.0,0.0,0.0,0.0,0.0,0.0,0.0,0.0,0.0,0.0,-5.0302,-5.0302,-5.0302,-5.0302,-5.0302,-5.0302,-5.0302,-5.0302,-5.0302,-5.0302,-5.0302,-5.0302,-5.0302,-5.0302,-5.0302,-5.0302,-5.0302,-5.0302,-5.0302,-5.0302,-5.0302,-5.0302,-5.0302,-5.0302,-5.0264,-4.9691,-4.9098,-4.8533,-4.8533,-4.8411,-4.82,-4.82,-4.7627,-4.6863,-4.6596,-4.6137,-4.5621,-4.5383,-4.5307,-4.5307,-4.5307,-4.5307,-4.5307,-4.5307,-4.5057,-4.4751,-4.4572,-4.4604,-4.4643,-4.4533,-4.4519,-4.4519,-4.4519,-4.4303,-4.4162,-4.4374,-4.425,-4.4181,-4.4374,-4.425,-4.4177,-4.4374,-4.4038,-4.3777,-4.3777,-4.3697,-4.3599,-4.3515,-4.3515,-4.3515,-4.3515,-4.3515,-4.3515,-4.3515,-4.3515,-4.3404,-4.3149,-4.3231,-4.2734,-4.1607,-4.1117,-4.0436,-3.9533,-3.9056,-3.878,-3.8707,-3.8707,-3.8707,-2.7826,0.0,0.0,0.0,0.0,0.0,0.0,0.0,0.0,0.0,0.0,0.0,0.0,0.0,0.0,0.0,0.0,0.0,0.0,0.0,0.0,0.0,0.0,0.0,-4.9308,-4.9308,-4.9308,-4.9308,-4.9308,-4.9308,-4.9308,-4.9308,-4.9308,-4.9308,-4.9308,-4.9308,-4.9308,-4.9308,-4.9308,-4.9308,-4.9308,-4.9308,-4.9328,-4.9996,-5.0302,-5.0283,-4.9958,-4.9633,-4.927,-4.8774,-4.8277,-4.7788,-4.7788,-4.7578,-4.7272,-4.7272,-4.6748,-4.6023,-4.6023,-4.5698,-4.5307,-4.5307,-4.5307,-4.5307,-4.5307,-4.5213,-4.5098,-4.5098,-4.4801,-4.4443,-4.4275,-4.4129,-4.4069,-4.4221,-4.425,-4.425,-4.425,-4.4014,-4.3844,-4.4026,-4.3921,-4.386,-4.4008,-4.3905,-4.386,-4.4026,-4.3728,-4.3515,-4.3515,-4.3515,-4.3515,-4.3515,-4.3515,-4.3515,-4.3515,-4.3515,-4.3515,-4.3515,-4.3515,-4.3515,-4.3515,-4.3515,-4.3112,-4.2323,-4.1827,-4.102,-3.99,-3.9405,-3.9019,-3.8707,-3.8707,-3.8707,-2.9989,0.0,0.0,0.0,0.0,0.0,0.0,0.0,0.0,0.0,0.0,0.0,0.0,0.0,0.0,0.0,0.0,0.0,0.0,0.0,0.0,0.0,0.0,-4.7788,-4.7788,-4.7788,-4.7788,-4.7788,-4.7788,-4.7788,-4.7788,-4.7788,-4.7788,-4.7788,-4.7788,-4.7788,-4.7788,-4.7788,-4.7788,-4.7788,-4.7788,-4.7788,-4.7845,-4.9385,-5.0073,-5.0034,-4.9289,-4.8487,-4.7674,-4.7674,-4.7635,-4.7559,-4.7559,-4.7092,-4.6385,-4.6385,-4.5927,-4.5307,-4.5307,-4.5307,-4.5307,-4.5307,-4.5307,-4.5307,-4.5307,-4.5076,-4.4788,-4.4788,-4.4416,-4.4005,-4.4005,-4.3749,-4.3565,-4.3894,-4.3958,-4.3958,-4.3958,-4.3716,-4.3515,-4.3515,-4.3515,-4.3515,-4.3515,-4.3515,-4.3515,-4.3515,-4.3515,-4.3515,-4.3515,-4.3515,-4.3515,-4.3515,-4.3515,-4.3515,-4.3515,-4.3515,-4.3515,-4.3515,-4.3515,-4.3515,-4.3515,-4.3515,-4.3149,-4.2415,-4.2341,-4.157,-4.012,-3.9955,-3.9551,-3.8927,-3.8836,-3.8817,0.0,-3.1248,0.0,0.0,0.0,0.0,0.0,0.0,0.0,0.0,0.0,0.0,0.0,0.0,0.0,0.0,0.0,0.0,0.0,0.0,0.0,0.0,0.0,-4.7788,-4.7788,-4.7788,-4.7788,-4.7788,-4.7788,-4.7788,-4.7788,-4.7788,-4.7788,-4.7788,-4.7788,-4.7788,-4.7788,-4.7788,-4.7788,-4.7788,-4.7788,-4.7788,-4.7807,-4.817,-4.8342,-4.8323,-4.8162,-4.7589,-4.6787,-4.6787,-4.6405,-4.5831,-4.5831,-4.5717,-4.5564,-4.5564,-4.5449,-4.5307,-4.5307,-4.5307,-4.5307,-4.5307,-4.5307,-4.5307,-4.5307,-4.5076,-4.4788,-4.4788,-4.4416,-4.4005,-4.4005,-4.3749,-4.3532,-4.3582,-4.3599,-4.3599,-4.3599,-4.3548,-4.3515,-4.3515,-4.3515,-4.3515,-4.3515,-4.3515,-4.3515,-4.3515,-4.3515,-4.3515,-4.3515,-4.3515,-4.3515,-4.3515,-4.3515,-4.3515,-4.3515,-4.3515,-4.3515,-4.3515,-4.3515,-4.3515,-4.3515,-4.3515,-4.3423,-4.324,-4.2616,-4.2139,-4.1772,-4.0506,-4.0139,-4.0563,-3.9937,-3.9643,0.0,0.0,0.0,0.0,0.0,0.0,0.0,0.0,0.0,0.0,0.0,0.0,0.0,0.0,0.0,0.0,0.0,0.0,0.0,0.0,0.0,0.0,0.0,-4.6596,-4.6596,-4.6596,-4.6596,-4.6596,-4.6596,-4.6596,-4.6596,-4.6596,-4.6596,-4.6596,-4.6596,-4.6596,-4.6596,-4.6596,-4.6596,-4.6596,-4.6596,-4.6596,-4.6634,-4.7425,-4.7559,-4.7177,-4.7177,-4.671,-4.5927,-4.5927,-4.5679,-4.5307,-4.5307,-4.5307,-4.5307,-4.5307,-4.5307,-4.5307,-4.5307,-4.5307,-4.5307,-4.5307,-4.5307,-4.5307,-4.5307,-4.4976,-4.4612,-4.4612,-4.4202,-4.3765,-4.3765,-4.3632,-4.3515,-4.3515,-4.3515,-4.3515,-4.3515,-4.3515,-4.3515,-4.3515,-4.3515,-4.3515,-4.3515,-4.3515,-4.3515,-4.3515,-4.3515,-4.3515,-4.3515,-4.3515,-4.3515,-4.3515,-4.3515,-4.3515,-4.3515,-4.3515,-4.3515,-4.3515,-4.3515,-4.3515,-4.3515,-4.3515,-4.3515,-4.3515,-4.3075,-4.2671,-4.2304,-4.146,-4.1075,-4.1095,-4.0671,-4.0469,0.0,0.0,0.0,0.0,0.0,0.0,0.0,0.0,0.0,0.0,0.0,0.0,0.0,0.0,0.0,0.0,0.0,0.0,0.0,0.0,0.0,0.0,0.0,-4.5307,-4.5307,-4.5307,-4.5307,-4.5307,-4.5307,-4.5307,-4.5307,-4.5307,-4.5307,-4.5307,-4.5307,-4.5307,-4.5307,-4.5307,-4.5307,-4.5307,-4.5307,-4.5307,-4.5345,-4.6748,-4.6978,-4.629,-4.629,-4.5927,-4.5307,-4.5307,-4.5307,-4.5307,-4.5307,-4.5307,-4.5307,-4.5307,-4.5307,-4.5307,-4.5307,-4.5307,-4.5307,-4.5307,-4.5307,-4.5307,-4.5307,-4.4875,-4.4397,-4.4397,-4.398,-4.3515,-4.3515,-4.3515,-4.3515,-4.3515,-4.3515,-4.3515,-4.3515,-4.3515,-4.3515,-4.3515,-4.3515,-4.3515,-4.3515,-4.3515,-4.3515,-4.3515,-4.3515,-4.3515,-4.3515,-4.3515,-4.3515,-4.3515,-4.3515,-4.3515,-4.3515,-4.3515,-4.3515,-4.3515,-4.3515,-4.3515,-4.3515,-4.3515,-4.3515,-4.3515,-4.3515,-4.3167,-4.2506,-4.2378,-4.2029,-4.1499,-4.137,-4.1297,0.0,0.0,0.0,0.0,0.0,0.0,0.0,0.0,0.0,0.0,0.0,0.0,0.0,0.0,0.0,0.0,0.0,0.0,0.0,0.0,0.0,0.0,0.0,-4.5307,-4.5307,-4.5307,-4.5307,-4.5307,-4.5307,-4.5307,-4.5307,-4.5307,-4.5307,-4.5307,-4.5307,-4.5307,-4.5307,-4.5307,-4.5307,-4.5307,-4.5307,-4.5307,-4.5307,-4.5526,-4.5564,-4.5449,-4.5449,-4.5392,-4.5307,-4.5307,-4.5307,-4.5307,-4.5307,-4.5307,-4.5307,-4.5307,-4.5307,-4.5307,-4.5307,-4.5307,-4.5307,-4.5307,-4.5307,-4.5307,-4.5307,-4.4875,-4.4397,-4.4397,-4.398,-4.3515,-4.3515,-4.3515,-4.3515,-4.3515,-4.3515,-4.3515,-4.3515,-4.3515,-4.3515,-4.3515,-4.3515,-4.3515,-4.3515,-4.3515,-4.3515,-4.3515,-4.3515,-4.3515,-4.3515,-4.3515,-4.3515,-4.3515,-4.3515,-4.3515,-4.3515,-4.3515,-4.3515,-4.3515,-4.3515,-4.3515,-4.3515,-4.3515,-4.3515,-4.3515,-4.3515,-4.346,-4.3332,-4.2635,-4.2598,-4.3149,-4.2451,-4.2139,0.0,0.0,0.0,0.0,0.0,0.0,0.0,0.0,0.0,0.0,0.0,0.0,0.0,0.0,0.0,0.0,0.0,0.0,0.0,0.0,0.0,0.0,0.0,-4.5307,-4.5307,-4.5307,-4.5307,-4.5307,-4.5307,-4.5307,-4.5307,-4.5307,-4.5307,-4.5307,-4.5307,-4.5307,-4.5307,-4.5307,-4.5307,-4.5307,-4.5307,-4.5307,-4.5307,-4.5307,-4.5307,-4.5307,-4.5307,-4.5307,-4.5307,-4.5307,-4.5307,-4.5307,-4.5307,-4.5307,-4.5307,-4.5307,-4.5307,-4.5307,-4.5307,-4.5307,-4.5307,-4.5307,-4.5307,-4.5256,-4.5087,-4.4733,-4.4374,-4.4221,-4.3841,-4.3515,-4.3515,-4.3515,-4.3515,-4.3515,-4.3515,-4.3515,-4.3515,-4.3515,-4.3515,-4.3515,-4.3515,-4.3515,-4.3515,-4.3515,-4.3515,-4.3515,-4.3515,-4.3515,-4.3515,-4.3515,-4.3515,-4.3515,-4.3515,-4.3515,-4.3515,-4.3515,-4.3515,-4.3515,-4.3515,-4.3515,-4.3515,-4.3515,-4.3515,-4.3515,-4.3515,-4.3515,-4.3515,-4.313,-4.3149,-4.3496,-4.313,-4.2965,0.0,0.0,0.0,0.0,0.0,0.0,0.0,0.0,0.0,0.0,0.0,0.0,0.0,0.0,0.0,0.0,0.0,0.0,0.0,0.0,0.0,0.0,0.0,-4.5307,-4.5307,-4.5307,-4.5307,-4.5307,-4.5307,-4.5307,-4.5307,-4.5307,-4.5307,-4.5307,-4.5307,-4.5307,-4.5307,-4.5307,-4.5307,-4.5307,-4.5307,-4.5307,-4.5307,-4.5307,-4.5307,-4.5307,-4.5307,-4.5307,-4.5307,-4.5307,-4.5307,-4.5307,-4.5307,-4.5307,-4.5297,-4.5194,-4.5235,-4.5286,-4.5109,-4.5129,-4.5162,-4.5087,-4.5065,-4.5011,-4.4782,-4.4506,-4.4265,-4.4064,-4.3765,-4.3515,-4.3515,-4.3515,-4.3515,-4.3515,-4.3515,-4.3515,-4.3515,-4.3515,-4.3515,-4.3515,-4.3515,-4.3515,-4.3515,-4.3515,-4.3515,-4.3515,-4.3515,-4.3515,-4.3515,-4.3515,-4.3515,-4.3515,-4.3515,-4.3515,-4.3515,-4.3515,-4.3515,-4.3515,-4.3515,-4.3515,-4.3515,-4.3515,-4.3515,-4.3515,-4.3515,-4.3515,-4.3515,-4.3515,-4.3515,-4.3515,-4.3515,-4.3515,0.0,0.0,0.0,0.0,0.0,0.0,0.0,0.0,0.0,0.0,0.0,0.0,0.0,0.0,0.0,0.0,0.0,0.0,0.0,0.0,0.0,0.0,0.0,-4.5307,-4.5307,-4.5307,-4.5307,-4.5307,-4.5307,-4.5307,-4.5307,-4.5307,-4.5307,-4.5307,-4.5307,-4.5307,-4.5307,-4.5307,-4.5307,-4.5307,-4.5307,-4.5307,-4.5307,-4.5307,-4.5307,-4.5307,-4.5307,-4.5307,-4.5307,-4.5307,-4.5307,-4.5307,-4.5307,-4.5307,-4.5256,-4.4946,-4.5034,-4.5224,-4.4643,-4.4612,-4.4776,-4.4519,-4.4457,-4.4438,-4.443,-4.4236,-4.402,-4.3986,-4.3765,-4.3515,-4.3515,-4.3515,-4.3515,-4.3515,-4.3515,-4.3515,-4.3515,-4.3515,-4.3515,-4.3515,-4.3515,-4.3515,-4.3515,-4.3515,-4.3515,-4.3515,-4.3515,-4.3515,-4.3515,-4.3515,-4.3515,-4.3515,-4.3515,-4.3515,-4.3515,-4.3515,-4.3515,-4.3515,-4.3515,-4.3515,-4.3515,-4.3515,-4.3515,-4.3515,-4.3515,-4.3515,-4.3515,-4.3515,-4.3515,-4.3515,-4.3515,-4.3515,0.0,0.0,0.0,0.0,0.0,0.0,0.0,0.0,0.0,0.0,0.0,0.0,0.0,0.0,0.0,0.0,0.0,0.0,0.0,0.0,0.0,0.0,0.0,-4.5307,-4.5307,-4.5307,-4.5307,-4.5307,-4.5307,-4.5307,-4.5307,-4.5307,-4.5307,-4.5307,-4.5307,-4.5307,-4.5307,-4.5307,-4.5307,-4.5307,-4.5307,-4.5307,-4.5307,-4.5307,-4.5307,-4.5297,-4.5057,-4.4969,-4.4969,-4.4969,-4.4875,-4.472,-4.472,-4.472,-4.4707,-4.4604,-4.463,-4.4682,-4.4465,-4.4465,-4.4519,-4.4425,-4.4397,-4.4374,-4.421,-4.4079,-4.3958,-4.3749,-4.3582,-4.3515,-4.3515,-4.3515,-4.3515,-4.3515,-4.3515,-4.3515,-4.3515,-4.3515,-4.3515,-4.3515,-4.3515,-4.3515,-4.3515,-4.3515,-4.3515,-4.3515,-4.3515,-4.3515,-4.3515,-4.3515,-4.3515,-4.3515,-4.3515,-4.3515,-4.3515,-4.3515,-4.348,-4.3446,-4.348,-4.348,-4.3446,-4.348,-4.3515,-4.3515,-4.3515,-4.3515,-4.3515,-4.3515,-4.3515,-4.3515,-4.3515,-4.3515,-2.5859,0.0,0.0,0.0,0.0,0.0,0.0,0.0,0.0,0.0,0.0,0.0,0.0,0.0,0.0,0.0,0.0,0.0,0.0,0.0,0.0,0.0,0.0,-4.5307,-4.5307,-4.5307,-4.5307,-4.5307,-4.5307,0.0,-4.5307,-4.5307,-4.5307,-4.5307,-4.5307,-4.5307,-4.5307,-4.5307,-4.5307,-4.5307,-4.5307,-4.5307,-4.5307,-4.5307,-4.5246,-4.5121,-4.491,-4.4788,-4.4788,-4.4701,-4.4559,-4.4397,-4.4397,-4.4397,-4.4402,-4.4289,-4.4318,-4.4369,-4.4173,-4.4173,-4.4265,-4.4129,-4.4099,-4.4053,-4.3892,-4.383,-4.3798,-4.3565,-4.3515,-4.3515,-4.3515,-4.3515,-4.3515,-4.3515,-4.3515,-4.3515,-4.3515,-4.3515,-4.3515,-4.3515,-4.3515,-4.3515,-4.3515,-4.3515,-4.3515,-4.3515,-4.348,-4.348,-4.3497,-4.348,-4.348,-4.3497,-4.3515,-4.3515,-4.3515,-4.348,-4.3446,-4.3412,-4.3393,-4.3375,-4.334,-4.3375,-4.341,-4.341,-4.341,-4.341,-4.341,-4.348,-4.3515,-4.3515,-4.3515,-4.3515,0.0,0.0,0.0,0.0,0.0,0.0,0.0,0.0,0.0,0.0,0.0,0.0,0.0,0.0,0.0,0.0,0.0,0.0,0.0,0.0,0.0,0.0,0.0,-4.5307,-4.5307,-4.5307,-4.5307,-4.5307,-4.5307,-4.5307,-4.5307,-4.5307,-4.5307,-4.5307,-4.5307,-4.5307,-4.5307,-4.5307,-4.5307,-4.5307,-4.5307,-4.5297,-4.5297,-4.5297,-4.5109,-4.4788,-4.4776,-4.4776,-4.4763,-4.4493,-4.4369,-4.4369,-4.4369,-4.4369,-4.4346,-4.4075,-4.4151,-4.4285,-4.3695,-4.3716,-4.3942,-4.3599,-4.3515,-4.3515,-4.3515,-4.3515,-4.3515,-4.3515,-4.3515,-4.3515,-4.3515,-4.3515,-4.3515,-4.3515,-4.3515,-4.3515,-4.3515,-4.3515,-4.3515,-4.3515,-4.3497,-4.3497,-4.3497,-4.3479,-4.3479,-4.3479,-4.3446,-4.3411,-4.348,-4.3429,-4.3411,-4.3497,-4.3497,-4.3497,-4.3515,-4.3446,-4.3394,-4.3394,-4.3269,-4.3214,-4.3196,-4.3214,-4.3214,-4.3214,-4.3214,-4.3214,-4.3214,-4.341,-4.3479,-4.3497,-4.3515,-4.3515,-2.3958,0.0,0.0,0.0,0.0,0.0,0.0,0.0,0.0,0.0,0.0,0.0,0.0,0.0,0.0,0.0,0.0,0.0,0.0,0.0,0.0,0.0,0.0,-4.5307,-4.5307,-4.5307,-4.5307,0.0,-4.5307,-4.5307,-4.5307,-4.5307,-4.5307,-4.5307,-4.5307,-4.5307,-4.5307,-4.5307,-4.5307,-4.5307,-4.5307,-4.5173,-4.4946,-4.4946,-4.4879,-4.4776,-4.4388,-4.4318,-4.4479,-4.4221,-4.3968,-4.3744,-4.3744,-4.3744,-4.3744,-4.3666,-4.3681,-4.3728,-4.3565,-4.3548,-4.3615,-4.3513,-4.3515,-4.3515,-4.3515,-4.3515,-4.3515,-4.3515,-4.3515,-4.3515,-4.3515,-4.3515,-4.3515,-4.3515,-4.3515,-4.3515,-4.3515,-4.3515,-4.3515,-4.3515,-4.3445,-4.3429,-4.3429,-4.334,-4.3268,-4.3268,-4.3269,-4.3269,-4.3286,-4.3269,-4.3286,-4.3411,-4.3429,-4.3446,-4.3497,-4.3446,-4.3358,-4.3251,-4.3233,-4.3178,-4.3123,-4.3178,-4.3214,-4.3214,-4.3214,-4.3214,-4.3214,-4.3269,-4.334,-4.3429,-4.348,-4.3515,0.0,0.0,0.0,0.0,0.0,0.0,0.0,-3.0428,0.0,0.0,0.0,0.0,0.0,0.0,0.0,0.0,0.0,0.0,0.0,0.0,0.0,0.0,0.0,-4.5098,-4.5098,-4.5224,-4.5307,-4.5307,-4.5307,-4.5307,-4.5307,-4.5307,-4.5307,-4.5307,-4.5307,-4.5307,-4.5307,-4.5162,-4.5162,-4.5297,-4.5042,-4.4953,-4.5011,-4.4758,-4.4624,-4.4612,-4.4177,-4.3999,-4.4008,-4.386,-4.3682,-4.3515,-4.3515,-4.3515,-4.3515,-4.3515,-4.3515,-4.3515,-4.3515,-4.3515,-4.3515,-4.3515,-4.3515,-4.3515,-4.3515,-4.3515,-4.3515,-4.3515,-4.3515,-4.3515,-4.3515,-4.3515,-4.3515,-4.3515,-4.3515,-4.3515,-4.3515,-4.3515,-4.3515,-4.3515,-4.3446,-4.3394,-4.3394,-4.3305,-4.3214,-4.3214,-4.3178,-4.316,-4.3196,-4.3178,-4.3215,-4.3305,-4.3323,-4.3322,-4.3375,-4.3323,-4.3233,-4.316,-4.3105,-4.3068,-4.303,-4.305,-4.3068,-4.3068,-4.3068,-4.3068,-4.3068,-4.316,-4.3233,-4.3323,-4.3358,-4.3375,0.0,0.0,0.0,0.0,0.0,0.0,-2.9775,-2.9507,-2.9611,0.0,0.0,0.0,0.0,0.0,0.0,0.0,0.0,0.0,0.0,0.0,0.0,0.0,0.0,-4.4788,-4.4788,-4.5109,-4.5307,-4.5307,-4.5307,-4.5307,-4.5307,-4.5307,-4.5267,-4.5246,-4.5246,-4.5235,-4.5213,-4.491,-4.491,-4.5184,-4.4656,-4.4656,-4.514,-4.4591,-4.436,-4.4346,-4.406,-4.3798,-4.3548,-4.3532,-4.3515,-4.3515,-4.3515,-4.3515,-4.3515,-4.3515,-4.3515,-4.3515,-4.3515,-4.3515,-4.3515,-4.3515,-4.3515,-4.3515,-4.3515,-4.3515,-4.3515,-4.3515,-4.3515,-4.3515,-4.3515,-4.3515,-4.3515,-4.3515,-4.3515,-4.3515,-4.3515,-4.3515,-4.3515,-4.3515,-4.3446,-4.3394,-4.3394,-4.3269,-4.3178,-4.316,-4.3123,-4.3105,-4.316,-4.3123,-4.3105,-4.3178,-4.3196,-4.3196,-4.3214,-4.3142,-4.3104,-4.3104,-4.2975,-4.2901,-4.2901,-4.2901,-4.2901,-4.2901,-4.2901,-4.2901,-4.2901,-4.3087,-4.3196,-4.3196,-4.3196,-4.3214,-2.8527,0.0,0.0,0.0,0.0,0.0,-2.6822,-2.704,-2.7967,0.0,0.0,0.0,0.0,0.0,0.0,0.0,0.0,0.0,0.0,0.0,0.0,0.0,0.0,-4.4788,-4.4788,-4.5109,-4.5307,-4.5307,-4.5307,-4.5307,-4.5307,-4.5307,-4.5173,-4.491,-4.491,-4.4795,-4.4578,-4.4506,-4.4506,-4.4578,-4.4471,-4.4346,-4.424,-4.4121,-4.4079,-4.4064,-4.3749,-4.3716,-4.3878,-4.3599,-4.3515,-4.3515,-4.3515,-4.3515,-4.3515,-4.3515,-4.3515,-4.3515,-4.3515,-4.3515,-4.3515,-4.3515,-4.3515,-4.3515,-4.3515,-4.3515,-4.3515,-4.3515,-4.3515,-4.3515,-4.3515,-4.3515,-4.3515,-4.3515,-4.3515,-4.3515,-4.3515,-4.3515,-4.3515,-4.3515,-4.3446,-4.3376,-4.3251,-4.3178,-4.3086,-4.2975,-4.2957,-4.2938,-4.2957,-4.2957,-4.2994,-4.3123,-4.3123,-4.3142,-4.3196,-4.3142,-4.3104,-4.3104,-4.2975,-4.2901,-4.2901,-4.2901,-4.2901,-4.2901,-4.2901,-4.2901,-4.2901,-4.3049,-4.3123,-4.3123,-4.3178,-4.3214,0.0,0.0,0.0,-2.95,0.0,0.0,0.0,-2.715,-2.732,-2.896,0.0,0.0,0.0,0.0,0.0,0.0,0.0,0.0,0.0,0.0,0.0,0.0,0.0,-4.3139,-4.3139,-4.3576,-4.401,-4.4417,-4.4678,-4.4814,-4.485,-4.485,-4.477,-4.4599,-4.4559,-4.4493,-4.4397,-4.4198,-4.4198,-4.4402,-4.4053,-4.4011,-4.4177,-4.3844,-4.3798,-4.3989,-4.3649,-4.3599,-4.3732,-4.3565,-4.3515,-4.3515,-4.3515,-4.3515,-4.3515,-4.3515,-4.3515,-4.3515,-4.3515,-4.3515,-4.3515,-4.3515,-4.3515,-4.3515,-4.3515,-4.3515,-4.3515,-4.3515,-4.3515,-4.3515,-4.3515,-4.3515,-4.3515,-4.3515,-4.3515,-4.3515,-4.3515,-4.3463,-4.3464,-4.3464,-4.3376,-4.3269,-4.3214,-4.3142,-4.3049,-4.2919,-4.2901,-4.2901,-4.2901,-4.2901,-4.2938,-4.2994,-4.2994,-4.3012,-4.305,-4.3031,-4.2994,-4.2994,-4.2938,-4.2901,-4.2901,-4.2901,-4.2901,-4.2901,-4.2901,-4.2901,-4.2901,-4.2975,-4.2994,-4.2994,-4.3031,-4.305,0.0,0.0,0.0,0.0,0.0,-3.0079,0.0,0.0,0.0,-2.9709,0.0,0.0,0.0,0.0,0.0,0.0,0.0,0.0,0.0,0.0,0.0,0.0,0.0,-4.1055,-4.1222,-4.1437,-4.204,-4.3151,-4.3186,-4.3446,-4.4106,-4.4158,-4.4186,-4.4285,-4.4231,-4.4202,-4.4169,-4.3852,-4.3852,-4.4169,-4.3614,-4.3647,-4.4154,-4.3614,-4.3532,-4.3828,-4.3565,-4.3463,-4.348,-4.348,-4.3497,-4.3515,-4.3515,-4.3515,-4.3515,-4.3515,-4.3515,-4.3515,-4.3515,-4.3515,-4.3515,-4.3515,-4.3515,-4.3515,-4.3515,-4.3497,-4.348,-4.3497,-4.3497,-4.348,-4.3497,-4.3497,-4.348,-4.348,-4.3463,-4.3427,-4.3427,-4.3393,-4.3358,-4.3358,-4.3269,-4.3196,-4.3178,-4.3123,-4.3049,-4.2919,-4.2901,-4.2901,-4.2901,-4.2901,-4.2901,-4.2901,-4.2901,-4.2901,-4.2901,-4.2901,-4.2901,-4.2901,-4.2901,-4.2901,-4.2901,-4.2901,-4.2901,-4.2901,-4.2901,-4.2901,-4.2901,-4.2901,-4.2901,-4.2901,-4.2901,-4.2901,0.0,0.0,0.0,0.0,-3.4588,0.0,0.0,0.0,-2.8897,-2.7109,0.0,0.0,0.0,0.0,0.0,0.0,0.0,0.0,0.0,0.0,0.0,0.0,0.0,-3.9474,-4.02,-3.9248,-3.9508,-4.175,-4.0084,-4.024,-4.309,-4.3313,-4.3512,-4.3865,-4.3852,-4.3693,-4.3339,-4.3304,-4.3304,-4.3339,-4.325,-4.3268,-4.3339,-4.325,-4.3251,-4.3286,-4.325,-4.3304,-4.3394,-4.3394,-4.3446,-4.3515,-4.3515,-4.3515,-4.3515,-4.3515,-4.3515,-4.3515,-4.3515,-4.3515,-4.3515,-4.3515,-4.3515,-4.3515,-4.3515,-4.3464,-4.3411,-4.348,-4.3464,-4.3429,-4.348,-4.3464,-4.3394,-4.3394,-4.3323,-4.3232,-4.3232,-4.3233,-4.3233,-4.3233,-4.3214,-4.3178,-4.3105,-4.3104,-4.3049,-4.2919,-4.2901,-4.2901,-4.2901,-4.2901,-4.2901,-4.2901,-4.2901,-4.2901,-4.2901,-4.2901,-4.2901,-4.2901,-4.2901,-4.2901,-4.2901,-4.2901,-4.2901,-4.2901,-4.2901,-4.2901,-4.2901,-4.2901,-4.2901,-4.2901,-4.2901,-4.2901,0.0,0.0,0.0,0.0,0.0,0.0,-3.0314,0.0,-2.8377,0.0,0.0,0.0,0.0,0.0,0.0,0.0,0.0,0.0,0.0,0.0,0.0,0.0,0.0,0.0,-3.643,-3.6301,-3.7026,-3.9152,-3.8252,-3.8615,-4.0954,-4.197,-4.2574,-4.2743,-4.317,-4.3339,-4.3214,-4.316,-4.316,-4.3214,-4.316,-4.316,-4.3196,-4.316,-4.316,-4.3214,-4.3214,-4.3287,-4.3394,-4.3394,-4.3446,-4.3515,-4.3515,-4.3515,-4.3515,-4.3515,-4.3515,-4.3515,-4.3515,-4.3515,-4.3515,-4.3515,-4.3515,-4.3515,-4.3515,-4.3464,-4.3412,-4.3429,-4.3376,-4.3286,-4.3322,-4.3304,-4.3269,-4.3269,-4.3233,-4.3214,-4.3214,-4.316,-4.3142,-4.3142,-4.3087,-4.3013,-4.2994,-4.3049,-4.3049,-4.2919,-4.2901,-4.2901,-4.2901,-4.2901,-4.2901,-4.2901,-4.2901,-4.2901,-4.2901,-4.2901,-4.2901,-4.2901,-4.2901,-4.2901,-4.2901,-4.2901,-4.2901,-4.2901,-4.2901,-4.2901,-4.2901,-4.2901,-4.2901,-4.2901,-4.2901,-4.2901,-3.9803,0.0,0.0,0.0,0.0,0.0,0.0,0.0,0.0,0.0,0.0,0.0,0.0,0.0,0.0,0.0,0.0,0.0,0.0,0.0,0.0,0.0,0.0,0.0,0.0,-3.3223,-3.4061,-3.6581,-3.5743,-3.6336,-3.9112,-4.037,-4.1318,-4.1939,-4.2487,-4.2887,-4.3123,-4.3068,-4.3068,-4.3123,-4.3086,-4.3068,-4.3105,-4.3086,-4.3068,-4.3123,-4.3123,-4.3196,-4.3323,-4.3323,-4.3358,-4.3428,-4.3428,-4.3445,-4.348,-4.3497,-4.3515,-4.3515,-4.3515,-4.3515,-4.3515,-4.3515,-4.3515,-4.3515,-4.3515,-4.3464,-4.3394,-4.3394,-4.3286,-4.3214,-4.3214,-4.3196,-4.316,-4.316,-4.3123,-4.3123,-4.3123,-4.3087,-4.3049,-4.3049,-4.2975,-4.2901,-4.2901,-4.2975,-4.3012,-4.2901,-4.2901,-4.2901,-4.2901,-4.2901,-4.2901,-4.2901,-4.2901,-4.2901,-4.2901,-4.2901,-4.2901,-4.2901,-4.2901,-4.2901,-4.2901,-4.2901,-4.2901,-4.2901,-4.2901,-4.2901,-4.2901,-4.2901,-4.2901,-4.2901,-4.2901,-4.2901,0.0,0.0,0.0,-3.6944,0.0,0.0,0.0,0.0,-3.1618,0.0,0.0,0.0,0.0,0.0,0.0,0.0,0.0,0.0,0.0,0.0,0.0,0.0,0.0,0.0,0.0,-3.0152,-3.0441,0.0,-3.186,-3.2538,-3.8049,-3.8441,-3.9553,-4.1832,-4.1923,-4.225,-4.2901,-4.2919,-4.2919,-4.2901,-4.2919,-4.2919,-4.2901,-4.2919,-4.2919,-4.2901,-4.2901,-4.2994,-4.3104,-4.3104,-4.3142,-4.3196,-4.3196,-4.3305,-4.3412,-4.348,-4.3515,-4.3515,-4.3515,-4.3515,-4.3515,-4.3515,-4.3515,-4.3515,-4.3515,-4.3464,-4.3394,-4.3394,-4.3286,-4.3214,-4.3214,-4.316,-4.3104,-4.3104,-4.2994,-4.2901,-4.2901,-4.2901,-4.2919,-4.2919,-4.2901,-4.2901,-4.2901,-4.2901,-4.2901,-4.2901,-4.2901,-4.2901,-4.2901,-4.2901,-4.2901,-4.2901,-4.2901,-4.2901,-4.2901,-4.2901,-4.2901,-4.2901,-4.2901,-4.2901,-4.2901,-4.2901,-4.2901,-4.2901,-4.2901,-4.2901,-4.2901,-4.2901,-4.2901,-4.2901,-4.2901,-4.2901,0.0,0.0,-4.214,-3.8971,0.0,0.0,0.0,0.0,0.0,0.0,0.0,0.0,0.0,0.0,0.0,0.0,0.0,0.0,0.0,0.0,0.0,0.0,0.0,0.0,0.0,0.0,0.0,0.0,-3.1229,0.0,-3.5649,-3.7386,-3.8874,-4.0201,-4.1252,-4.214,-4.2901,-4.2901,-4.2901,-4.2901,-4.2901,-4.2901,-4.2901,-4.2901,-4.2901,-4.2901,-4.2901,-4.2975,-4.3104,-4.3104,-4.3142,-4.3214,-4.3214,-4.3233,-4.3269,-4.3394,-4.3463,-4.3515,-4.3515,-4.3515,-4.3515,-4.3515,-4.3515,-4.3515,-4.3515,-4.3464,-4.3394,-4.3286,-4.3215,-4.3123,-4.3013,-4.2975,-4.2975,-4.2975,-4.2938,-4.2901,-4.2901,-4.2901,-4.2901,-4.2901,-4.2901,-4.2901,-4.2901,-4.2901,-4.2901,-4.2901,-4.2901,-4.2901,-4.2901,-4.2901,-4.2901,-4.2901,-4.2901,-4.2901,-4.2901,-4.2901,-4.2901,-4.2901,-4.2901,-4.2901,-4.2901,-4.2901,-4.2901,-4.2901,-4.2901,-4.2901,-4.2901,-4.2901,-4.2901,-4.2901,-4.2901,-4.2901,-4.2901,-4.2901,0.0,-4.0002,-3.8228,0.0,-3.3302,0.0,0.0,0.0,0.0,0.0,0.0,0.0,0.0,0.0,0.0,0.0,0.0,-2.4121,0.0,0.0,0.0,0.0,0.0,0.0,-2.7924,-3.04,-3.0043,0.0,0.0,-3.6182,-3.7975,-3.9351,-4.0619,-4.1814,-4.2901,-4.2901,-4.2901,-4.2901,-4.2901,-4.2901,-4.2901,-4.2901,-4.2901,-4.2901,-4.2901,-4.2938,-4.303,-4.303,-4.305,-4.3087,-4.3087,-4.3123,-4.3178,-4.334,-4.3446,-4.3515,-4.3515,-4.3515,-4.3515,-4.3515,-4.3515,-4.3497,-4.3463,-4.3429,-4.3376,-4.3215,-4.3123,-4.3067,-4.2938,-4.2901,-4.2901,-4.2901,-4.2901,-4.2901,-4.2901,-4.2901,-4.2901,-4.2901,-4.2901,-4.2901,-4.2901,-4.2901,-4.2901,-4.2901,-4.2901,-4.2901,-4.2901,-4.2901,-4.2901,-4.2901,-4.2901,-4.2901,-4.2901,-4.2901,-4.2901,-4.2901,-4.2901,-4.2901,-4.2901,-4.2901,-4.2901,-4.2901,-4.2901,-4.2901,-4.2901,-4.2901,-4.2901,-4.2901,-4.2901,-4.2806]},{"header":{"parameterUnit":"m.s-1","parameterCategory":1,"la1":30.6,"la2":29.2853,"lo1":-89.7004,"lo2":-87.6739,"dy":0.0162,"dx":0.0183,"nx":112,"ny":82,"refTime":"2024-05-18T12:00:00:Z","depth":0,"parameterNumber":3,"parameterNumberName":"V-component_of_WINDS"},"data":[0.0,0.0,0.0,0.0,0.0,0.0,0.0,0.0,0.0,0.0,0.0,0.0,0.0,0.0,0.0,0.0,0.0,0.0,0.0,0.0,0.0,0.0,0.0,0.0,0.0,0.0,0.0,0.0,0.0,0.0,0.0,0.0,0.0,0.0,0.0,0.0,0.0,0.0,0.0,0.0,0.0,0.0,0.0,0.0,0.0,0.0,0.0,0.0,0.0,0.0,0.0,0.0,0.0,0.0,0.0,0.0,0.0,0.0,0.0,0.0,0.0,0.0,0.0,0.0,0.0,0.0,0.0,0.0,0.0,0.0,0.0,0.0,0.0,0.0,0.0,0.0,0.0,0.0,0.0,0.0,0.0,0.0,0.0,0.0,0.0,0.0,0.0,0.0,0.0,0.0,0.0,0.4505,0.5061,0.5305,0.5064,0.6048,0.6281,0.5264,0.0,0.0,0.0,0.0,0.0,0.0,0.0,0.0,0.0,0.0,0.0,0.0,0.0,0.0,0.0,0.0,0.0,0.0,0.0,0.0,0.0,0.0,0.0,0.0,0.0,0.0,0.0,0.0,0.0,0.0,0.0,0.0,0.0,0.0,0.0,0.0,0.0,0.0,0.0,0.0,0.0,0.0,0.0,0.0,0.0,0.0,0.0,0.0,0.0,0.0,0.0,0.0,0.0,0.0,0.0,0.0,0.0,0.0,0.0,0.0,0.0,0.0,0.0,0.0,0.0,0.0,0.0,0.0,0.0,0.0,0.0,0.0,0.0,0.0,0.0,0.0,0.0,0.0,0.0,0.0,0.0,0.0,0.0,0.0,0.0,0.0,0.0,0.0,0.0,0.0,0.0,0.0,0.0,0.0,0.0,0.0,0.0,0.0,0.0,0.0,0.0,0.0,0.0,0.0,0.3931,0.4762,0.5187,0.5463,0.5654,0.6314,0.6539,0.6126,0.0,0.0,0.0,0.0,0.0,0.0,0.0,0.0,0.0,0.0,0.0,0.0,0.0,0.0,0.0,0.0,0.0,0.0,0.0,0.0,0.0,0.0,0.0,0.0,0.0,0.0,0.0,0.0,0.0,0.0,0.0,0.0,0.0,0.0,0.0,0.0,0.0,0.0,0.0,0.0,0.0,0.0,0.0,0.0,0.0,0.0,0.0,0.0,0.0,0.0,0.0,0.0,0.0,0.0,0.0,0.0,0.0,0.0,0.0,0.0,0.0,0.0,0.0,0.0,0.0,0.0,0.0,0.0,0.0,0.0,0.0,0.0,0.0,0.0,0.0,0.0,0.0,0.0,0.0,0.0,0.0,0.0,0.0,0.0,0.0,0.0,0.0,0.0,0.0,0.0,0.0,0.0,0.0,0.0,0.0,0.0,0.0,0.0,0.0,0.0,0.0,0.0,0.0,0.3955,0.4402,0.4941,0.523,0.5496,0.5775,0.6344,0.6582,0.6325,0.6222,0.0,0.0,0.0,0.0,0.0,0.0,0.0,0.0,0.0,0.0,0.0,0.0,0.0,0.0,0.0,0.0,0.0,0.0,0.0,0.0,0.0,0.0,0.0,0.0,0.0,0.0,0.0,0.0,0.0,0.0,0.0,0.0,0.0,0.0,0.0,0.0,0.0,0.0,0.0,0.0,0.0,0.0,0.0,0.0,0.0,0.0,0.0,0.0,0.0,0.0,0.0,0.0,0.0,0.0,0.0,0.0,0.0,0.0,0.0,0.0,0.0,0.0,0.0,0.0,0.0,0.0,0.0,0.0,0.0,0.0,0.0,0.0,0.0,0.0,0.0,0.0,0.0,0.0,0.0,0.0,0.0,0.0,0.0,0.0,0.0,0.0,0.0,0.0,0.0,0.0,0.0,0.0,0.0,0.0,0.0,0.0,0.0,0.0,0.0,0.0,0.0,0.0,0.449,0.4843,0.5069,0.527,0.556,0.5987,0.639,0.6585,0.6515,0.614,0.0,0.0,0.0,0.0,0.0,0.0,0.0,0.0,0.0,0.0,0.0,0.0,0.0,0.0,0.0,0.0,0.0,0.0,0.0,0.0,0.0,0.0,0.0,0.0,0.0,0.0,0.0,0.0,0.0,0.0,0.0,0.0,0.0,0.0,0.0,0.0,0.0,0.0,0.0,0.0,0.0,0.0,0.0,0.0,0.0,0.0,0.0,0.0,0.0,0.0,0.0,0.0,0.0,0.0,0.0,0.0,0.0,0.0,0.0,0.0,0.0,0.0,0.0,0.0,0.0,0.0,0.0,0.0,0.0,0.0,0.0,0.0,0.0,0.0,0.0,0.0,0.0,0.0,0.0,0.0,0.0,0.0,0.0,0.0,0.0,0.0,0.0,0.0,0.0,0.0,0.0,0.0,0.0,0.0,0.0,0.0,0.0,0.0,0.0,0.0,0.0,0.0,0.4517,0.4931,0.5083,0.527,0.575,0.656,0.6444,0.6566,0.7104,0.6189,0.0,0.0,0.0,0.0,0.0,0.0,0.0,0.0,0.0,0.0,0.0,0.0,0.0,0.0,0.0,0.0,0.0,0.0,0.0,0.0,0.0,0.0,0.0,0.0,0.0,0.0,0.0,0.0,0.0,0.0,0.0,0.0,0.0,0.0,0.0,0.0,0.0,0.0,0.0,0.0,0.0,0.0,0.0,0.0,0.0,0.0,0.0,0.0,0.0,0.0,0.0,0.0,0.0,0.0,0.0,0.0,0.0,0.0,0.0,0.0,0.0,0.0,0.0,0.0,0.0,0.0,0.0,0.0,0.0,0.0,0.0,0.0,0.0,0.0,0.0,0.0,0.0,0.0,0.0,0.0,0.0,0.0,0.0,0.0,0.0,0.0,0.0,0.0,0.0,0.0,0.0,0.0,0.0,0.0,0.0,0.0,0.0,0.0,0.0,0.0,0.0,0.0,0.4493,0.4904,0.0,0.5358,0.5589,0.6108,0.6041,0.6105,0.6378,0.0,0.0,0.0,0.0,0.0,0.0,0.0,0.0,0.0,0.0,0.0,0.0,0.0,0.0,0.0,0.0,0.0,0.0,0.0,0.0,0.0,0.0,0.0,0.0,0.0,0.0,0.0,0.0,0.0,0.0,0.0,0.0,0.0,0.0,0.0,0.0,0.0,0.0,0.0,0.0,0.0,0.0,0.0,0.0,0.0,0.0,0.0,0.0,0.0,0.0,0.0,0.0,0.0,0.0,0.0,0.0,0.0,0.0,0.0,0.0,0.0,0.0,0.0,0.0,0.0,0.0,0.0,0.0,0.0,0.0,0.0,0.0,0.0,0.0,0.0,0.0,0.0,0.0,0.0,0.0,0.0,0.0,0.0,0.0,0.0,0.0,0.0,0.0,0.0,0.0,0.0,0.0,0.0,0.0,0.0,0.0,0.0,0.0,0.0,0.0,0.0,0.0,0.4213,0.4579,0.4918,0.0,0.5395,0.5496,0.5775,0.5725,0.5727,0.5898,0.0,0.0,0.0,0.0,0.0,0.0,0.0,0.0,0.0,0.0,0.0,0.0,0.0,0.0,0.0,0.0,0.0,0.0,0.0,0.0,0.0,0.0,0.0,0.0,0.0,0.0,0.0,0.0,0.0,0.0,0.0,0.0,0.0,0.0,0.0,0.0,0.0,0.0,0.0,0.0,0.0,0.0,0.0,0.0,0.0,0.0,0.0,0.0,0.0,0.0,0.0,0.0,0.0,0.0,0.0,0.0,0.0,0.0,0.0,0.0,0.0,0.0,0.0,0.0,0.0,0.0,0.0,0.0,0.0,0.0,0.0,0.0,0.0,0.0,0.0,0.0,0.0,0.0,0.0,0.0,0.0,0.0,0.0,0.0,0.0,0.0,0.0,0.0,0.0,0.0,0.0,0.0,0.0,0.0,0.0,0.0,0.0,0.0,0.0,0.0,0.0,0.0,0.4412,0.4728,0.5033,0.5361,0.5395,0.5496,0.5775,0.5559,0.554,0.0,0.0,0.0,0.0,0.0,0.0,0.0,0.0,0.0,0.0,0.0,0.0,0.0,0.0,0.0,0.0,0.0,0.0,0.0,0.0,0.0,0.0,0.0,0.0,0.0,0.0,0.0,0.0,0.0,0.0,0.0,0.0,0.0,0.0,0.0,0.0,0.0,0.0,0.0,0.0,0.0,0.0,0.0,0.0,0.0,0.0,0.0,0.0,0.0,0.0,0.0,0.0,0.0,0.0,0.0,0.0,0.0,0.0,0.0,0.0,0.0,0.0,0.0,0.0,0.0,0.0,0.0,0.0,0.0,0.0,0.0,0.0,0.0,0.0,0.0,0.0,0.0,0.0,0.0,0.0,0.0,0.0,0.0,0.0,0.0,0.0,0.0,0.0,0.0,0.0,0.0,0.0,0.0,0.0,0.0,0.0,0.0,0.0,0.0,0.0,0.0,0.0,0.0,0.3948,0.4523,0.5033,0.5361,0.5395,0.5337,0.5182,0.5081,0.5025,0.4992,0.0,0.0,0.0,0.0,0.0,0.0,0.0,0.0,0.0,0.0,0.0,0.0,0.0,0.0,0.0,0.0,0.0,0.0,0.0,0.0,0.0,0.0,0.0,0.0,0.0,0.0,0.0,0.0,0.0,0.0,0.0,0.0,0.0,0.0,0.0,0.0,0.0,0.0,0.0,0.0,0.0,0.0,0.0,0.0,0.0,0.0,0.0,0.0,0.0,0.0,0.0,0.0,0.0,0.0,0.0,0.0,0.0,0.0,0.0,0.0,0.0,0.0,0.0,0.0,0.0,0.0,0.0,0.0,0.0,0.0,0.0,0.0,0.0,0.0,0.0,0.0,0.0,0.0,0.0,0.0,0.0,0.0,0.0,0.0,0.0,0.0,0.0,0.0,0.0,0.0,0.0,0.0,0.0,0.0,0.0,0.0,0.0,0.0,0.0,0.0,0.0,0.0,0.373,0.4435,0.5033,0.5361,0.5395,0.5272,0.4945,0.4887,0.478,0.4507,0.0,0.0,0.0,0.0,0.0,0.0,0.0,0.0,0.0,0.0,0.0,0.0,0.0,0.0,0.0,0.0,0.0,0.0,0.0,0.0,0.0,0.0,0.0,0.0,0.0,0.0,0.0,0.0,0.0,0.0,0.0,0.0,0.0,0.0,0.0,0.0,0.0,0.0,0.0,0.0,0.0,0.0,0.0,0.0,0.0,0.0,0.0,0.0,0.0,0.0,0.0,0.0,0.0,0.0,0.0,0.0,0.0,0.0,0.0,0.0,0.0,0.0,0.0,0.0,0.0,0.0,0.0,0.0,0.0,0.0,0.0,0.0,0.0,0.0,0.0,0.0,0.0,0.0,0.0,0.0,0.0,0.0,0.0,0.0,0.0,0.0,0.0,0.0,0.0,0.0,0.0,0.0,0.0,0.0,0.0,0.0,0.0,0.0,0.0,0.0,0.0,0.0,0.3648,0.4406,0.5033,0.5361,0.5395,0.5279,0.4931,0.4894,0.4752,0.4379,0.0,0.0,0.0,0.0,0.0,0.0,0.0,0.0,0.0,0.0,0.0,0.0,0.0,0.0,0.0,0.0,0.0,0.0,0.0,0.0,0.0,0.0,0.0,0.0,0.0,0.0,0.0,0.0,0.0,0.0,0.0,0.0,0.0,0.0,0.0,0.0,0.0,0.0,0.0,0.0,0.0,0.0,0.0,0.0,0.0,0.0,0.0,0.0,0.0,0.0,0.0,0.0,0.0,0.0,0.0,0.0,0.0,0.0,0.0,0.0,0.2746,0.0,0.0,0.0,0.0,0.0,0.0,0.0,0.0,0.0,0.0,0.0,0.0,0.0,0.0,0.0,0.0,0.0,0.0,0.0,0.0,0.0,0.0,0.0,0.0,0.0,0.0,0.0,0.0,0.0,0.0,0.0,0.0,0.0,0.0,0.0,0.0,0.0,0.0,0.0,0.0,0.0,0.313,0.4171,0.5033,0.5361,0.5395,0.532,0.5069,0.4951,0.4839,0.4712,0.4496,0.0,0.0,0.0,0.0,0.0,0.0,0.0,0.0,0.0,0.0,0.0,0.0,0.0,0.0,0.0,0.0,0.0,0.0,0.0,0.0,0.0,0.0,0.0,0.0,0.0,0.0,0.0,0.0,0.0,0.0,0.0,0.0,0.0,0.0,0.0,0.0,0.0,0.0,0.0,0.0,0.0,0.0,0.0,0.0,0.0,0.0,0.0,0.0,0.0,0.0,0.0,0.0,0.0,0.0,0.0,0.0,0.0,0.0,0.0,0.0,0.3211,0.0,0.0,0.0,0.0,0.0,0.0,0.0,0.0,0.0,0.0,0.0,0.0,0.0,0.0,0.0,0.0,0.0,0.0,0.0,0.0,0.0,0.0,0.0,0.0,0.0,0.0,0.0,0.0,0.0,0.0,0.0,0.0,0.0,0.0,0.0,0.0,0.0,0.0,0.0,0.0,0.3016,0.4201,0.5108,0.5371,0.5395,0.533,0.511,0.4968,0.4843,0.4665,0.4381,0.0,0.0,0.0,0.0,0.0,0.0,0.0,0.0,0.0,0.0,0.0,0.0,0.0,0.0,0.0,0.0,0.0,0.0,0.0,0.0,0.0,0.0,0.0,0.0,0.0,0.0,0.0,0.0,0.0,0.0,0.0,0.0,0.0,0.0,0.0,0.0,0.0,0.0,0.0,0.0,0.0,0.0,0.0,0.0,0.0,0.0,0.0,0.0,0.0,0.0,0.0,0.0,0.0,0.2588,0.2395,0.2007,0.3551,0.4239,0.4173,0.4367,0.4499,0.4584,0.3977,0.0,0.0,0.0,0.0,0.0,0.0,0.0,0.0,0.0,0.0,0.0,0.0,0.0,0.0,0.0,0.0,0.0,0.0,0.0,0.0,0.0,0.0,0.0,0.0,0.4146,0.451,0.431,0.0,0.0,0.0,0.0,0.0,0.0,0.0,0.0,0.0,0.0,0.0,0.322,0.4332,0.5189,0.5378,0.5395,0.5344,0.5182,0.4985,0.4813,0.4586,0.4194,0.4091,0.0,0.0,0.0,0.0,0.0,0.0,0.0,0.0,0.0,0.0,0.0,0.0,0.0,0.0,0.0,0.0,0.0,0.0,0.0,0.0,0.0,0.0,0.0,0.0,0.0,0.0,0.0,0.0,0.0,0.0,0.0,0.0,0.0949,0.1417,0.0,0.0,0.0,0.0,0.0,0.0,0.0,0.0,0.0,0.0,0.0,0.0,0.0,0.1162,0.1372,0.1314,0.1727,0.2587,0.2664,0.3466,0.4923,0.5183,0.5897,0.6894,0.6902,0.0,0.5595,0.5383,0.0,0.0,0.0,0.0,0.0,0.0,0.0,0.0,0.0,0.0,0.0,0.0,0.0,0.0,0.0,0.0,0.0,0.0,0.0,0.0,0.0,0.0,0.5287,0.5288,0.5279,0.5305,0.0,0.4186,0.3049,0.2825,0.2606,0.0,0.0,0.0,0.0,0.0,0.0,0.0,0.3782,0.4608,0.5189,0.5378,0.5395,0.5385,0.5365,0.5077,0.487,0.486,0.4785,0.4535,0.4084,0.4199,0.0,0.0,0.0,0.0,0.0,0.0,0.0,0.0,0.0,0.0,0.0,0.0,0.0,0.0,0.0,0.0,0.0,0.0,0.0,0.0,0.0,0.0,0.0,0.0,0.0,0.0,0.0,0.0,0.0,0.0818,0.0949,0.1176,0.1049,0.0937,0.0,0.0,0.0,0.0,0.0,0.0,0.0,0.0,0.0,0.1201,0.1248,0.1545,0.2169,0.1641,0.1899,0.2846,0.2877,0.2993,0.3288,0.4396,0.4882,0.4973,0.5484,0.5428,0.5083,0.5899,0.6037,0.5735,0.0,0.0,0.0,0.0,0.5332,0.5352,0.5603,0.5675,0.559,0.5447,0.0,0.0,0.0,0.0,0.0,0.0,0.0,0.0,0.0,0.0,0.5647,0.58,0.5854,0.5897,0.584,0.5153,0.4374,0.0,0.3585,0.3294,0.2412,0.0,0.0,0.0,0.0,0.3626,0.4044,0.4776,0.5287,0.5388,0.5395,0.5395,0.5395,0.5087,0.4887,0.4887,0.4766,0.4616,0.4507,0.43,0.4083,0.0,0.0,0.0,0.0,0.0,0.0,0.0,0.0,0.0,0.0,0.0,0.0,0.0,0.0,0.0,0.0,0.0,0.0,0.0,0.0,0.0,0.0,0.0,0.0,0.0,0.0,0.0,0.0,0.0849,0.093,0.0945,0.1003,0.1013,0.0,0.0,0.0,0.0,0.0,0.0,0.114,0.1198,0.1293,0.1346,0.1398,0.1812,0.2581,0.1869,0.1892,0.2681,0.2681,0.2436,0.1997,0.3435,0.3861,0.3477,0.4196,0.4484,0.4602,0.5904,0.6341,0.6098,0.6078,0.6064,0.6044,0.6159,0.6152,0.6139,0.6474,0.6535,0.6388,0.6193,0.6064,0.5884,0.5406,0.0,0.0,0.0,0.0,0.4959,0.5664,0.5895,0.601,0.6166,0.6291,0.6381,0.6227,0.6112,0.5735,0.0,0.4597,0.4345,0.3331,0.0,0.0,0.0,0.0,0.4151,0.4402,0.5003,0.5395,0.5395,0.5395,0.5395,0.5395,0.5121,0.4928,0.4891,0.4667,0.4618,0.4779,0.4309,0.4141,0.4297,0.0,0.0,0.0,0.0,0.0,0.0,0.0,0.0,0.0,0.0,0.0,0.0,0.0,0.0,0.0,0.0,0.0,0.0,0.0,0.0,0.0,0.0,0.0,0.0,0.0,0.0,0.0,0.0,0.0,0.1097,0.1146,0.0,0.0,0.0,0.0,0.1196,0.1267,0.1274,0.1292,0.1349,0.1439,0.147,0.1502,0.1534,0.1664,0.1597,0.1626,0.1759,0.1759,0.2273,0.3197,0.3241,0.3814,0.471,0.4762,0.476,0.4839,0.5553,0.5708,0.5623,0.65,0.6783,0.6658,0.6664,0.6756,0.6832,0.6856,0.6807,0.6722,0.6943,0.6783,0.6446,0.6282,0.5989,0.0,0.0,0.5942,0.6013,0.6349,0.6474,0.6518,0.663,0.6671,0.6675,0.6668,0.6661,0.6437,0.0,0.5443,0.5091,0.4276,0.0,0.4096,0.3956,0.4074,0.4411,0.4969,0.5264,0.5395,0.5395,0.5395,0.5395,0.5395,0.5213,0.5029,0.4897,0.4769,0.4638,0.4512,0.4314,0.4132,0.4013,0.3679,0.0,0.0,0.0,0.0,0.0,0.0,0.0,0.0,0.0,0.0,0.0,0.0,0.0,0.0,0.0,0.0,0.0,0.0,0.0,0.0,0.0,0.0,0.0,0.0,0.0,0.0,0.0,0.0,0.126,0.1256,0.0,0.1215,0.127,0.1307,0.1259,0.1363,0.141,0.1432,0.1509,0.1557,0.1568,0.1615,0.1646,0.1656,0.1667,0.1678,0.1689,0.1689,0.1899,0.2267,0.2252,0.2453,0.2816,0.2785,0.2822,0.2866,0.3764,0.444,0.4969,0.5194,0.5266,0.5232,0.5232,0.5254,0.538,0.6068,0.6312,0.6349,0.69,0.6532,0.5919,0.6308,0.5549,0.478,0.597,0.5942,0.5712,0.6427,0.662,0.663,0.6688,0.6702,0.6702,0.6702,0.6702,0.662,0.6356,0.6146,0.5794,0.5209,0.5087,0.5071,0.5024,0.5059,0.5221,0.5514,0.5528,0.5542,0.5542,0.5453,0.5395,0.5395,0.5135,0.4941,0.4891,0.4684,0.4545,0.4491,0.444,0.4317,0.4142,0.3931,0.3584,0.0,0.0,0.0,0.0,0.0,0.0,0.0,0.0,0.0,0.0,0.0,0.0,0.0,0.0,0.0,0.0,0.0,0.0,0.0,0.0,0.0,0.0,0.0,0.0,0.0,0.0,0.2131,0.1403,0.1359,0.1341,0.1323,0.1389,0.1437,0.1393,0.1493,0.1535,0.1555,0.1613,0.1646,0.1646,0.1684,0.1704,0.1704,0.1714,0.172,0.172,0.172,0.172,0.1719,0.1709,0.1704,0.1703,0.1684,0.1723,0.1764,0.2405,0.307,0.3654,0.4285,0.4552,0.46,0.494,0.5085,0.5225,0.6241,0.6608,0.667,0.7145,0.6777,0.631,0.6738,0.6015,0.5315,0.6476,0.6417,0.6132,0.6688,0.6848,0.6848,0.6848,0.6848,0.6848,0.6848,0.6848,0.6834,0.6787,0.6536,0.6259,0.5914,0.5772,0.5722,0.5671,0.5661,0.5694,0.5789,0.5718,0.5644,0.5596,0.5532,0.545,0.5399,0.5131,0.4938,0.4891,0.468,0.4545,0.4491,0.4491,0.4447,0.4297,0.4045,0.3674,0.3155,0.0,0.0,0.0,0.0,0.0,0.0,0.0,0.0,0.0,0.0,0.0,0.0,0.0,0.0,0.0,0.0,0.0,0.0,0.0,0.0,0.0,0.0,0.0,0.2452,0.2582,0.2441,0.1438,0.1411,0.1458,0.1403,0.1449,0.1555,0.1615,0.162,0.1644,0.1701,0.1705,0.1705,0.1705,0.1707,0.1707,0.1707,0.179,0.1806,0.1806,0.1806,0.1806,0.1804,0.172,0.1707,0.1707,0.1706,0.169,0.1717,0.1715,0.1645,0.182,0.3875,0.4724,0.4824,0.5882,0.6284,0.6468,0.743,0.7769,0.7794,0.7651,0.7607,0.7557,0.76,0.755,0.7473,0.7421,0.7377,0.7343,0.7149,0.7105,0.7102,0.7102,0.7098,0.7095,0.7095,0.7095,0.7055,0.692,0.6692,0.648,0.633,0.6142,0.5952,0.5837,0.5817,0.0,0.5817,0.5813,0.5755,0.5616,0.5596,0.5532,0.5416,0.5216,0.5032,0.4897,0.4772,0.4644,0.4494,0.4491,0.4491,0.4491,0.4051,0.3656,0.3323,0.0,0.0,0.0,0.0,0.0,0.0,0.0,0.0,0.0,0.0,0.0,0.0,0.0,0.0,0.0,0.0,0.0,0.0,0.0,0.0,0.0,0.0,0.3932,0.28,0.3172,0.308,0.1686,0.1539,0.157,0.1597,0.1615,0.164,0.1677,0.168,0.1687,0.1703,0.1725,0.1791,0.1791,0.1759,0.177,0.177,0.1778,0.1782,0.1782,0.1782,0.1782,0.1782,0.1774,0.177,0.1769,0.1747,0.1787,0.1776,0.1732,0.1709,0.175,0.2283,0.2471,0.2521,0.2823,0.3927,0.5375,0.6446,0.7279,0.7901,0.7801,0.727,0.6819,0.7442,0.6602,0.579,0.7169,0.7063,0.6674,0.7297,0.739,0.7309,0.7309,0.7221,0.7095,0.7095,0.7095,0.7085,0.7045,0.6889,0.6719,0.6501,0.6419,0.6302,0.6194,0.6173,0.0,0.6173,0.6037,0.5915,0.5878,0.5718,0.5572,0.5566,0.5189,0.4931,0.4891,0.467,0.4535,0.4491,0.4491,0.4491,0.4491,0.4131,0.386,0.0,0.0,0.0,0.0,0.0,0.0,0.0,0.0,0.0,0.0,0.0,0.0,0.0,0.0,0.0,0.0,0.0,0.0,0.0,0.0,0.0,0.0,0.3857,0.3791,0.2992,0.3264,0.3025,0.1757,0.1643,0.1674,0.1711,0.1725,0.1692,0.1721,0.1723,0.1729,0.1742,0.1759,0.1774,0.1787,0.1805,0.182,0.1833,0.1833,0.1833,0.1833,0.182,0.1814,0.1813,0.1801,0.1795,0.1794,0.1776,0.1816,0.1802,0.1766,0.1744,0.0,0.0,0.0,0.0,0.0,0.4275,0.6229,0.6836,0.7487,0.7975,0.7887,0.7514,0.7156,0.7614,0.6958,0.6313,0.7368,0.7301,0.6997,0.7473,0.7533,0.7465,0.7465,0.735,0.7238,0.7238,0.7142,0.7095,0.7095,0.7031,0.0,0.6705,0.6556,0.6484,0.6402,0.6337,0.63,0.63,0.6183,0.6101,0.6,0.5878,0.5725,0.5599,0.5291,0.0,0.0,0.0,0.4556,0.4494,0.4491,0.0,0.0,0.0,0.0,0.0,0.0,0.0,0.0,0.3847,0.3763,0.0,0.0,0.0,0.0,0.0,0.0,0.0,0.0,0.0,0.0,0.0,0.0,0.0,0.0,0.0,0.0,0.3361,0.361,0.3054,0.2899,0.2564,0.173,0.1681,0.1717,0.1724,0.1695,0.1722,0.1807,0.1813,0.1827,0.1799,0.0,0.0,0.0,0.0,0.1858,0.1885,0.1886,0.1886,0.1885,0.1855,0.1783,0.1782,0.1809,0.1795,0.1795,0.1795,0.178,0.1809,0.1806,0.1786,0.1699,0.1746,0.1721,0.1869,0.4124,0.6129,0.7686,0.7939,0.0,0.0,0.7988,0.7988,0.7988,0.7988,0.7988,0.7961,0.7875,0.7838,0.7807,0.7682,0.7638,0.7624,0.7624,0.7509,0.7443,0.7443,0.7275,0.7122,0.7122,0.7109,0.7055,0.693,0.6715,0.6552,0.6518,0.6405,0.6317,0.6303,0.63,0.6245,0.6071,0.0,0.0,0.5661,0.5501,0.5283,0.4986,0.4809,0.465,0.4522,0.4515,0.4508,0.4491,0.4491,0.4491,0.4491,0.4491,0.4491,0.4474,0.3832,0.3713,0.0,0.0,0.0,0.0,0.0,0.0,0.0,0.0,0.0,0.0,0.0,0.0,0.0,0.0,0.0,0.3008,0.2988,0.3127,0.3028,0.2416,0.1901,0.1696,0.1707,0.1733,0.1783,0.1792,0.1808,0.1784,0.1809,0.1825,0.1774,0.1855,0.187,0.1877,0.1877,0.188,0.1886,0.1886,0.1886,0.1885,0.0,0.0,0.1782,0.1809,0.1795,0.1795,0.1795,0.1791,0.1784,0.1815,0.1786,0.1807,0.2651,0.2402,0.1969,0.4981,0.5829,0.5677,0.7385,0.7988,0.7988,0.7988,0.7988,0.7988,0.7988,0.7988,0.0,0.7955,0.7944,0.7938,0.7914,0.7862,0.777,0.777,0.7658,0.7556,0.7556,0.7434,0.7326,0.7326,0.7224,0.7088,0.7058,0.6913,0.6756,0.6549,0.6491,0.6429,0.6313,0.63,0.6289,0.6259,0.6105,0.5969,0.5912,0.5586,0.5371,0.5313,0.5023,0.4806,0.4682,0.4646,0.4617,0.4491,0.4491,0.4491,0.4491,0.4491,0.4491,0.4487,0.4341,0.432,0.0,0.0,0.0,0.0,0.0,0.0,0.0,0.0,0.0,0.0,0.0,0.5524,0.0,0.0,0.4249,0.3166,0.261,0.2319,0.2364,0.195,0.1714,0.1714,0.1741,0.1771,0.1802,0.1818,0.1785,0.1815,0.1774,0.179,0.1862,0.1877,0.1893,0.1908,0.2562,0.2929,0.2891,0.2891,0.2891,0.289,0.2196,0.1826,0.1825,0.1838,0.1818,0.1817,0.1802,0.1795,0.1794,0.1778,0.2137,0.2692,0.3787,0.3817,0.3519,0.5601,0.6384,0.6531,0.7637,0.7988,0.7988,0.7988,0.7988,0.7988,0.7988,0.7988,0.7988,0.7988,0.7988,0.7988,0.7988,0.7934,0.7877,0.7877,0.7814,0.7706,0.7706,0.759,0.7461,0.7433,0.7309,0.7231,0.7109,0.7038,0.6916,0.6732,0.6569,0.6487,0.6416,0.6344,0.63,0.63,0.6193,0.6112,0.6,0.562,0.5361,0.525,0.504,0.4884,0.4809,0.4806,0.4769,0.4694,0.4691,0.4691,0.4691,0.4691,0.4691,0.4691,0.4691,0.465,0.0,0.0,0.0,0.0,0.0,0.0,0.0,0.0,0.6019,0.6283,0.6489,0.634,0.5549,0.4733,0.3988,0.332,0.2325,0.1658,0.1714,0.1728,0.1729,0.1723,0.1771,0.1807,0.1813,0.178,0.1808,0.178,0.1788,0.1979,0.2247,0.2314,0.2391,0.2662,0.3749,0.4316,0.4303,0.4304,0.4182,0.3875,0.3095,0.2532,0.229,0.2516,0.2597,0.2595,0.2552,0.2529,0.2521,0.2521,0.3054,0.3998,0.5019,0.5409,0.5415,0.642,0.7175,0.7775,0.7949,0.7988,0.7988,0.7988,0.7988,0.7988,0.7988,0.7988,0.7988,0.7988,0.7988,0.7988,0.7988,0.7988,0.7988,0.7988,0.7894,0.7855,0.7855,0.7743,0.7604,0.7482,0.7456,0.7333,0.7207,0.7115,0.7048,0.6906,0.6695,0.6545,0.6515,0.6388,0.63,0.63,0.63,0.6238,0.6003,0.5671,0.5382,0.5197,0.5084,0.4992,0.4931,0.4928,0.4918,0.4887,0.4887,0.4887,0.4887,0.4887,0.4887,0.4887,0.4918,0.4877,0.5697,0.5811,0.5933,0.625,0.6327,0.6515,0.0,0.0,0.7194,0.7168,0.7415,0.7248,0.6051,0.5139,0.4249,0.3352,0.2346,0.1715,0.1695,0.1776,0.1784,0.1703,0.1783,0.1815,0.1787,0.1793,0.1808,0.178,0.1866,0.2425,0.3601,0.3647,0.4225,0.5393,0.5576,0.5703,0.5651,0.5651,0.51,0.3936,0.4967,0.4812,0.3731,0.4843,0.5329,0.5323,0.5236,0.5098,0.4972,0.4972,0.5077,0.5283,0.63,0.6681,0.6794,0.7723,0.7572,0.693,0.7732,0.7988,0.7988,0.7988,0.7988,0.7988,0.7988,0.7988,0.7988,0.7988,0.7988,0.7988,0.7988,0.7988,0.7988,0.7988,0.7978,0.7965,0.7965,0.7896,0.7784,0.7767,0.755,0.7412,0.735,0.7231,0.7048,0.6906,0.6783,0.6624,0.6528,0.6388,0.63,0.63,0.63,0.6238,0.6003,0.5861,0.5691,0.5549,0.5429,0.525,0.5079,0.5076,0.5015,0.4891,0.4887,0.4887,0.4887,0.4887,0.4887,0.4891,0.5015,0.4999,0.6538,0.6591,0.0,0.0,0.7192,0.7454,0.7928,0.7942,0.7932,0.8098,0.8083,0.7867,0.7341,0.5853,0.46,0.0,0.335,0.2461,0.1832,0.2909,0.3229,0.1892,0.2319,0.2439,0.1876,0.2451,0.2888,0.2965,0.3631,0.4336,0.5049,0.5084,0.5345,0.5896,0.663,0.706,0.706,0.706,0.6754,0.6202,0.5983,0.5602,0.5052,0.5634,0.5863,0.5806,0.5654,0.5589,0.5493,0.5439,0.5808,0.642,0.6874,0.7463,0.8092,0.8345,0.8078,0.769,0.8042,0.8113,0.7988,0.7988,0.7988,0.7988,0.7988,0.7988,0.7988,0.7988,0.7988,0.7988,0.7988,0.7988,0.7988,0.7988,0.7988,0.7988,0.7988,0.7938,0.787,0.7828,0.7645,0.7478,0.7433,0.7244,0.7078,0.7018,0.6883,0.6776,0.6624,0.6515,0.6392,0.631,0.63,0.6238,0.6003,0.5936,0.5871,0.5722,0.5576,0.5464,0.5399,0.5311,0.5237,0.5179,0.5176,0.5176,0.5176,0.5176,0.5176,0.5179,0.5237,0.5233,0.6888,0.0,0.0,0.7553,0.7935,0.8284,0.8471,0.8516,0.8576,0.8636,0.8494,0.8317,0.8174,0.6572,0.5166,0.4926,0.4325,0.3486,0.2464,0.3897,0.4507,0.2924,0.3324,0.3473,0.2762,0.3247,0.3782,0.4277,0.5106,0.5829,0.6438,0.6446,0.6632,0.6938,0.7919,0.8407,0.8407,0.8407,0.8224,0.7917,0.7243,0.6815,0.6444,0.6803,0.6953,0.6845,0.6734,0.661,0.6574,0.641,0.6869,0.7598,0.7598,0.8159,0.8858,0.8689,0.8516,0.8381,0.835,0.8197,0.8096,0.8005,0.7988,0.7988,0.7988,0.7988,0.7988,0.7988,0.7988,0.7988,0.7988,0.7988,0.7988,0.7988,0.7988,0.7988,0.7988,0.7988,0.7958,0.7896,0.7756,0.7611,0.7461,0.7305,0.7146,0.7102,0.7007,0.6889,0.6783,0.6593,0.6457,0.6317,0.63,0.6252,0.6101,0.6016,0.5946,0.5871,0.5728,0.563,0.5593,0.5518,0.544,0.5395,0.5395,0.5395,0.5395,0.5395,0.5395,0.5395,0.5395,0.5395,0.0,0.0,0.7816,0.7955,0.8398,0.8844,0.9031,0.9206,0.924,0.8727,0.8709,0.8623,0.8081,0.7083,0.6055,0.5063,0.4986,0.4673,0.3671,0.446,0.509,0.5006,0.4886,0.4886,0.0,0.4103,0.4066,0.5437,0.5574,0.6243,0.7781,0.7858,0.841,0.9636,0.9697,0.9761,0.9761,0.9761,0.9143,0.7919,0.9083,0.9022,0.7856,0.914,0.9617,0.9473,0.9322,0.9232,0.9084,0.8883,0.8826,0.883,0.883,0.8881,0.8881,0.8871,0.8828,0.8655,0.837,0.832,0.8238,0.8089,0.7988,0.7988,0.7988,0.7988,0.7988,0.7988,0.7988,0.7988,0.7988,0.7988,0.7988,0.7988,0.7988,0.7988,0.7988,0.7988,0.7988,0.7985,0.7909,0.776,0.7617,0.7465,0.7312,0.7119,0.7092,0.7038,0.6896,0.6658,0.6457,0.6317,0.63,0.6296,0.6293,0.6115,0.599,0.5986,0.5878,0.5732,0.5596,0.5586,0.5545,0.5399,0.5395,0.5395,0.5395,0.5395,0.5395,0.5395,0.5395,0.5395,0.0,0.0,0.8182,0.8475,0.8728,0.8958,0.9021,0.9018,0.8909,0.8661,0.8489,0.8299,0.8051,0.7043,0.6195,0.6014,0.6163,0.5961,0.4949,0.6329,0.6872,0.5267,0.5785,0.0,0.0,0.0,0.0,0.6897,0.768,0.844,0.9131,0.9147,0.9329,0.9761,0.9822,0.9822,0.9822,0.9822,0.9576,0.9147,0.9576,0.9576,0.9147,0.9576,0.9795,0.9741,0.9595,0.9445,0.9293,0.9144,0.9025,0.8885,0.8885,0.8885,0.8885,0.8885,0.8851,0.8818,0.8516,0.835,0.8245,0.8089,0.7988,0.7988,0.7988,0.7988,0.7988,0.7988,0.7988,0.7988,0.7988,0.7988,0.7988,0.7988,0.7988,0.7988,0.7988,0.7988,0.7988,0.7988,0.7916,0.7794,0.7746,0.7536,0.7319,0.7119,0.7018,0.694,0.6893,0.6661,0.6494,0.6446,0.6358,0.63,0.63,0.6252,0.6183,0.6183,0.6037,0.5895,0.5884,0.5783,0.5661,0.5549,0.5545,0.5498,0.5395,0.5498,0.5545,0.5549,0.561,0.5654,0.7955,0.8292,0.8564,0.8922,0.9092,0.9211,0.9114,0.8954,0.8792,0.8438,0.8222,0.7991,0.7738,0.7038,0.6488,0.6339,0.6842,0.697,0.6053,0.7508,0.8132,0.6597,0.7068,0.7567,0.0,0.0,0.0,0.8241,0.8971,0.951,0.9805,0.9822,0.9822,0.9822,0.9329,0.9143,0.9143,0.9143,0.9329,0.9822,0.9822,0.9822,0.9822,0.9822,0.9822,0.9815,0.9673,0.9554,0.9445,0.9296,0.91,0.9011,0.8902,0.8885,0.8885,0.8885,0.8885,0.8848,0.8652,0.8469,0.8323,0.817,0.8085,0.7988,0.7988,0.7988,0.7988,0.7988,0.7988,0.7988,0.7988,0.7988,0.7988,0.7988,0.7988,0.7988,0.7988,0.7988,0.7988,0.7988,0.7911,0.7875,0.7821,0.7567,0.7336,0.7238,0.7055,0.6943,0.6893,0.6756,0.6593,0.6525,0.6429,0.6354,0.6303,0.63,0.63,0.63,0.6166,0.6088,0.5993,0.5935,0.5813,0.5671,0.5664,0.5616,0.5552,0.5616,0.5664,0.5667,0.5759,0.58,0.8231,0.8584,0.893,0.9331,0.9498,0.9525,0.9274,0.9084,0.8762,0.811,0.7851,0.7597,0.0,0.0,0.6869,0.6168,0.7143,0.7801,0.7084,0.8008,0.8723,0.0,0.0,0.0,0.0,0.0,0.0,0.9371,0.0,0.951,0.9684,0.9758,0.9758,0.9697,0.8593,0.7978,0.7919,0.7919,0.8532,0.9822,0.9822,0.9822,0.9822,0.9822,0.9822,0.9815,0.968,0.9615,0.9588,0.9347,0.9217,0.9193,0.8994,0.8885,0.8885,0.8885,0.8885,0.8861,0.8771,0.8621,0.8469,0.8371,0.817,0.8002,0.7992,0.7988,0.7988,0.7988,0.7988,0.7988,0.7988,0.7988,0.7988,0.7988,0.7988,0.7988,0.7988,0.7988,0.7988,0.7988,0.7988,0.7941,0.7838,0.758,0.7436,0.7419,0.7248,0.7055,0.6916,0.6889,0.6817,0.6566,0.6528,0.6467,0.6323,0.631,0.6306,0.63,0.63,0.6196,0.601,0.6003,0.5932,0.5817,0.5813,0.581,0.58,0.581,0.5813,0.5813,0.582,0.5823,0.8759,0.9051,0.9271,0.9502,0.9448,0.9251,0.9069,0.8619,0.8106,0.7572,0.7192,0.684,0.0,0.0,0.0,0.6837,0.7707,0.0,0.8243,0.859,0.0,0.8824,0.0,0.9111,0.9093,0.9201,0.0,0.0,0.9445,0.9095,0.8395,0.9268,0.939,0.841,0.8961,0.8839,0.7919,0.7919,0.8532,0.9822,0.9822,0.9822,0.9822,0.9822,0.9822,0.9819,0.9781,0.9707,0.9595,0.9401,0.9313,0.9193,0.8994,0.8885,0.8885,0.8885,0.8885,0.8878,0.8841,0.8781,0.8611,0.8353,0.8245,0.8191,0.8025,0.7988,0.7988,0.7988,0.7988,0.7988,0.7988,0.7988,0.7988,0.7988,0.7988,0.7988,0.7988,0.7988,0.7988,0.7988,0.7988,0.7941,0.7838,0.775,0.7624,0.745,0.7336,0.7258,0.7061,0.695,0.6856,0.682,0.6712,0.658,0.647,0.6457,0.6412,0.6306,0.63,0.6282,0.6242,0.6242,0.6129,0.5939,0.5936,0.5915,0.58,0.5915,0.5936,0.5936,0.6088,0.6184,0.9108,0.934,0.9498,0.9604,0.942,0.9199,0.8804,0.8329,0.7775,0.7088,0.6784,0.0,0.0,0.0,0.0,0.0,0.0,0.0,0.857,0.8852,0.9032,0.0,0.9222,0.0,0.9354,0.9432,0.9544,0.0,0.9564,0.9281,0.8766,0.939,0.9451,0.8775,0.89,0.8653,0.7919,0.7919,0.8532,0.9822,0.9822,0.9822,0.9822,0.9822,0.9822,0.9822,0.0,0.9774,0.9686,0.9469,0.933,0.9289,0.9022,0.8885,0.8885,0.8885,0.8885,0.8885,0.8885,0.8828,0.8771,0.854,0.8418,0.8336,0.8187,0.814,0.8126,0.8155,0.8187,0.8187,0.8333,0.8333,0.8333,0.8187,0.8283,0.8283,0.8038,0.8088,0.8137,0.8038,0.7988,0.7961,0.7926,0.7855,0.7781,0.7641,0.7548,0.7448,0.7299,0.7119,0.6953,0.6893,0.6851,0.6739,0.6583,0.6552,0.6477,0.6399,0.6334,0.63,0.63,0.63,0.6259,0.6132,0.6132,0.6088,0.6003,0.6088,0.6132,0.6132,0.6259,0.63,0.9392,0.9506,0.9579,0.9579,0.949,0.9207,0.8558,0.8102,0.7563,0.6659,0.0,0.6286,0.5682,0.6061,0.6517,0.6665,0.0,0.7967,0.8418,0.8907,0.9193,0.9234,0.9435,0.9615,0.9635,0.9639,0.969,0.9812,0.9707,0.963,0.9569,0.9697,0.9822,0.9822,0.8593,0.798,0.8163,0.798,0.8532,0.9822,0.9822,0.9822,0.9822,0.9822,0.9822,0.9822,0.9822,0.9822,0.9798,0.9503,0.9381,0.9351,0.9052,0.8885,0.8885,0.8885,0.8885,0.8885,0.8885,0.8885,0.8858,0.876,0.8621,0.8482,0.8371,0.832,0.834,0.8378,0.8432,0.8528,0.8726,0.8825,0.8726,0.8528,0.8627,0.8676,0.8187,0.8283,0.8382,0.8137,0.8088,0.8038,0.8038,0.7929,0.7839,0.7928,0.7816,0.7706,0.7601,0.7337,0.7095,0.6927,0.6913,0.6852,0.6746,0.661,0.6555,0.6515,0.6399,0.632,0.63,0.63,0.63,0.63,0.63,0.63,0.63,0.63,0.63,0.63,0.63,0.63,0.9531,0.9604,0.9579,0.9579,0.949,0.9273,0.8682,0.8,0.0,0.0,0.0,0.5711,0.5465,0.5931,0.0,0.6668,0.0,0.0,0.0,0.0,0.9066,0.0,0.0,0.0,0.0,0.0,0.0,0.0,0.0,0.9303,0.8285,0.9207,0.9822,0.9822,0.8593,0.841,0.9454,0.8407,0.8532,0.9822,0.9822,0.9822,0.9822,0.9822,0.9822,0.9822,0.9822,0.0,0.9798,0.9503,0.9381,0.9351,0.9052,0.8885,0.8885,0.8885,0.8885,0.8885,0.8885,0.8885,0.8858,0.876,0.8693,0.8621,0.835,0.8473,0.8591,0.8428,0.8577,0.8726,0.8775,0.8825,0.8775,0.8726,0.8775,0.8775,0.8676,0.8676,0.8726,0.8676,0.8482,0.8333,0.8333,0.8113,0.7999,0.8145,0.7982,0.7916,0.7993,0.7674,0.7316,0.7109,0.7058,0.7001,0.6859,0.6822,0.6742,0.6528,0.6491,0.6422,0.6306,0.63,0.63,0.63,0.63,0.63,0.63,0.63,0.63,0.63,0.63,0.63,0.9575,0.9579,0.9579,0.9579,0.9352,0.8913,0.8331,0.0,0.0,0.0,0.0,0.5651,0.5308,0.0,0.0,0.0,0.0,0.0,0.0,0.0,0.0,0.0,0.0,0.0,0.0,0.0,0.0,0.0,0.0,0.9694,0.8961,0.9451,0.9822,0.9822,0.9207,0.9207,0.9822,0.9204,0.9204,0.9822,0.9822,0.9822,0.9822,0.9822,0.9822,0.9822,0.9822,0.9822,0.9798,0.9503,0.9381,0.9351,0.9052,0.8885,0.8885,0.8885,0.8885,0.8885,0.8885,0.8885,0.8871,0.8797,0.8828,0.8774,0.8472,0.8484,0.8587,0.86,0.8726,0.8874,0.9126,0.9225,0.9179,0.9031,0.8928,0.8825,0.8977,0.8878,0.8825,0.8825,0.8676,0.8577,0.8432,0.8432,0.8428,0.8423,0.8354,0.8327,0.8307,0.8046,0.772,0.7367,0.7323,0.7204,0.7001,0.6927,0.6831,0.6607,0.6555,0.645,0.6306,0.63,0.63,0.63,0.63,0.63,0.63,0.63,0.63,0.63,0.63,0.63,0.9575,0.9579,0.9579,0.9579,0.9218,0.8633,0.7963,0.7347,0.0,0.0,0.5697,0.5668,0.5282,0.0,0.0,0.0,0.0,0.0,0.0,0.0,0.0,0.0,0.0,0.0,0.0,0.0,0.0,0.0,0.0,0.0,1.0001,1.0004,1.0004,1.0004,1.0004,1.0001,0.9883,0.9883,0.9883,0.9822,0.9822,0.9822,0.9822,0.9822,0.9822,0.9822,0.9822,0.9822,0.9798,0.9503,0.9381,0.9351,0.9052,0.8885,0.8885,0.8885,0.8885,0.8885,0.8885,0.8885,0.8885,0.8885,0.8885,0.8824,0.8574,0.8535,0.863,0.8768,0.8825,0.8977,0.948,0.9579,0.9529,0.9335,0.913,0.9027,0.9232,0.913,0.8973,0.8973,0.8924,0.8829,0.863,0.8676,0.8784,0.8758,0.8735,0.875,0.8631,0.8454,0.8155,0.7683,0.7591,0.7459,0.7187,0.7084,0.6955,0.6759,0.6637,0.6545,0.6402,0.6364,0.6344,0.6344,0.6317,0.63,0.63,0.63,0.63,0.63,0.63,0.63,0.9575,0.9579,0.9579,0.9579,0.9218,0.8633,0.7963,0.0,0.0,0.5762,0.547,0.5386,0.5535,0.5608,0.0,0.0,0.0,0.0,0.0,0.0,0.0,0.0,0.0,0.0,0.0,0.0,0.0,0.0,0.0,0.0,1.0728,1.0728,1.0728,1.0728,1.0728,1.0547,1.0243,1.0243,1.0122,0.9822,0.9822,0.9822,0.9822,0.9822,0.9822,0.9822,0.9822,0.9822,0.0,0.9503,0.9381,0.9351,0.9052,0.8885,0.8885,0.8885,0.8885,0.8885,0.8885,0.8885,0.8885,0.8885,0.8885,0.8824,0.8574,0.8643,0.8845,0.8818,0.8977,0.9232,0.9529,0.9579,0.9579,0.9579,0.9529,0.9529,0.9579,0.9529,0.9529,0.9529,0.9331,0.9133,0.9137,0.8928,0.8871,0.9114,0.9061,0.8985,0.9049,0.8864,0.8596,0.8172,0.7984,0.7768,0.7503,0.7448,0.7287,0.6915,0.6852,0.6817,0.6668,0.6525,0.6494,0.6494,0.6364,0.63,0.63,0.63,0.63,0.63,0.63,0.63,0.9356,0.9543,0.9579,0.9579,0.9145,0.8479,0.7796,0.0,0.6319,0.5575,0.5345,0.5321,0.5418,0.5514,0.5722,0.6144,0.6266,0.6651,0.0,0.0,0.0,0.0,0.0,0.0,0.0,0.0,0.0,0.0,0.0,0.0,1.1405,1.1035,1.0789,1.0789,1.0789,1.0728,1.0607,1.0607,1.0547,1.0425,1.0425,1.0425,1.0425,1.0183,1.0122,1.0061,0.9879,0.9822,0.0,0.9503,0.9381,0.9351,0.9052,0.8885,0.8885,0.8885,0.8885,0.8885,0.8885,0.9047,0.9213,0.9213,0.9323,0.9318,0.868,0.8591,0.8682,0.8768,0.8874,0.9076,0.948,0.9579,0.9579,0.9579,0.9579,0.9579,0.9579,0.9579,0.9579,0.9579,0.9529,0.9381,0.9236,0.9232,0.9278,0.9183,0.9231,0.92,0.912,0.8934,0.871,0.8448,0.8204,0.7984,0.7768,0.7724,0.7567,0.715,0.714,0.7027,0.6705,0.6644,0.661,0.661,0.6504,0.6426,0.6426,0.634,0.63,0.63,0.63,0.63,0.9184,0.9409,0.9547,0.9547,0.9051,0.8408,0.0,0.0,0.6185,0.5446,0.5297,0.5297,0.5297,0.5466,0.5671,0.5872,0.6096,0.6528,0.7278,0.0,0.0,0.0,0.0,0.0,0.0,0.0,0.0,0.0,0.0,0.0,1.1776,1.1341,1.1095,1.1095,1.1095,1.1035,1.097,1.097,1.091,1.0789,1.0789,1.0789,1.0789,1.0547,1.0425,1.0425,1.0183,1.0037,0.0,0.9662,0.9585,0.9523,0.9203,0.9103,0.9158,0.9103,0.9047,0.9047,0.8937,0.9103,0.9379,0.9379,0.9596,0.9654,0.8998,0.8783,0.8796,0.8978,0.9011,0.9126,0.9525,0.9579,0.9579,0.9579,0.9579,0.9579,0.9579,0.9579,0.9579,0.9579,0.9579,0.9529,0.9331,0.948,0.9529,0.9331,0.9421,0.9372,0.9198,0.9015,0.8836,0.8662,0.8456,0.8248,0.8028,0.7984,0.7848,0.7516,0.7465,0.7329,0.7049,0.6958,0.6892,0.6892,0.6658,0.6559,0.6511,0.6412,0.634,0.63,0.63,0.63,0.8954,0.9226,0.9404,0.9404,0.9004,0.8375,0.0,0.6775,0.6185,0.5446,0.5297,0.5297,0.5297,0.5466,0.573,0.6118,0.6429,0.683,0.7512,0.0,0.0,0.0,0.0,0.0,0.0,0.0,0.0,0.0,0.0,0.0,1.1776,1.1776,1.1776,1.1776,1.1776,1.1647,1.1273,1.1273,1.1152,1.0789,1.0789,1.0789,1.0789,1.0789,1.0789,1.0789,1.0789,1.0699,0.0,1.0084,0.9925,0.9938,0.9554,0.9544,0.9761,0.9489,0.9379,0.9323,0.8995,0.9103,0.9379,0.9379,0.9596,0.9786,0.9615,0.9451,0.9343,0.9477,0.9562,0.9579,0.9579,0.9579,0.9579,0.9579,0.9579,0.9579,0.9579,0.9579,0.9579,0.9579,0.9579,0.9579,0.9579,0.9579,0.9579,0.9579,0.9575,0.9559,0.9424,0.9202,0.9023,0.8836,0.867,0.8476,0.8201,0.8201,0.8113,0.7896,0.7896,0.7896,0.7896,0.7519,0.7307,0.7307,0.6902,0.6624,0.6511,0.6511,0.6436,0.63,0.63,0.63,0.7914,0.8304,0.8612,0.8367,0.8086,0.7659,0.7009,0.6538,0.6067,0.5418,0.5297,0.5297,0.5297,0.5345,0.5644,0.6404,0.6621,0.0,0.0,0.0,0.0,0.0,0.0,0.0,0.0,0.0,0.0,0.0,0.0,0.0,1.1776,1.1776,1.1776,1.1776,1.1776,1.1776,1.1647,1.1647,1.1587,1.1466,1.1466,1.1466,1.1466,1.1277,1.1152,1.1144,1.0733,1.0539,1.0473,1.0141,1.0001,0.9995,0.9772,0.9706,0.9816,0.9706,0.9651,0.9651,0.9541,0.9761,1.0036,1.0036,1.0202,1.0406,1.035,0.9865,0.9324,0.9295,0.9424,0.9579,0.9579,0.9579,0.9579,0.9579,0.9579,0.9579,0.9579,0.9579,0.9579,0.9579,0.9579,0.9579,0.9579,0.9579,0.9579,0.9579,0.9579,0.9563,0.9424,0.9206,0.9027,0.884,0.867,0.8564,0.8476,0.8472,0.8384,0.8113,0.8113,0.8028,0.79,0.776,0.7603,0.7432,0.7229,0.7,0.6783,0.6678,0.6607,0.6563,0.6563,0.6681,0.0,0.7679,0.7947,0.7837,0.7612,0.7244,0.6712,0.6343,0.5947,0.5422,0.5297,0.5297,0.5297,0.5353,0.5628,0.629,0.6554,0.0,0.0,0.0,0.0,0.0,0.0,0.0,0.0,0.0,0.0,0.0,0.0,0.0,1.1776,1.1776,1.1776,1.1776,1.1776,1.1776,1.1776,1.1776,1.1776,1.1776,1.1776,1.1776,1.1776,1.1587,1.1422,1.1351,1.1011,1.0836,0.0,1.0319,1.0197,1.0237,1.0075,1.0036,1.0147,1.0036,0.9981,0.9981,0.9871,1.0036,1.0312,1.0312,1.0433,1.0582,1.0513,1.0126,0.9624,0.938,0.948,0.9579,0.9579,0.9579,0.9579,0.9579,0.9579,0.9579,0.9579,0.9579,0.9579,0.9579,0.9579,0.9579,0.9579,0.9579,0.9579,0.9579,0.9579,0.9587,0.9474,0.9303,0.9125,0.8946,0.8767,0.8637,0.8616,0.8612,0.852,0.838,0.8336,0.8296,0.8164,0.8072,0.794,0.7764,0.7625,0.7411,0.7179,0.694,0.6781,0.6702,0.6702,0.6864,0.0,0.7244,0.0,0.0,0.7366,0.6961,0.6444,0.6107,0.0,0.5369,0.5297,0.5309,0.5349,0.5494,0.5701,0.5977,0.6432,0.0,0.0,0.0,0.0,0.0,0.0,0.0,0.0,0.0,0.0,0.0,0.0,0.0,1.1776,1.1776,1.1776,1.1776,1.1764,1.1764,1.1776,1.1776,1.1776,1.1776,1.1776,1.1768,1.1756,1.1756,1.1654,0.0,1.1468,1.1273,1.0968,1.0675,1.0568,1.0692,1.0421,1.0472,1.0692,1.0421,1.0312,1.0257,0.9981,1.0088,1.0312,1.0312,1.0361,1.0346,1.0217,1.0204,1.0122,0.9726,0.9579,0.9579,0.9579,0.9579,0.9579,0.9579,0.9579,0.9579,0.9579,0.9579,0.9579,0.9579,0.9579,0.9579,0.9579,0.9579,0.9579,0.9579,0.9579,0.9579,0.9579,0.947,0.9339,0.9133,0.895,0.8771,0.8645,0.8616,0.8612,0.8612,0.8612,0.8612,0.8612,0.838,0.8201,0.8201,0.7984,0.7821,0.7617,0.7297,0.702,0.6774,0.6774,0.6937,0.5866,0.0,0.6437,0.6172,0.616,0.6132,0.0,0.5738,0.5587,0.5345,0.0,0.0,0.5914,0.577,0.5986,0.7171,0.0,0.0,0.0,0.0,0.0,0.0,0.0,0.0,0.0,0.0,0.0,0.0,0.0,1.1776,1.1776,1.1776,1.1776,1.1776,1.1638,1.1634,1.1776,1.1776,1.1776,1.1776,1.1776,1.1703,1.1565,1.1565,1.1464,1.1281,1.1151,1.1045,1.096,1.0762,1.0678,1.0692,1.0637,1.0637,1.0692,1.0637,1.0637,1.0582,1.0527,1.0527,1.0637,1.0637,1.052,1.0346,1.0217,1.0114,0.9904,0.9689,0.9579,0.9579,0.9579,0.9579,0.9579,0.9579,0.9579,0.9579,0.9579,0.9579,0.9579,0.9579,0.9579,0.9579,0.9579,0.9579,0.9579,0.9579,0.9579,0.9579,0.9579,0.947,0.9388,0.9347,0.9137,0.8958,0.8775,0.8641,0.8612,0.8612,0.8612,0.8612,0.8612,0.852,0.8428,0.8201,0.7984,0.7878,0.7836,0.7755,0.7693,0.761,0.761,0.7737,0.5438,0.5811,0.6151,0.601,0.5994,0.6012,0.591,0.0,0.0,0.0,0.0,0.0,0.0,0.0,0.0,0.0,0.0,0.0,0.0,0.0,0.0,0.0,0.0,0.0,0.0,0.0,0.0,0.0,0.0,1.174,1.1654,1.165,1.161,1.1524,1.1423,1.15,1.1776,1.161,1.1565,1.165,1.1565,1.1468,1.137,1.137,1.1273,1.1102,1.1009,1.0975,1.0834,1.0733,1.0692,1.0692,1.0692,1.0692,1.0692,1.0692,1.0692,1.0692,1.0692,1.0692,1.068,1.0599,1.0452,1.0274,1.0091,0.9908,0.9746,0.9652,0.9579,0.9579,0.9579,0.9579,0.9579,0.9579,0.9579,0.9579,0.9579,0.9579,0.9579,0.9579,0.9579,0.9579,0.9579,0.9579,0.9579,0.9579,0.9579,0.9579,0.9579,0.9543,0.9445,0.9412,0.9318,0.9141,0.8962,0.8865,0.8788,0.862,0.8612,0.8612,0.8612,0.8612,0.852,0.8384,0.8296,0.8164,0.8028,0.8028,0.7984,0.79,0.8328,0.8632,0.5365,0.5823,0.6269,0.6282,0.6253,0.6203,0.6174,0.0,0.0,0.0,0.0,0.0,0.0,0.0,0.0,0.0,0.0,0.0,0.0,0.0,0.0,0.0,0.0,0.0,0.0,0.0,0.0,0.0,0.0,1.1622,1.1464,1.1455,1.1382,1.1228,1.1196,1.1346,1.1691,1.1378,1.1301,1.1455,1.1297,1.1208,1.1183,1.1183,1.109,1.0928,0.0,0.0,1.0692,1.0692,1.0692,1.0692,1.0692,1.0692,1.0692,1.0692,1.0692,1.0692,1.0692,1.0676,1.0627,1.0481,1.029,1.0143,0.9933,0.9766,0.9579,0.9579,0.9579,0.9579,0.9579,0.9579,0.9579,0.9579,0.9579,0.9579,0.9579,0.9579,0.9579,0.9579,0.9579,0.9579,0.9579,0.9579,0.9579,0.9579,0.9579,0.9579,0.9579,0.9579,0.9567,0.9461,0.9445,0.9375,0.9153,0.9137,0.8995,0.8714,0.8665,0.8641,0.8612,0.8612,0.8612,0.8612,0.8612,0.8476,0.8245,0.8245,0.816,0.8032,0.8894,0.941,0.5726,0.6193,0.649,0.588,0.5971,0.617,0.5992,0.0,0.0,0.0,0.0,0.0,0.0,0.0,0.0,0.0,0.0,0.0,0.0,0.0,0.0,0.0,0.0,0.0,0.0,0.0,0.0,0.0,0.0,1.1293,1.1269,1.1265,1.1252,1.1224,1.1082,1.1106,1.1305,1.1248,1.1236,1.1265,1.1236,1.1147,1.1009,1.1009,1.0907,1.0737,0.0,1.0716,1.0692,1.0692,1.0692,1.0692,1.0692,1.0692,1.0692,1.0692,1.0692,1.0692,1.0692,1.0595,1.0415,1.0391,1.0205,0.992,0.9892,0.9766,0.9579,0.9579,0.9579,0.9579,0.9579,0.9579,0.9579,0.9579,0.9579,0.9579,0.9579,0.9579,0.9579,0.9579,0.9579,0.9579,0.9579,0.9579,0.9579,0.9579,0.9579,0.9579,0.9579,0.9579,0.9567,0.9587,0.9587,0.951,0.938,0.9363,0.9277,0.9031,0.8869,0.8718,0.8616,0.8612,0.8612,0.8612,0.8612,0.8568,0.852,0.852,0.8524,0.852,0.9384,0.9811,0.5608,0.5986,0.6367,0.6103,0.6461,0.6857,0.6652,0.6534,0.0,0.0,0.0,0.0,0.0,0.0,0.0,0.0,0.0,0.0,0.0,0.0,0.0,0.0,0.0,0.0,0.0,0.0,0.0,0.0,1.1224,1.1183,1.109,1.1086,1.1041,1.094,1.0858,1.0858,1.0936,1.0936,1.0988,1.1086,1.0984,1.0895,1.0822,1.0822,1.0773,1.0692,0.0,1.0692,1.0692,1.0692,1.0692,1.0692,1.0692,1.0692,1.0692,1.0692,1.0692,1.0692,1.0692,1.0578,1.0366,1.0318,1.0103,0.9868,0.9774,0.9689,0.9579,0.9579,0.9579,0.9579,0.9579,0.9579,0.9579,0.9579,0.9579,0.9579,0.9579,0.9579,0.9579,0.9579,0.9579,0.9579,0.9579,0.9579,0.9579,0.9579,0.9579,0.9579,0.9579,1.0109,1.0449,1.0449,1.0935,1.1239,1.1187,1.0699,1.0001,0.9159,0.8922,0.8783,0.8706,0.8617,0.8612,0.8612,0.8612,0.8612,0.8612,0.8612,0.8828,0.9345,1.0246,1.0939,0.5589,0.5835,0.6286,0.6432,0.0,0.7309,0.7342,0.7179,0.0,0.0,0.0,0.0,0.0,0.0,0.0,0.0,0.0,0.0,0.0,0.0,0.0,0.0,0.0,0.0,0.0,0.0,0.0,0.0,1.1098,1.1041,1.0967,1.0907,1.0838,1.0696,1.0692,1.0692,1.0692,1.0692,1.0765,1.0903,1.0761,1.0692,1.0692,1.0692,1.0692,1.0692,1.0692,1.0692,1.0692,1.0692,1.0692,1.0692,1.0692,1.0692,1.0692,1.0692,1.0692,1.0684,1.0643,1.0517,1.0339,1.0156,0.9973,0.9799,0.9669,0.9579,0.9579,0.9579,0.9579,0.9579,0.9579,0.9579,0.9579,0.9579,0.9579,0.9579,0.9579,0.9579,0.9579,0.9579,0.9579,0.9579,0.9579,0.9579,0.9579,0.9579,0.9579,0.9579,0.9579,1.0547,1.1219,1.1219,1.2096,1.2678,1.2678,1.1999,1.1091,1.0029,0.951,0.9311,0.9493,0.918,0.9042,0.9218,0.8999,0.8999,0.9213,0.8999,0.9345,1.0246,1.1192,1.2015,0.5931,0.612,0.644,0.6615,0.6704,0.6924,0.7612,0.7456,0.0,0.7837,0.0,0.0,0.0,0.0,0.0,0.0,0.0,0.0,0.0,0.0,0.0,0.0,0.0,0.0,0.0,0.0,0.0,1.0729,1.0729,1.0724,1.0712,1.0712,1.0704,1.0692,1.0692,1.0692,1.0692,1.0692,1.07,1.0712,1.07,1.0692,1.0692,1.0692,1.0692,1.0692,1.0692,1.0692,1.0692,1.0692,1.0692,1.0692,1.0692,1.0692,1.0692,1.0692,1.0692,1.0668,1.0509,1.0335,1.0204,0.9965,0.9786,0.9595,0.9583,0.9579,0.9579,0.9579,0.9579,0.9579,0.9579,0.9579,0.9579,0.9579,0.9579,0.9579,0.9579,0.9579,0.9579,0.9579,0.9579,0.9579,0.9579,0.9579,0.9579,0.9579,0.9579,0.9579,0.9579,1.0547,1.1219,1.1219,1.2096,1.2678,1.2678,1.263,1.2571,1.2442,1.1219,1.0812,1.1554,1.0637,1.0396,1.1073,1.0246,1.025,1.1111,1.0246,1.0289,1.1235,1.2143,1.2619,0.5741,0.5947,0.6461,0.6665,0.6967,0.0,0.0,0.7992,0.8178,0.8601,0.8686,0.0,0.0,0.0,0.0,0.0,0.0,0.0,0.0,0.0,0.0,0.0,0.0,0.0,0.0,0.0,1.0692,1.0692,1.0692,1.0692,1.0692,1.0692,1.0692,1.0692,1.0692,1.0692,1.0692,1.0692,1.0692,1.0692,1.0692,1.0692,1.0692,1.0692,1.0692,1.0692,1.0692,1.0692,1.0692,1.0692,1.0692,1.0692,1.0692,1.0692,1.0692,1.0692,1.0623,1.0521,1.0407,1.0237,0.9977,0.9908,0.977,0.9579,0.9579,0.9579,0.9579,0.9579,0.9579,0.9579,0.9579,0.9579,0.9579,0.9579,0.9579,0.9579,0.9579,1.0113,1.04,0.9723,1.0158,1.04,0.9723,1.0158,1.035,0.9723,1.0694,1.1326,1.0694,1.2101,1.3125,1.3125,1.404,1.4376,1.3757,1.428,1.4376,1.3709,1.2467,1.192,1.2205,1.174,1.1515,1.1592,1.124,1.1166,1.1284,1.0933,1.1235,1.2186,1.2534,1.3003,0.5712,0.5846,0.6388,0.6653,0.0,0.0,0.8081,0.8385,0.8747,0.9169,0.9218,0.0,0.0,0.0,0.0,0.0,0.0,0.0,0.0,0.0,0.0,0.0,0.0,0.0,0.0,1.0692,1.0692,1.0692,1.0692,1.0692,1.0692,1.0692,1.0692,1.0692,1.0692,1.0692,1.0692,1.0692,1.0692,1.0692,1.0692,1.0692,1.0692,1.0692,1.0692,1.0692,1.0692,1.0692,1.0692,1.0692,1.0692,1.0692,1.0692,1.066,1.0611,1.0611,1.0501,1.0339,1.0282,1.0095,0.9876,0.9819,0.9726,0.9579,0.9579,0.9579,0.9579,0.9579,0.9817,1.0109,1.0109,0.9871,0.9673,1.0015,1.0109,1.0109,1.0109,1.0935,1.1468,1.0743,1.1175,1.1419,1.0694,1.1179,1.1419,1.0694,1.1809,1.2436,1.1755,1.3221,1.4442,1.4729,1.5397,1.554,1.4825,1.5397,1.5493,1.4825,1.401,1.3491,1.3409,1.2963,1.2672,1.2662,1.2342,1.2178,1.2186,1.1886,1.2229,1.3137,1.3137,1.3483,0.5924,0.5906,0.6301,0.0,0.0,0.0,0.8453,0.8616,0.8771,0.9482,0.0,0.9461,0.0,0.0,0.0,0.0,0.0,0.0,0.0,0.0,0.0,0.0,0.0,0.0,0.0,1.0692,1.0692,1.0692,1.0692,1.0692,1.0692,1.0692,1.0692,1.0692,1.0692,1.0692,1.0692,1.0692,1.0692,1.0692,1.0692,1.0692,1.0692,1.0692,1.0692,1.0692,1.0692,1.0692,1.0692,1.0688,1.0688,1.0688,1.0688,1.0582,1.0379,1.0379,1.0318,1.0184,0.9949,0.9884,0.9855,0.9685,0.9579,0.9579,0.9579,0.9579,0.9579,0.9579,1.035,1.1219,1.1219,1.0449,0.992,1.0979,1.1219,1.1219,1.1219,1.1999,1.2732,1.2678,1.2732,1.2732,1.2678,1.2732,1.2732,1.2678,1.2732,1.2727,1.2727,1.3661,1.4682,1.5689,1.5784,1.5784,1.5784,1.5784,1.5784,1.5784,1.5784,1.5698,1.5411,1.4399,1.4045,1.4492,1.3592,1.3455,1.4088,1.3179,1.3179,1.4088,1.4088,1.4088,0.6534,0.6405,0.0,0.0,0.0,0.0,0.0,0.8942,0.0,0.0,0.0,0.0,0.0,0.0,0.0,0.0,0.0,0.0,0.0,0.0,0.0,0.0,0.0,0.0,1.0692,1.0692,1.0692,1.0692,1.0692,1.0692,1.0692,1.0692,1.0692,1.0692,1.0692,1.0692,1.0692,1.0692,1.0692,1.0692,1.0692,1.0692,1.0692,1.0692,1.0692,1.0692,1.0692,1.0692,1.0684,1.0562,1.0436,1.0371,1.0371,1.029,1.0245,1.0245,1.0123,0.9961,0.9904,0.9807,0.9697,0.9595,0.9579,0.9579,0.9579,0.9579,0.9579,0.9579,1.035,1.1365,1.2047,1.2004,1.1858,1.2193,1.2242,1.2242,1.2242,1.3071,1.3607,1.2829,1.3318,1.3613,1.2829,1.3318,1.3559,1.2829,1.3938,1.486,1.486,1.5153,1.5493,1.5784,1.5784,1.5784,1.5784,1.5784,1.5784,1.5784,1.5784,1.5744,1.5705,1.5362,1.5185,1.5144,1.4661,1.4418,1.4389,1.3926,1.3828,1.4088,1.4088,1.4088,0.7684,0.0,0.0,0.0,0.0,0.0,0.0,0.0,0.0,0.0,0.0,0.0,0.0,0.0,0.0,0.0,0.0,0.0,0.0,0.0,0.0,0.0,0.0,0.0,1.0481,1.0481,1.0481,1.0481,1.0481,1.0481,1.0481,1.0481,1.0481,1.0481,1.0481,1.0481,1.0481,1.0481,1.0481,1.0481,1.0481,1.0481,1.0485,1.0627,1.0692,1.0688,1.0619,1.055,1.0473,1.0367,1.0262,1.0212,1.0212,1.0167,1.0102,1.0102,0.9937,0.9782,0.9782,0.9713,0.9579,0.9579,0.9579,0.9579,0.9579,0.992,1.0256,1.0256,1.1326,1.2587,1.3167,1.365,1.3842,1.3414,1.3318,1.3318,1.3318,1.4142,1.4723,1.404,1.443,1.4675,1.4034,1.4478,1.4675,1.404,1.5003,1.5784,1.5784,1.5784,1.5784,1.5784,1.5784,1.5784,1.5784,1.5784,1.5784,1.5784,1.5784,1.5784,1.5784,1.5784,1.5691,1.5404,1.5224,1.493,1.4522,1.4342,1.4202,1.4088,1.4088,1.4088,0.9061,0.0,0.0,0.0,0.0,0.0,0.0,0.0,0.0,0.0,0.0,0.0,0.0,0.0,0.0,0.0,0.0,0.0,0.0,0.0,0.0,0.0,0.0,1.0212,1.0212,1.0212,1.0212,1.0212,1.0212,1.0212,1.0212,1.0212,1.0212,1.0212,1.0212,1.0212,1.0212,1.0212,1.0212,1.0212,1.0212,1.0212,1.0224,1.0497,1.0643,1.0635,1.0477,1.0306,1.0188,1.0188,1.018,1.0163,1.0163,1.001,0.986,0.986,0.9762,0.9579,0.9579,0.9579,0.9579,0.9579,0.9579,0.9579,0.9579,1.0355,1.1219,1.1219,1.2684,1.4298,1.4298,1.5064,1.5588,1.4634,1.4442,1.4442,1.4442,1.5159,1.5784,1.5784,1.5784,1.5784,1.5784,1.5784,1.5784,1.5784,1.5784,1.5784,1.5784,1.5784,1.5784,1.5784,1.5784,1.5784,1.5784,1.5784,1.5784,1.5784,1.5784,1.5784,1.5784,1.5784,1.5705,1.5438,1.5411,1.513,1.4603,1.4543,1.4396,1.4168,1.4135,1.4128,0.0,0.9553,0.0,0.0,0.0,0.0,0.0,0.0,0.0,0.0,0.0,0.0,0.0,0.0,0.0,0.0,0.0,0.0,0.0,0.0,0.0,0.0,0.0,1.0212,1.0212,1.0212,1.0212,1.0212,1.0212,1.0212,1.0212,1.0212,1.0212,1.0212,1.0212,1.0212,1.0212,1.0212,1.0212,1.0212,1.0212,1.0212,1.0216,1.0294,1.0331,1.0326,1.0237,1.0115,0.9945,0.9945,0.9864,0.9742,0.9742,0.9717,0.9685,0.9685,0.9661,0.9579,0.9579,0.9579,0.9579,0.9579,0.9579,0.9579,0.9579,1.0355,1.1219,1.1219,1.2684,1.4298,1.4298,1.5064,1.5737,1.554,1.5493,1.5493,1.5493,1.5635,1.5784,1.5784,1.5784,1.5784,1.5784,1.5784,1.5784,1.5784,1.5784,1.5784,1.5784,1.5784,1.5784,1.5784,1.5784,1.5784,1.5784,1.5784,1.5784,1.5784,1.5784,1.5784,1.5784,1.5784,1.5751,1.5738,1.5511,1.5337,1.5204,1.4743,1.4609,1.4814,1.4536,1.4429,0.0,0.0,0.0,0.0,0.0,0.0,0.0,0.0,0.0,0.0,0.0,0.0,0.0,0.0,0.0,0.0,0.0,0.0,0.0,0.0,0.0,0.0,0.0,0.9904,0.9904,0.9904,0.9904,0.9904,0.9904,0.9904,0.9904,0.9904,0.9904,0.9904,0.9904,0.9904,0.9904,0.9904,0.9904,0.9904,0.9904,0.9904,0.9912,1.0135,1.0163,1.0082,1.0082,0.9929,0.9762,0.9762,0.9709,0.9579,0.9579,0.9579,0.9579,0.9579,0.9579,0.9579,0.9579,0.9579,0.9579,0.9579,0.9579,0.9579,0.9579,1.0694,1.1901,1.1901,1.3409,1.5016,1.5016,1.5397,1.5784,1.5784,1.5784,1.5784,1.5784,1.5784,1.5784,1.5784,1.5784,1.5784,1.5784,1.5784,1.5784,1.5784,1.5784,1.5784,1.5784,1.5784,1.5784,1.5784,1.5784,1.5784,1.5784,1.5784,1.5784,1.5784,1.5784,1.5784,1.5784,1.5784,1.5784,1.5784,1.5678,1.5531,1.5398,1.509,1.495,1.5008,1.4803,1.473,0.0,0.0,0.0,0.0,0.0,0.0,0.0,0.0,0.0,0.0,0.0,0.0,0.0,0.0,0.0,0.0,0.0,0.0,0.0,0.0,0.0,0.0,0.0,0.9579,0.9579,0.9579,0.9579,0.9579,0.9579,0.9579,0.9579,0.9579,0.9579,0.9579,0.9579,0.9579,0.9579,0.9579,0.9579,0.9579,0.9579,0.9579,0.9587,0.9937,0.9985,0.9839,0.9839,0.9762,0.9579,0.9579,0.9579,0.9579,0.9579,0.9579,0.9579,0.9579,0.9579,0.9579,0.9579,0.9579,0.9579,0.9579,0.9579,0.9579,0.9579,1.1033,1.2678,1.2678,1.4184,1.5784,1.5784,1.5784,1.5784,1.5784,1.5784,1.5784,1.5784,1.5784,1.5784,1.5784,1.5784,1.5784,1.5784,1.5784,1.5784,1.5784,1.5784,1.5784,1.5784,1.5784,1.5784,1.5784,1.5784,1.5784,1.5784,1.5784,1.5784,1.5784,1.5784,1.5784,1.5784,1.5784,1.5784,1.5784,1.5784,1.5712,1.5471,1.5424,1.5297,1.5156,1.5109,1.5082,0.0,0.0,0.0,0.0,0.0,0.0,0.0,0.0,0.0,0.0,0.0,0.0,0.0,0.0,0.0,0.0,0.0,0.0,0.0,0.0,0.0,0.0,0.0,0.9579,0.9579,0.9579,0.9579,0.9579,0.9579,0.9579,0.9579,0.9579,0.9579,0.9579,0.9579,0.9579,0.9579,0.9579,0.9579,0.9579,0.9579,0.9579,0.9579,0.9677,0.9685,0.9661,0.9661,0.9648,0.9579,0.9579,0.9579,0.9579,0.9579,0.9579,0.9579,0.9579,0.9579,0.9579,0.9579,0.9579,0.9579,0.9579,0.9579,0.9579,0.9579,1.1033,1.2678,1.2678,1.4184,1.5784,1.5784,1.5784,1.5784,1.5784,1.5784,1.5784,1.5784,1.5784,1.5784,1.5784,1.5784,1.5784,1.5784,1.5784,1.5784,1.5784,1.5784,1.5784,1.5784,1.5784,1.5784,1.5784,1.5784,1.5784,1.5784,1.5784,1.5784,1.5784,1.5784,1.5784,1.5784,1.5784,1.5784,1.5784,1.5784,1.5764,1.5772,1.5518,1.5504,1.5705,1.5451,1.5337,0.0,0.0,0.0,0.0,0.0,0.0,0.0,0.0,0.0,0.0,0.0,0.0,0.0,0.0,0.0,0.0,0.0,0.0,0.0,0.0,0.0,0.0,0.0,0.9579,0.9579,0.9579,0.9579,0.9579,0.9579,0.9579,0.9579,0.9579,0.9579,0.9579,0.9579,0.9579,0.9579,0.9579,0.9579,0.9579,0.9579,0.9579,0.9579,0.9579,0.9579,0.9579,0.9579,0.9579,0.9579,0.9579,0.9579,0.9579,0.9579,0.9579,0.9579,0.9579,0.9579,0.9579,0.9579,0.9579,0.9579,0.9579,0.9579,0.9723,1.0306,1.1517,1.2829,1.3414,1.4669,1.5784,1.5784,1.5784,1.5784,1.5784,1.5784,1.5784,1.5784,1.5784,1.5784,1.5784,1.5784,1.5784,1.5784,1.5784,1.5784,1.5784,1.5784,1.5784,1.5784,1.5784,1.5784,1.5784,1.5784,1.5784,1.5784,1.5784,1.5784,1.5784,1.5784,1.5784,1.5784,1.5784,1.5784,1.5784,1.5784,1.5784,1.5784,1.5698,1.5705,1.5778,1.5698,1.5638,0.0,0.0,0.0,0.0,0.0,0.0,0.0,0.0,0.0,0.0,0.0,0.0,0.0,0.0,0.0,0.0,0.0,0.0,0.0,0.0,0.0,0.0,0.0,0.9579,0.9579,0.9579,0.9579,0.9579,0.9579,0.9579,0.9579,0.9579,0.9579,0.9579,0.9579,0.9579,0.9579,0.9579,0.9579,0.9579,0.9579,0.9579,0.9579,0.9579,0.9579,0.9579,0.9579,0.9579,0.9579,0.9579,0.9579,0.9579,0.9579,0.9579,0.9628,0.9916,0.9821,0.9677,1.0207,1.0212,1.0064,1.0306,1.0404,1.0547,1.1321,1.229,1.327,1.4052,1.5016,1.5784,1.5784,1.5784,1.5784,1.5784,1.5784,1.5784,1.5784,1.5784,1.5784,1.5784,1.5784,1.5784,1.5784,1.5784,1.5784,1.5784,1.5784,1.5784,1.5784,1.5784,1.5784,1.5784,1.5784,1.5784,1.5784,1.5784,1.5784,1.5784,1.5784,1.5784,1.5784,1.5784,1.5784,1.5784,1.5784,1.5784,1.5784,1.5784,1.5784,1.5784,1.5784,1.5784,0.0,0.0,0.0,0.0,0.0,0.0,0.0,0.0,0.0,0.0,0.0,0.0,0.0,0.0,0.0,0.0,0.0,0.0,0.0,0.0,0.0,0.0,0.0,0.9579,0.9579,0.9579,0.9579,0.9579,0.9579,0.9579,0.9579,0.9579,0.9579,0.9579,0.9579,0.9579,0.9579,0.9579,0.9579,0.9579,0.9579,0.9579,0.9579,0.9579,0.9579,0.9579,0.9579,0.9579,0.9579,0.9579,0.9579,0.9579,0.9579,0.9579,0.9723,1.0739,1.0449,0.9871,1.1858,1.1901,1.1268,1.2242,1.2538,1.2533,1.2635,1.3366,1.425,1.4292,1.5016,1.5784,1.5784,1.5784,1.5784,1.5784,1.5784,1.5784,1.5784,1.5784,1.5784,1.5784,1.5784,1.5784,1.5784,1.5784,1.5784,1.5784,1.5784,1.5784,1.5784,1.5784,1.5784,1.5784,1.5784,1.5784,1.5784,1.5784,1.5784,1.5784,1.5784,1.5784,1.5784,1.5784,1.5784,1.5784,1.5784,1.5784,1.5784,1.5784,1.5784,1.5784,1.5784,1.5784,0.0,0.0,0.0,0.0,0.0,0.0,0.0,0.0,0.0,0.0,0.0,0.0,0.0,0.0,0.0,0.0,0.0,0.0,0.0,0.0,0.0,0.0,0.0,0.9579,0.9579,0.9579,0.9579,0.9579,0.9579,0.9579,0.9579,0.9579,0.9579,0.9579,0.9579,0.9579,0.9579,0.9579,0.9579,0.9579,0.9579,0.9579,0.9579,0.9579,0.9579,0.9628,1.035,1.0641,1.0641,1.0641,1.1033,1.1565,1.1565,1.1565,1.1614,1.2004,1.1907,1.1712,1.2436,1.2436,1.2242,1.2581,1.2678,1.2829,1.3516,1.4004,1.4442,1.5064,1.554,1.5784,1.5784,1.5784,1.5784,1.5784,1.5784,1.5784,1.5784,1.5784,1.5784,1.5784,1.5784,1.5784,1.5784,1.5784,1.5784,1.5784,1.5784,1.5784,1.5784,1.5784,1.5784,1.5784,1.5784,1.5784,1.5784,1.5784,1.5879,1.6028,1.5879,1.5879,1.6028,1.5879,1.5784,1.5784,1.5784,1.5784,1.5784,1.5784,1.5784,1.5784,1.5784,1.5784,1.0186,0.0,0.0,0.0,0.0,0.0,0.0,0.0,0.0,0.0,0.0,0.0,0.0,0.0,0.0,0.0,0.0,0.0,0.0,0.0,0.0,0.0,0.0,0.9579,0.9579,0.9579,0.9579,0.9579,0.9579,0.0,0.9579,0.9579,0.9579,0.9579,0.9579,0.9579,0.9579,0.9579,0.9579,0.9579,0.9579,0.9579,0.9579,0.9579,0.9772,1.0158,1.0886,1.1219,1.1219,1.156,1.2096,1.2678,1.2678,1.2678,1.2732,1.3119,1.3022,1.2775,1.3505,1.3505,1.327,1.365,1.3746,1.389,1.458,1.4825,1.4921,1.5588,1.5784,1.5784,1.5784,1.5784,1.5784,1.5784,1.5784,1.5784,1.5784,1.5784,1.5784,1.5784,1.5784,1.5784,1.5784,1.5784,1.5784,1.5784,1.5879,1.5879,1.5832,1.5879,1.5879,1.5832,1.5784,1.5784,1.5784,1.5879,1.6028,1.6177,1.6116,1.6163,1.6312,1.6163,1.6069,1.6069,1.6069,1.6069,1.6069,1.5879,1.5784,1.5784,1.5784,1.5784,0.0,0.0,0.0,0.0,0.0,0.0,0.0,0.0,0.0,0.0,0.0,0.0,0.0,0.0,0.0,0.0,0.0,0.0,0.0,0.0,0.0,0.0,0.0,0.9579,0.9579,0.9579,0.9579,0.9579,0.9579,0.9579,0.9579,0.9579,0.9579,0.9579,0.9579,0.9579,0.9579,0.9579,0.9579,0.9579,0.9579,0.9628,0.9628,0.9628,1.0207,1.1219,1.1268,1.1268,1.1317,1.2339,1.2775,1.2775,1.2775,1.2775,1.2926,1.395,1.3709,1.3065,1.5099,1.5159,1.449,1.5493,1.5784,1.5784,1.5784,1.5784,1.5784,1.5784,1.5784,1.5784,1.5784,1.5784,1.5784,1.5784,1.5784,1.5784,1.5784,1.5784,1.5784,1.5784,1.5832,1.5832,1.5832,1.5825,1.5825,1.5825,1.6028,1.6123,1.5879,1.6076,1.6123,1.5832,1.5832,1.5832,1.5784,1.6028,1.6224,1.6224,1.6447,1.6588,1.6636,1.6588,1.6588,1.6588,1.6588,1.6588,1.6588,1.6069,1.5825,1.5832,1.5784,1.5784,0.968,0.0,0.0,0.0,0.0,0.0,0.0,0.0,0.0,0.0,0.0,0.0,0.0,0.0,0.0,0.0,0.0,0.0,0.0,0.0,0.0,0.0,0.0,0.9579,0.9579,0.9579,0.9579,0.0,0.9579,0.9579,0.9579,0.9579,0.9579,0.9579,0.9579,0.9579,0.9579,0.9579,0.9579,0.9579,0.9579,1.0015,1.0739,1.0739,1.093,1.1268,1.278,1.3022,1.2387,1.3414,1.4286,1.4956,1.4956,1.4956,1.4956,1.5302,1.5201,1.5003,1.5588,1.5635,1.5445,1.573,1.5784,1.5784,1.5784,1.5784,1.5784,1.5784,1.5784,1.5784,1.5784,1.5784,1.5784,1.5784,1.5784,1.5784,1.5784,1.5784,1.5784,1.5784,1.5974,1.6076,1.6076,1.6258,1.6393,1.6393,1.6447,1.6447,1.64,1.6447,1.64,1.6123,1.6076,1.6028,1.5832,1.6028,1.6265,1.6494,1.6541,1.6683,1.6878,1.6683,1.6588,1.6588,1.6588,1.6588,1.6588,1.6447,1.6258,1.6076,1.5879,1.5784,0.0,0.0,0.0,0.0,0.0,0.0,0.0,1.1528,0.0,0.0,0.0,0.0,0.0,0.0,0.0,0.0,0.0,0.0,0.0,0.0,0.0,0.0,0.0,1.0256,1.0256,0.9871,0.9579,0.9579,0.9579,0.9579,0.9579,0.9579,0.9579,0.9579,0.9579,0.9579,0.9579,1.0064,1.0064,0.9628,1.0502,1.0792,1.0547,1.1419,1.1853,1.1901,1.3559,1.419,1.4034,1.4675,1.5255,1.5784,1.5784,1.5784,1.5784,1.5784,1.5784,1.5784,1.5784,1.5784,1.5784,1.5784,1.5784,1.5784,1.5784,1.5784,1.5784,1.5784,1.5784,1.5784,1.5784,1.5784,1.5784,1.5784,1.5784,1.5784,1.5784,1.5784,1.5784,1.5784,1.6028,1.6224,1.6224,1.6407,1.6588,1.6588,1.6683,1.673,1.6636,1.6683,1.6643,1.6407,1.6359,1.6305,1.6163,1.6359,1.6595,1.6784,1.6871,1.6965,1.7113,1.6958,1.6911,1.6911,1.6911,1.6911,1.6911,1.6676,1.6541,1.6359,1.6211,1.6109,0.0,0.0,0.0,0.0,0.0,0.0,1.1541,1.1475,1.1478,0.0,0.0,0.0,0.0,0.0,0.0,0.0,0.0,0.0,0.0,0.0,0.0,0.0,0.0,1.1219,1.1219,1.0207,0.9579,0.9579,0.9579,0.9579,0.9579,0.9579,0.9673,0.9772,0.9772,0.9821,0.992,1.0886,1.0886,0.9965,1.1809,1.1809,1.0162,1.2052,1.2877,1.2926,1.3998,1.4921,1.5635,1.5737,1.5784,1.5784,1.5784,1.5784,1.5784,1.5784,1.5784,1.5784,1.5784,1.5784,1.5784,1.5784,1.5784,1.5784,1.5784,1.5784,1.5784,1.5784,1.5784,1.5784,1.5784,1.5784,1.5784,1.5784,1.5784,1.5784,1.5784,1.5784,1.5784,1.5784,1.6028,1.6224,1.6224,1.6447,1.6629,1.6676,1.6878,1.6925,1.673,1.6878,1.6925,1.6683,1.6636,1.6636,1.6588,1.6831,1.6979,1.6979,1.72,1.7279,1.7279,1.7279,1.7279,1.7279,1.7279,1.7279,1.7279,1.6864,1.6636,1.6636,1.6636,1.6588,1.1562,0.0,0.0,0.0,0.0,0.0,1.0566,1.0651,1.1016,0.0,0.0,0.0,0.0,0.0,0.0,0.0,0.0,0.0,0.0,0.0,0.0,0.0,0.0,1.1219,1.1219,1.0207,0.9579,0.9579,0.9579,0.9579,0.9579,0.9579,1.0015,1.0886,1.0886,1.1272,1.2101,1.229,1.229,1.2101,1.249,1.2926,1.342,1.3806,1.4004,1.4052,1.5064,1.5159,1.4682,1.5493,1.5784,1.5784,1.5784,1.5784,1.5784,1.5784,1.5784,1.5784,1.5784,1.5784,1.5784,1.5784,1.5784,1.5784,1.5784,1.5784,1.5784,1.5784,1.5784,1.5784,1.5784,1.5784,1.5784,1.5784,1.5784,1.5784,1.5784,1.5784,1.5784,1.5784,1.6028,1.6272,1.6494,1.6737,1.6972,1.7145,1.7192,1.7239,1.7192,1.7192,1.7153,1.6932,1.6932,1.6831,1.6636,1.6831,1.6979,1.6979,1.72,1.7279,1.7279,1.7279,1.7279,1.7279,1.7279,1.7279,1.7279,1.7066,1.6932,1.6932,1.6683,1.6588,0.0,0.0,0.0,1.1919,0.0,0.0,0.0,1.0798,1.09,1.1481,0.0,0.0,0.0,0.0,0.0,0.0,0.0,0.0,0.0,0.0,0.0,0.0,0.0,1.2319,1.2319,1.0915,1.011,1.0255,1.0933,1.1277,1.113,1.113,1.137,1.195,1.2096,1.2339,1.2678,1.3355,1.3355,1.2732,1.389,1.4088,1.3559,1.4723,1.4921,1.4346,1.535,1.5493,1.5112,1.5588,1.5784,1.5784,1.5784,1.5784,1.5784,1.5784,1.5784,1.5784,1.5784,1.5784,1.5784,1.5784,1.5784,1.5784,1.5784,1.5784,1.5784,1.5784,1.5784,1.5784,1.5784,1.5784,1.5784,1.5784,1.5784,1.5784,1.5784,1.5927,1.5981,1.5981,1.6218,1.6447,1.6588,1.6831,1.7066,1.7286,1.7279,1.7279,1.7279,1.7279,1.7239,1.7153,1.7153,1.7106,1.6958,1.7059,1.7153,1.7153,1.7239,1.7279,1.7279,1.7279,1.7279,1.7279,1.7279,1.7279,1.7279,1.72,1.7153,1.7153,1.7005,1.6958,0.0,0.0,0.0,0.0,0.0,1.2153,0.0,0.0,0.0,1.1815,0.0,0.0,0.0,0.0,0.0,0.0,0.0,0.0,0.0,0.0,0.0,0.0,0.0,1.3389,1.3444,1.1735,1.0774,1.1159,1.2078,1.2663,1.2699,1.2662,1.2775,1.3065,1.3312,1.3409,1.3451,1.4513,1.4513,1.3451,1.5391,1.5296,1.3499,1.5391,1.5737,1.4771,1.5588,1.5927,1.5879,1.5879,1.5832,1.5784,1.5784,1.5784,1.5784,1.5784,1.5784,1.5784,1.5784,1.5784,1.5784,1.5784,1.5784,1.5784,1.5784,1.5832,1.5879,1.5832,1.5832,1.5879,1.5832,1.5832,1.5879,1.5879,1.5927,1.5967,1.5967,1.6116,1.6265,1.6265,1.6447,1.6636,1.6683,1.6878,1.7066,1.7286,1.7279,1.7279,1.7279,1.7279,1.7279,1.7279,1.7279,1.7279,1.7279,1.7279,1.7279,1.7279,1.7279,1.7279,1.7279,1.7279,1.7279,1.7279,1.7279,1.7279,1.7279,1.7279,1.7279,1.7279,1.7279,1.7279,0.0,0.0,0.0,0.0,1.3975,0.0,0.0,0.0,1.1638,1.0953,0.0,0.0,0.0,0.0,0.0,0.0,0.0,0.0,0.0,0.0,0.0,0.0,0.0,1.3256,1.3548,1.2046,1.1375,1.2268,1.1494,1.1444,1.2559,1.242,1.2992,1.4411,1.4513,1.5045,1.615,1.6298,1.6298,1.615,1.644,1.6393,1.615,1.644,1.6494,1.6346,1.644,1.6353,1.617,1.617,1.6028,1.5784,1.5784,1.5784,1.5784,1.5784,1.5784,1.5784,1.5784,1.5784,1.5784,1.5784,1.5784,1.5784,1.5784,1.5981,1.6123,1.5879,1.5981,1.6076,1.5879,1.5981,1.617,1.617,1.6359,1.6487,1.6487,1.6541,1.6541,1.6541,1.6588,1.6683,1.6925,1.6979,1.7066,1.7286,1.7279,1.7279,1.7279,1.7279,1.7279,1.7279,1.7279,1.7279,1.7279,1.7279,1.7279,1.7279,1.7279,1.7279,1.7279,1.7279,1.7279,1.7279,1.7279,1.7279,1.7279,1.7279,1.7279,1.7279,1.7279,1.7279,0.0,0.0,0.0,0.0,0.0,0.0,1.2248,0.0,1.1465,0.0,0.0,0.0,0.0,0.0,0.0,0.0,0.0,0.0,0.0,0.0,0.0,0.0,0.0,0.0,1.2322,1.2455,1.2569,1.2674,1.2845,1.3296,1.4002,1.4349,1.4815,1.5505,1.5873,1.6204,1.6588,1.673,1.673,1.6588,1.6784,1.673,1.6636,1.6784,1.673,1.6588,1.6588,1.6454,1.6224,1.6224,1.6028,1.5784,1.5784,1.5784,1.5784,1.5784,1.5784,1.5784,1.5784,1.5784,1.5784,1.5784,1.5784,1.5784,1.5784,1.5981,1.6177,1.6076,1.6218,1.64,1.6305,1.6353,1.6447,1.6447,1.6541,1.6588,1.6588,1.673,1.6831,1.6831,1.6918,1.7052,1.7153,1.7066,1.7066,1.7286,1.7279,1.7279,1.7279,1.7279,1.7279,1.7279,1.7279,1.7279,1.7279,1.7279,1.7279,1.7279,1.7279,1.7279,1.7279,1.7279,1.7279,1.7279,1.7279,1.7279,1.7279,1.7279,1.7279,1.7279,1.7279,1.7279,1.6031,0.0,0.0,0.0,0.0,0.0,0.0,0.0,0.0,0.0,0.0,0.0,0.0,0.0,0.0,0.0,0.0,0.0,0.0,0.0,0.0,0.0,0.0,0.0,0.0,1.2587,1.3075,1.3134,1.3542,1.4176,1.5014,1.5497,1.5861,1.6204,1.6629,1.6839,1.677,1.6965,1.6965,1.677,1.6972,1.6965,1.6817,1.6972,1.6965,1.677,1.677,1.6636,1.6414,1.6414,1.6265,1.6021,1.6021,1.5974,1.5879,1.5832,1.5784,1.5784,1.5784,1.5784,1.5784,1.5784,1.5784,1.5784,1.5784,1.5981,1.6224,1.6224,1.64,1.6588,1.6588,1.6636,1.673,1.673,1.677,1.677,1.677,1.6918,1.7066,1.7066,1.72,1.7279,1.7279,1.72,1.7106,1.7279,1.7279,1.7279,1.7279,1.7279,1.7279,1.7279,1.7279,1.7279,1.7279,1.7279,1.7279,1.7279,1.7279,1.7279,1.7279,1.7279,1.7279,1.7279,1.7279,1.7279,1.7279,1.7279,1.7279,1.7279,1.7279,1.7279,0.0,0.0,0.0,1.4973,0.0,0.0,0.0,0.0,1.2775,0.0,0.0,0.0,0.0,0.0,0.0,0.0,0.0,0.0,0.0,0.0,0.0,0.0,0.0,0.0,0.0,1.2182,1.2299,0.0,1.259,1.2735,1.4892,1.4853,1.5282,1.6425,1.6514,1.6749,1.7279,1.7286,1.7286,1.7279,1.7286,1.7286,1.7279,1.7286,1.7286,1.7279,1.7279,1.7153,1.6979,1.6979,1.6831,1.6581,1.6581,1.6407,1.6177,1.5879,1.5784,1.5784,1.5784,1.5784,1.5784,1.5784,1.5784,1.5784,1.5784,1.5981,1.6224,1.6224,1.64,1.6588,1.6588,1.6784,1.6979,1.6979,1.7153,1.7279,1.7279,1.7279,1.7286,1.7286,1.7279,1.7279,1.7279,1.7279,1.7279,1.7279,1.7279,1.7279,1.7279,1.7279,1.7279,1.7279,1.7279,1.7279,1.7279,1.7279,1.7279,1.7279,1.7279,1.7279,1.7279,1.7279,1.7279,1.7279,1.7279,1.7279,1.7279,1.7279,1.7279,1.7279,1.7279,1.7279,0.0,0.0,1.7026,1.5745,0.0,0.0,0.0,0.0,0.0,0.0,0.0,0.0,0.0,0.0,0.0,0.0,0.0,0.0,0.0,0.0,0.0,0.0,0.0,0.0,0.0,0.0,0.0,0.0,1.2538,0.0,1.4268,1.4868,1.546,1.6089,1.651,1.6919,1.7279,1.7279,1.7279,1.7279,1.7279,1.7279,1.7279,1.7279,1.7279,1.7279,1.7279,1.72,1.6979,1.6979,1.6831,1.6588,1.6588,1.6541,1.6447,1.617,1.5927,1.5784,1.5784,1.5784,1.5784,1.5784,1.5784,1.5784,1.5784,1.5981,1.6224,1.64,1.6643,1.6878,1.7052,1.7145,1.72,1.72,1.7239,1.7279,1.7279,1.7279,1.7279,1.7279,1.7279,1.7279,1.7279,1.7279,1.7279,1.7279,1.7279,1.7279,1.7279,1.7279,1.7279,1.7279,1.7279,1.7279,1.7279,1.7279,1.7279,1.7279,1.7279,1.7279,1.7279,1.7279,1.7279,1.7279,1.7279,1.7279,1.7279,1.7279,1.7279,1.7279,1.7279,1.7279,1.7279,1.7279,0.0,1.6111,1.5445,0.0,1.3455,0.0,0.0,0.0,0.0,0.0,0.0,0.0,0.0,0.0,0.0,0.0,0.0,0.9746,0.0,0.0,0.0,0.0,0.0,0.0,1.1282,1.2244,1.2138,0.0,0.0,1.4618,1.5343,1.5899,1.6411,1.6894,1.7279,1.7279,1.7279,1.7279,1.7279,1.7279,1.7279,1.7279,1.7279,1.7279,1.7279,1.7239,1.7113,1.7113,1.7012,1.6864,1.6864,1.6824,1.6683,1.6312,1.6028,1.5784,1.5784,1.5784,1.5784,1.5784,1.5784,1.5832,1.5927,1.6076,1.6272,1.6643,1.6878,1.7073,1.7239,1.7279,1.7279,1.7279,1.7279,1.7279,1.7279,1.7279,1.7279,1.7279,1.7279,1.7279,1.7279,1.7279,1.7279,1.7279,1.7279,1.7279,1.7279,1.7279,1.7279,1.7279,1.7279,1.7279,1.7279,1.7279,1.7279,1.7279,1.7279,1.7279,1.7279,1.7279,1.7279,1.7279,1.7279,1.7279,1.7279,1.7279,1.7279,1.7279,1.7279,1.7512]}]]